     2.11           OBSERVATION DATA    G (GPS)             RINEX VERSION / TYPE
teqc 2010Oct21 OPUS Account 20111027 14:45:11UTC            PGM / RUN BY / DATE
E 1524                                                      MARKER NAME
1209                                                        MARKER NUMBER
CSMIDDLETON NGS                                             OBSERVER / AGENCY
4624K01583 TRIMBLE NETR5 4.41                               REC # / TYPE / VERS
60154430 TRM41249.00 NONE                                   ANT # / TYPE
  -755502.5561 -5526094.4507  3083674.0252                  APPROX POSITION XYZ
        2.0000        0.0000        0.0000                  ANTENNA: DELTA H/E/N
     1     1                                                WAVELENGTH FACT L1/2
     5    L1    L2    C1    P1    P2                        # / TYPES OF OBSERV
    15                                                      LEAP SECONDS
  2011     8    14     0     0    0.0000000     GPS         TIME OF FIRST OBS
                                                            END OF HEADER
 11  8 14  0  0  0.0000000  0  9G28G12G10G05G17G04G09G27G02
 124444133.724 6  96969535.89743  23680944.125                    23680953.680
 119285831.917 7  92950035.927 7  22699334.688                    22699343.078
 112412216.341 8  87594030.16546  21391311.789                    21391320.121
 124779048.202 7  97230499.432 6  23744657.648                    23744670.082
 117444091.938 8  91514962.658 7  22348862.016                    22348869.754
 107828092.952 8  84022027.40546  20518990.273                    20518998.191
 118422744.754 7  92277514.63745  22535101.398                    22535110.871
 120455196.369 7  93861144.83344  22921839.750                    22921850.141
 109639419.838 8  85433432.38846  20863667.242                    20863673.461
 11  8 14  0  0 30.0000000  0  9G28G12G10G05G17G04G09G27G02
 124538822.248 6  97043319.07843  23698962.859                    23698972.840
 119198014.304 7  92881606.660 7  22682623.563                    22682631.273
 112358330.890 8  87552041.55046  21381057.438                    21381065.840
 124673504.885 7  97148258.193 6  23724573.266                    23724585.574
 117485836.603 7  91547490.958 7  22356805.500                    22356813.254
 107882704.802 8  84064582.09146  20529382.555                    20529390.531
 118473853.642 7  92317339.72445  22544827.164                    22544837.258
 120501881.810 7  93897523.00344  22930723.477                    22930733.816
 109608489.098 8  85409330.53946  20857781.180                    20857787.109
 11  8 14  0  1  0.0000000  0  9G28G12G10G05G17G04G09G27G02
 124633764.487 6  97117299.94543  23717030.109                    23717040.098
 119110404.591 7  92813339.369 6  22665952.047                    22665959.637
 112304937.700 8  87510436.52545  21370896.906                    21370905.816
 124567995.960 7  97066043.745 6  23704495.398                    23704506.895
 117527685.956 8  91580100.811 7  22364769.375                    22364776.984
 107937663.849 8  84107407.31046  20539840.992                    20539848.414
 118525418.728 7  92357520.26945  22554640.195                    22554649.832
 120548873.130 7  93934139.51844  22939665.633                    22939676.219
 109577922.200 8  85385512.22446  20851964.602                    20851970.625
 11  8 14  0  1 30.0000000  0  9G28G12G10G05G17G04G09G27G02
 124728958.593 6  97191477.10243  23735144.711                    23735155.086
 119023005.152 7  92745235.931 6  22649320.477                    22649327.691
 112252039.435 8  87469217.15145  21360830.586                    21360839.066
 124462524.999 7  96983858.855 6  23684424.852                    23684435.996
 117569641.188 8  91612793.184 7  22372752.617                    22372760.930
 107992967.938 8  84150501.40846  20550365.188                    20550372.910
 118577437.504 7  92398054.35045  22564539.039                    22564548.543
 120596168.192 7  93970992.71944  22948666.078                    22948676.387
 109547719.150 8  85361977.41446  20846217.172                    20846222.844
 11  8 14  0  2  0.0000000  0  9G28G12G10G05G17G04G09G27G02
 124824402.651 6  97265848.97644  23753307.648                    23753317.379
 118935818.284 7  92677298.118 7  22632728.977                    22632737.066
 112199638.896 8  87428385.60045  21350859.414                    21350867.746
 124357094.434 7  96901705.450 6  23664361.547                    23664372.672
 117611702.853 7  91645568.495 7  22380757.492                    22380764.688
 108048614.540 8  84193862.39046  20560954.234                    20560962.199
 118629907.066 7  92438939.67545  22574523.867                    22574533.180
 120643764.158 7  94008080.38844  22957723.375                    22957733.328
 109517879.148 8  85338725.50146  20840538.742                    20840544.813
 11  8 14  0  2 30.0000000  0  9G28G12G10G05G17G04G09G27G02
 124920094.778 6  97340414.16944  23771516.961                    23771527.086
 118848846.419 7  92609527.844 7  22616178.914                    22616186.535
 112147737.691 8  87387943.14745  21340982.828                    21340990.980
 124251706.713 7  96819585.424 6  23644307.250                    23644318.582
 117653870.940 8  91678426.719 7  22388781.789                    22388789.270
 108104600.728 8  84237487.98546  20571607.867                    20571616.082
 118682824.051 7  92480173.62845  22584593.570                    22584602.805
 120691658.452 7  94045400.52944  22966837.203                    22966847.273
 109488401.493 8  85315755.94746  20834929.414                    20834935.313
 11  8 14  0  3  0.0000000  0  9G28G12G10G05G17G04G09G27G02
 125016033.465 6  97415171.50744  23789773.508                    23789783.406
 118762092.524 7  92541927.396 7  22599670.438                    22599678.148
 112096338.903 8  87347892.18945  21331201.938                    21331209.910
 124146364.982 7  96737501.233 6  23624260.523                    23624272.113
 117696146.278 7  91711368.530 7  22396826.180                    22396834.137
 108160924.561 8  84281376.67846  20582326.180                    20582334.051
 118736185.700 7  92521754.08745  22594747.508                    22594757.035
 120739848.967 7  94082951.49844  22976007.836                    22976018.289
 109459286.296 8  85293068.81346  20829388.891                    20829394.824
 11  8 14  0  3 30.0000000  0  9G28G12G10G05G17G04G09G27G02
 125112216.664 6  97490119.37044  23808076.648                    23808086.750
 118675558.766 7  92474498.509 7  22583203.336                    22583211.340
 112045445.102 8  87308234.72745  21321517.047                    21321525.617
 124041072.091 7  96655455.104 6  23604223.688                    23604235.207
 117738529.489 7  91744394.382 7  22404891.500                    22404899.012
 108217583.866 8  84325526.77646  20593108.281                    20593116.211
 118789989.236 7  92563678.85245  22604986.313                    22604995.770
 120788333.288 7  94120731.40244  22985234.023                    22985244.457
 109430532.879 8  85270663.59546  20823917.227                    20823923.266
 11  8 14  0  4  0.0000000  0  9G28G12G10G05G17G04G09G27G02
 125208642.868 6  97565256.57243  23826425.914                    23826436.145
 118589247.867 7  92407243.277 7  22566778.820                    22566786.805
 111995058.963 8  87268972.85345  21311929.367                    21311937.652
 123935831.178 7  96573449.495 6  23584196.961                    23584208.820
 117781021.194 7  91777504.775 7  22412977.891                    22412985.348
 108274576.207 8  84369936.39146  20603953.477                    20603961.184
 118844231.775 7  92605945.69945  22615308.313                    22615317.656
 120837108.997 7  94158738.38244  22994515.648                    22994526.027
 109402141.092 8  85248540.16446  20818514.563                    20818520.375
 11  8 14  0  4 30.0000000  0  9G28G12G10G05G17G04G09G27G02
 125305309.882 7  97640581.45543  23844821.203                    23844831.547
 118503162.303 7  92340163.621 7  22550397.313                    22550405.031
 111945182.463 8  87230108.09146  21302437.367                    21302445.738
 123830644.850 7  96491486.381 6  23564180.680                    23564191.793
 117823621.941 7  91810700.138 7  22421083.930                    22421091.633
 108331898.856 8  84414603.38846  20614861.344                    20614869.301
 118898910.057 7  92648552.08245  22625713.344                    22625722.898
 120886173.363 7  94196970.26144  23003851.898                    23003863.168
 109374110.343 8  85226698.06246  20813180.328                    20813186.012
 11  8 14  0  5  0.0000000  0  9G28G12G10G05G17G04G09G27G02
 125402216.079 6  97716092.76743  23863262.281                    23863271.359
 118417305.138 7  92273261.956 7  22534059.477                    22534067.824
 111895818.474 8  87191642.69046  21293043.914                    21293052.441
 123725515.801 7  96409567.931 6  23544174.219                    23544186.828
 117866332.138 7  91843980.792 7  22429211.758                    22429219.258
 108389549.973 8  84459526.33946  20625832.156                    20625839.898
 118954021.088 7  92691495.68044  22636200.555                    22636210.781
 120935524.114 7  94235425.30244  23013243.250                    23013253.922
 109346440.314 8  85205137.05246  20807914.930                    20807920.547
 11  8 14  0  5 30.0000000  0  9G28G12G10G05G17G04G09G27G02
 125499359.433 6  97791788.80743  23881748.469                    23881757.145
 118331678.394 7  92206539.849 7  22517765.133                    22517773.430
 111846969.417 8  87153578.54046  21283748.289                    21283756.715
 123620447.340 7  96327696.681 6  23524180.156                    23524191.914
 117909152.532 7  91877347.316 7  22437360.391                    22437368.063
 108447527.011 8  84504703.25446  20636864.477                    20636872.270
 119009562.092 7  92734774.29744  22646769.367                    22646779.977
 120985158.947 7  94274101.69644  23022688.836                    23022699.566
 109319130.533 8  85183856.74146  20802718.000                    20802724.020
 11  8 14  0  6  0.0000000  0  9G28G12G10G05G17G04G09G27G02
 125596738.230 6  97867668.32943  23900278.492                    23900288.648
 118246284.364 7  92139999.089 7  22501515.180                    22501523.520
 111798637.292 8  87115917.18146  21274550.984                    21274559.340
 123515441.890 7  96245874.495 6  23504198.758                    23504210.293
 117952083.338 7  91910799.858 7  22445529.844                    22445537.637
 108505827.231 8  84550131.99846  20647959.133                    20647966.984
 119065529.884 7  92778385.48245  22657419.867                    22657430.137
 121035074.775 7  94312997.06644  23032187.602                    23032198.164
 109292180.017 8  85162856.38346  20797589.352                    20797595.035
 11  8 14  0  6 30.0000000  0  9G28G12G10G05G17G04G09G27G02
 125694350.752 6  97943729.93643  23918853.680                    23918864.230
 118161126.326 7  92073642.214 7  22485310.188                    22485318.016
 111750824.870 8  87078660.78746  21265452.844                    21265460.664
 123410502.782 7  96164104.017 6  23484228.742                    23484240.441
 117995125.252 7  91944338.977 7  22453719.945                    22453728.113
 108564448.646 8  84595811.02446  20659114.125                    20659121.809
 119121921.225 7  92822326.69244  22668150.781                    22668160.656
 121085269.373 7  94352109.65444  23041738.766                    23041749.457
 109265589.044 8  85142136.19346  20792529.477                    20792535.156
 11  8 14  0  7  0.0000000  0  9G28G12G10G05G17G04G09G27G02
 125792194.930 6  98019972.11342  23937473.008                    23937481.895
 118076206.560 7  92007471.000 7  22469149.945                    22469158.211
 111703534.427 8  87041811.13346  21256453.320                    21256461.922
 123305632.863 7  96082387.456 6  23464272.453                    23464284.113
 118038278.883 7  91977965.166 7  22461931.586                    22461940.008
 108623388.729 8  84641738.36146  20670330.234                    20670338.121
 119178733.204 7  92866595.69144  22678961.773                    22678972.094
 121135740.253 7  94391437.51444  23051343.898                    23051354.609
 109239356.809 8  85121695.53346  20787537.141                    20787543.223
 11  8 14  0  7 30.0000000  0  9G28G12G10G05G17G04G09G27G02
 125890269.098 6  98096393.47543  23956135.352                    23956145.672
 117991527.379 7  91941487.274 7  22453036.234                    22453044.465
 111656768.387 8  87005370.10746  21247554.586                    21247562.895
 123200835.003 7  96000727.008 6  23444330.422                    23444341.492
 118081544.746 7  92011678.802 7  22470165.711                    22470173.305
 108682645.111 8  84687912.16946  20681606.180                    20681614.414
 119235963.151 7  92911190.37944  22689852.602                    22689862.523
 121186484.957 7  94430978.76244  23061000.586                    23061010.730
 109213482.859 8  85101534.05346  20782613.414                    20782619.313
 11  8 14  0  8  0.0000000  0  9G28G12G10G05G17G04G09G27G02
 125988571.120 6  98172992.30242  23974841.938                    23974852.152
 117907091.494 7  91875693.118 7  22436968.773                    22436976.164
 111610529.222 8  86969339.63046  21238755.086                    21238763.086
 123096112.258 7  95919125.115 6  23424401.938                    23424413.660
 118124923.426 7  92045480.352 7  22478420.063                    22478427.742
 108742215.631 8  84734330.75946  20692941.961                    20692950.090
 119293607.830 7  92956108.22444  22700822.336                    22700832.316
 121237501.219 7  94470731.60644  23070708.195                    23070718.930
 109187966.715 8  85081651.38146  20777758.117                    20777764.066
 11  8 14  0  8 30.0000000  0  9G28G12G10G05G17G04G09G27G02
 126087099.284 6  98249767.44043  23993591.500                    23993601.285
 117822901.822 7  91810090.813 7  22420948.180                    22420955.707
 111564819.330 8  86933721.56846  21230056.602                    21230064.848
 122991467.597 7  95837584.054 6  23404488.836                    23404500.289
 118168415.819 7  92079370.513 7  22486696.336                    22486704.367
 108802098.102 8  84780992.42546  20704337.219                    20704345.430
 119351664.374 7  93001347.00544  22711869.391                    22711879.625
 121288786.581 7  94510694.12544  23080467.430                    23080478.219
 109162808.321 8  85062047.48146  20772970.602                    20772976.129
 11  8 14  0  9  0.0000000  0  9G28G12G10G05G17G04G09G27G02
 126185850.915 6  98326716.63243  24012383.516                    24012393.352
 117738960.377 8  91744681.936 7  22404974.398                    22404982.117
 111519640.138 8  86898517.04446  21221459.367                    21221467.426
 122886903.116 7  95756105.469 6  23384590.852                    23384601.711
 118212022.049 7  92113349.368 7  22494994.156                    22495001.711
 108862289.428 8  84827894.74846  20715791.469                    20715799.355
 119410129.029 7  93046903.81644  22722995.305                    22723005.469
 121340337.728 7  94550863.76544  23090277.375                    23090288.660
 109138006.041 8  85042721.06046  20768251.086                    20768256.996
 11  8 14  0  9 30.0000000  0  9G28G12G10G05G17G04G09G27G02
 126284824.916 6  98403839.14243  24031217.023                    24031228.074
 117655269.912 8  91679468.618 7  22389048.641                    22389055.934
 111474994.626 8  86863728.37446  21212963.797                    21212971.930
 122782421.888 7  95674691.744 6  23364708.367                    23364719.203
 118255742.727 7  92147417.407 7  22503313.969                    22503321.684
 108922787.494 8  84875036.09746  20727303.594                    20727311.680
 119468998.978 7  93092776.43245  22734198.047                    22734208.555
 121392152.356 7  94591238.70344  23100137.328                    23100148.324
 109113559.669 8  85023671.96846  20763598.695                    20763604.492
 11  8 14  0 10  0.0000000  0  9G28G12G10G05G17G04G09G27G02
 126384019.422 6  98481133.47643  24050093.344                    24050103.734
 117571832.929 8  91614452.835 7  22373171.438                    22373178.598
 111430884.733 8  86829357.07146  21204569.664                    21204577.938
 122678027.660 7  95593345.791 6  23344842.438                    23344853.434
 118299578.397 7  92181575.056 7  22511655.797                    22511663.566
 108983590.096 8  84922414.73946  20738874.086                    20738881.992
 119528271.334 7  93138962.61745  22745477.813                    22745487.223
 121444228.074 7  94631817.08144  23110047.563                    23110058.152
 109089469.168 8  85004900.18046  20759014.367                    20759019.832
 11  8 14  0 10 30.0000000  0  9G28G12G10G05G17G04G09G27G02
 126483432.221 6  98558597.88943  24069011.633                    24069021.500
 117488652.370 8  91549636.857 7  22357342.539                    22357350.090
 111387313.038 8  86795405.14746  21196278.297                    21196286.355
 122573723.112 7  95512069.746 6  23324993.797                    23325004.563
 118343529.851 7  92215822.928 7  22520019.219                    22520027.309
 109044695.096 8  84970029.02346  20750501.961                    20750509.855
 119587942.929 7  93185459.88444  22756832.492                    22756842.883
 121496562.367 7  94672596.95244  23120006.711                    23120017.859
 109065733.823 8  84986405.12446  20754497.805                    20754503.453
 11  8 14  0 11  0.0000000  0  9G28G12G10G05G17G04G09G27G02
 126583061.064 6  98636230.65343  24087970.039                    24087980.871
 117405730.674 7  91485022.591 7  22341562.789                    22341570.461
 111344281.308 8  86761873.97346  21188089.945                    21188097.613
 122469510.724 7  95430865.490 6  23305162.305                    23305173.223
 118387597.502 7  92250161.340 7  22528405.695                    22528413.477
 109106099.666 8  85017876.72546  20762186.750                    20762194.750
 119648010.390 7  93232265.61845  22768263.344                    22768273.371
 121549152.585 7  94713576.25044  23130014.516                    23130024.914
 109042353.033 8  84968186.35746  20750048.617                    20750054.098
 11  8 14  0 11 30.0000000  0  9G28G12G10G05G17G04G09G27G02
 126682904.414 6  98714030.56643  24106970.078                    24106980.035
 117323070.405 7  91420612.036 7  22325833.109                    22325840.512
 111301792.091 8  86728765.53746  21180004.453                    21180011.758
 122365393.785 7  95349735.611 7  23285349.922                    23285360.977
 118431782.169 7  92284590.955 7  22536813.141                    22536821.367
 109167801.706 8  85065956.22946  20773928.484                    20773936.297
 119708470.706 7  93279377.49444  22779768.141                    22779777.938
 121601996.061 7  94754752.88444  23140069.750                    23140080.691
 109019326.145 8  84950243.34346  20745666.594                    20745672.414
 11  8 14  0 12  0.0000000  0  9G28G12G10G05G17G04G09G27G02
 126782959.697 6  98791995.64143  24126009.234                    24126020.227
 117240673.652 7  91356406.812 7  22310153.227                    22310161.672
 111259846.803 8  86696080.93746  21172022.039                    21172030.305
 122261374.885 7  95268682.167 6  23265555.594                    23265566.695
 118476083.961 7  92319111.804 7  22545243.469                    22545251.508
 109229798.248 8  85114265.21046  20785726.063                    20785734.180
 119769320.463 7  93326792.81244  22791347.773                    22791357.699
 121655089.671 7  94796124.41944  23150173.484                    23150184.316
 108996651.994 8  84932575.19746  20741351.828                    20741357.637
 11  8 14  0 12 30.0000000  0  9G28G12G10G05G17G04G09G27G02
 126883225.709 6  98870124.91443  24145089.680                    24145099.949
 117158543.412 8  91292409.268 7  22294524.648                    22294531.926
 111218448.628 8  86663822.65346  21164144.094                    21164152.082
 122157457.337 7  95187707.659 6  23245780.453                    23245791.418
 118520503.669 7  92353724.541 7  22553696.680                    22553704.684
 109292087.663 8  85162802.41446  20797579.281                    20797587.148
 119830557.099 7  93374509.60845  22803000.531                    22803011.156
 121708431.685 7  94837689.52844  23160324.461                    23160334.980
 108974330.573 8  84915181.89846  20737104.547                    20737109.891
 11  8 14  0 13  0.0000000  0  9G28G12G10G05G17G04G09G27G02
 126983700.378 6  98948416.71843  24164210.609                    24164219.996
 117076682.398 8  91228621.519 7  22278946.805                    22278954.305
 111177599.217 8  86631991.97546  21156371.008                    21156378.887
 122053643.844 7  95106814.235 6  23226024.938                    23226036.457
 118565041.904 7  92388429.643 7  22562171.906                    22562179.340
 109354667.258 8  85211565.71946  20809487.672                    20809495.742
 119892177.001 7  93422525.05144  22814726.461                    22814736.957
 121762019.229 7  94879445.94244  23170521.219                    23170532.344
 108952361.331 8  84898063.02046  20732923.594                    20732929.652
 11  8 14  0 13 30.0000000  0  9G28G12G10G05G17G04G09G27G02
 127084381.959 6  99026869.81643  24183368.266                    24183379.754
 116995093.399 8  91165045.724 7  22263421.195                    22263429.168
 111137301.201 8  86600590.96246  21148702.578                    21148710.449
 121949938.133 7  95026004.799 7  23206290.148                    23206301.293
 118609699.727 7  92423227.915 7  22570670.313                    22570677.750
 109417535.341 8  85260553.82246  20821451.070                    20821459.250
 119954177.676 7  93470837.18944  22826524.789                    22826535.301
 121815850.357 7  94921392.17544  23180764.852                    23180776.531
 108930744.122 8  84881218.46346  20728810.320                    20728816.055
 11  8 14  0 14  0.0000000  0  9G28G12G10G05G17G04G09G27G02
 127185267.876 6  99105482.05243  24202566.758                    24202577.582
 116913778.793 8  91101683.748 7  22247947.258                    22247954.914
 111097556.029 8  86569620.73446  21141139.273                    21141147.508
 121846342.267 7  94945280.935 6  23186576.711                    23186587.547
 118654477.408 7  92458119.590 7  22579191.188                    22579198.746
 109480688.805 8  85309764.31146  20833468.875                    20833476.535
 120016555.037 7  93519442.85444  22838395.227                    22838405.461
 121869921.632 7  94963525.52644  23191054.680                    23191065.637
 108909477.628 8  84864647.18646  20724763.266                    20724768.887
 11  8 14  0 14 30.0000000  0  9G28G12G10G05G17G04G09G27G02
 127286356.494 6  99184252.33842  24221803.125                    24221814.164
 116832740.915 7  91038537.413 7  22232526.234                    22232534.031
 111058365.788 8  86539082.91446  21133681.242                    21133689.473
 121742859.406 7  94864645.142 6  23166884.727                    23166895.258
 118699375.603 7  92493105.178 7  22587735.055                    22587742.754
 109544125.551 8  85359195.52646  20845540.594                    20845548.340
 120079306.192 7  93568339.79544  22850336.383                    22850346.453
 121924230.651 7  95005844.11844  23201389.305                    23201400.457
 108888561.466 8  84848348.89746  20720782.859                    20720788.547
 11  8 14  0 15  0.0000000  0  9G28G12G10G05G17G04G09G27G02
 127387645.458 6  99263178.65442  24241077.750                    24241088.578
 116751982.363 8  90975608.735 7  22217158.438                    22217166.449
 111019732.248 8  86508978.88246  21126329.828                    21126337.945
 121639492.412 7  94784099.611 6  23147214.047                    23147224.938
 118744394.341 7  92528184.694 7  22596301.563                    22596309.598
 109607843.124 8  85408845.57146  20857665.961                    20857673.438
 120142427.654 7  93617525.29244  22862348.109                    22862358.090
 121978774.601 7  95048345.79044  23211768.945                    23211780.066
 108867994.542 8  84832322.73746  20716869.430                    20716874.563
 11  8 14  0 15 30.0000000  0 10G28G12G10G05G17G04G09G27G30G02
 127489132.533 6  99342259.40942  24260390.695                    24260400.875
 116671505.894 8  90912899.846 7  22201844.391                    22201851.789
 110981657.191 8  86479310.03646  21119084.422                    21119092.262
 121536244.006 7  94703646.500 7  23127566.805                    23127577.934
 118789534.199 7  92563358.582 7  22604891.430                    22604899.559
 109671838.719 8  85458712.26346  20869843.609                    20869851.723
 120205916.085 7  93666996.72344  22874429.805                    22874440.047
 122033550.628 7  95091028.29344  23222192.406                    23222203.543
 127991541.77816  99733784.77153  24355999.430                    24356009.613
 108847776.085 8  84816568.10746  20713021.852                    20713027.457
 11  8 14  0 16  0.0000000  0 10G28G12G10G05G17G04G09G27G30G02
 127590816.432 6  99421493.47142  24279741.297                    24279750.406
 116591313.886 8  90850412.630 7  22186584.313                    22186592.016
 110944143.410 8  86450078.55046  21111945.617                    21111953.535
 121433117.740 7  94623288.546 7  23107942.375                    23107953.113
 118834796.267 7  92598627.685 7  22613504.531                    22613512.648
 109736110.595 8  85508794.23446  20882073.984                    20882081.930
 120269768.748 7  93716751.97544  22886579.734                    22886590.348
 122088556.687 7  95133890.05344  23232659.727                    23232670.617
 127885095.984 6  99650840.06143  24335742.938                    24335753.637
 108827906.016 8  84801084.95446  20709240.656                    20709246.598
 11  8 14  0 16 30.0000000  0 10G28G12G10G05G17G04G09G27G30G02
 127692695.331 6  99500879.51842  24299127.805                    24299137.559
 116511409.324 8  90788149.386 7  22171378.633                    22171386.230
 110907193.184 8  86421286.19946  21104914.242                    21104922.234
 121330116.754 7  94543028.209 7  23088341.977                    23088351.855
 118880181.247 7  92633992.592 7  22622140.578                    22622149.258
 109800656.676 8  85559089.87146  20894357.102                    20894364.785
 120333982.873 7  93766788.87445  22898800.180                    22898810.238
 122143790.322 7  95176929.15444  23243170.836                    23243181.754
 127778798.352 6  99568010.84743  24315515.117                    24315525.563
 108808384.176 8  84785873.15146  20705525.586                    20705531.121
 11  8 14  0 17  0.0000000  0 10G28G12G10G05G17G04G09G27G30G02
 127794766.865 6  99580415.70343  24318550.922                    24318561.336
 116431794.642 8  90726112.032 7  22156228.516                    22156236.258
 110870807.983 8  86392934.12646  21097990.539                    21097998.379
 121227243.530 7  94462867.439 7  23068765.234                    23068775.797
 118925689.526 7  92669453.548 7  22630801.078                    22630808.934
 109865474.100 8  85609596.93946  20906691.234                    20906699.281
 120398554.521 7  93817104.38444  22911087.352                    22911097.473
 122199248.570 7  95220143.27644  23253723.797                    23253734.805
 127672651.152 6  99485298.75443  24295316.641                    24295326.625
 108789208.990 8  84770931.47046  20701876.484                    20701882.207
 11  8 14  0 17 30.0000000  0  9G12G10G05G17G04G09G27G30G02
 116352472.992 8  90664303.006 7  22141134.031                    22141141.434
 110834990.063 8  86365024.08446  21091174.133                    21091182.219
 121124501.453 7  94382808.843 7  23049214.570                    23049224.469
 118971322.324 7  92705011.525 7  22639484.664                    22639492.129
 109930561.132 8  85660314.09546  20919076.695                    20919084.852
 120463480.876 7  93867696.27044  22923442.984                    22923452.629
 122254928.928 7  95263530.44644  23264319.547                    23264330.535
 127566657.730 6  99402706.54643  24275146.242                    24275157.023
 108770380.226 8  84756259.73946  20698293.906                    20698299.461
 11  8 14  0 18  0.0000000  0  9G12G10G05G17G04G09G27G30G02
 116273446.029 8  90602723.586 7  22126095.828                    22126102.996
 110799740.787 8  86337557.15246  21084466.688                    21084474.824
 121021893.170 7  94302854.515 7  23029688.391                    23029699.047
 119017079.670 7  92740666.558 7  22648192.094                    22648199.523
 109995914.829 8  85711239.04046  20931513.125                    20931521.094
 120528758.192 7  93918561.64444  22935864.594                    22935874.953
 122310828.425 7  95307088.38344  23274956.922                    23274968.340
 127460820.224 6  99320235.80743  24255006.477                    24255016.887
 108751896.850 8  84741857.13346  20694776.539                    20694781.949
 11  8 14  0 18 30.0000000  0  9G12G10G05G17G04G09G27G30G02
 116194716.766 7  90541376.153 7  22111113.852                    22111121.871
 110765062.052 8  86310534.79046  21077867.641                    21077875.008
 120919421.508 7  94223006.644 6  23010188.859                    23010198.305
 119062961.803 7  92776418.828 7  22656923.445                    22656931.152
 110061532.831 8  85762369.93646  20943999.867                    20944008.199
 120594383.565 7  93969698.23044  22948352.820                    22948362.719
 122366944.405 7  95350815.03444  23285635.891                    23285646.824
 127355141.333 6  99237888.62743  24234896.578                    24234906.422
 108733758.225 8  84727723.17446  20691324.641                    20691330.477
 11  8 14  0 19  0.0000000  0  9G12G10G05G17G04G09G27G30G02
 116116287.590 7  90480262.548 7  22096189.336                    22096196.785
 110730955.596 8  86283958.36946  21071376.883                    21071384.957
 120817089.514 7  94143267.573 7  22990714.906                    22990725.477
 119108969.578 7  92812268.991 7  22665677.391                    22665686.613
 110127412.944 8  85813705.07646  20956536.453                    20956544.680
 120660353.389 7  94021103.21544  22960906.234                    22960916.840
 122423274.240 7  95394708.31144  23296355.313                    23296366.570
 127249623.873 6  99155667.23343  24214817.336                    24214827.262
 108715963.556 8  84713857.22846  20687938.594                    20687944.191
 11  8 14  0 19 30.0000000  0  9G12G10G05G17G04G09G27G30G02
 116038161.248 8  90419384.895 7  22081322.133                    22081330.008
 110697423.449 8  86257829.44546  21064996.719                    21065004.113
 120714900.170 7  94063639.690 7  22971269.352                    22971278.984
 119155103.764 7  92848217.680 7  22674457.133                    22674465.543
 110193553.063 8  85865242.81746  20969122.391                    20969130.402
 120726664.682 7  94072774.26344  22973525.039                    22973535.375
 122479815.417 7  95438766.28444  23307115.055                    23307126.012
 127144270.678 6  99073573.85343  24194769.672                    24194779.691
 108698512.362 8  84700258.92946  20684617.852                    20684623.129
 11  8 14  0 20  0.0000000  0  9G12G10G05G17G04G09G27G30G02
 115960340.279 7  90358745.205 7  22066513.336                    22066520.871
 110664467.328 8  86232149.37646  21058725.195                    21058732.887
 120612857.101 7  93984125.777 7  22951850.914                    22951861.168
 119201364.694 7  92884265.119 7  22683260.164                    22683268.594
 110259950.599 8  85916981.14546  20981757.516                    20981765.660
 120793314.055 7  94124708.77544  22986207.414                    22986218.656
 122536565.150 7  95482986.76144  23317913.750                    23317924.848
 127039084.524 6  98991610.66743  24174752.766                    24174762.793
 108681404.050 8  84686927.81746  20681361.906                    20681367.262
 11  8 14  0 20 30.0000000  0  9G12G10G05G17G04G09G27G30G02
 115882827.364 8  90298345.554 7  22051763.391                    22051770.668
 110632088.668 8  86206919.28346  21052563.391                    21052571.477
 120510962.204 7  93904727.324 7  22932460.758                    22932470.340
 119247753.148 7  92920411.935 7  22692087.781                    22692096.336
 110326603.318 8  85968918.31346  20994441.422                    20994449.555
 120860297.697 7  94176903.74544  22998954.375                    22998964.863
 122593520.477 7  95527367.45144  23328752.336                    23328763.012
 126934068.009 6  98909779.68443  24154768.727                    24154778.730
 108664637.253 8  84673862.81046  20678171.531                    20678177.109
 11  8 14  0 21  0.0000000  0  9G12G10G05G17G04G09G27G30G02
 115805624.767 8  90238187.691 7  22037072.273                    22037079.762
 110600289.437 8  86182140.69346  21046512.406                    21046519.906
 120409218.950 7  93825447.036 7  22913099.586                    22913109.078
 119294269.514 7  92956658.433 7  22700939.516                    22700947.953
 110393508.624 8  86021052.30646  21007173.039                    21007181.000
 120927612.575 7  94229356.81544  23011763.945                    23011774.840
 122650678.767 7  95571906.29844  23339628.625                    23339640.527
 126829223.776 6  98828083.00243  24134817.539                    24134827.730
 108648211.236 8  84661063.35946  20675045.547                    20675051.098
 11  8 14  0 21 30.0000000  0  9G12G10G05G17G04G09G27G30G02
 115728734.878 8  90178273.506 7  22022440.688                    22022448.129
 110569070.744 8  86157814.46746  21040571.586                    21040579.473
 120307630.086 7  93746287.027 7  22893767.563                    22893777.586
 119340914.249 7  92993004.940 7  22709816.070                    22709823.656
 110460664.050 8  86073381.20146  21019952.375                    21019960.285
 120995255.142 7  94282065.22844  23024636.234                    23024646.867
 122708037.062 7  95616600.97544  23350544.125                    23350555.668
 126724554.149 6  98746522.36343  24114899.500                    24114909.125
 108632124.954 8  84648528.62246  20671984.594                    20671989.953
 11  8 14  0 22  0.0000000  0  9G12G10G05G17G04G09G27G30G02
 115652160.179 8  90118604.916 7  22007869.070                    22007876.496
 110538434.390 8  86133942.01446  21034741.586                    21034749.141
 120206198.219 7  93667249.374 6  22874465.875                    22874475.738
 119387688.002 7  93029451.977 7  22718716.594                    22718724.785
 110528067.014 8  86125902.97946  21032778.406                    21032786.559
 121063222.074 7  94335026.38644  23037570.188                    23037580.289
 122765592.623 7  95661449.37444  23361497.133                    23361508.020
 126620061.883 6  98665099.97043  24095015.383                    24095024.570
 108616377.547 8  84636257.94446  20668988.016                    20668993.043
 11  8 14  0 22 30.0000000  0  9G12G10G05G17G04G09G27G30G02
 115575904.010 8  90059184.535 7  21993357.820                    21993365.176
 110508382.994 8  86110525.36946  21029022.992                    21029031.109
 120104927.282 7  93588337.104 7  22855194.305                    22855204.145
 119434591.829 7  93066000.372 7  22727642.109                    22727650.113
 110595716.448 8  86178616.79946  21045651.500                    21045659.691
 121131510.918 7  94388238.39144  23050565.016                    23050575.238
 122823343.662 6  95706450.12344  23372485.750                    23372497.551
 126515750.687 6  98583818.66843  24075165.383                    24075174.762
 108600969.371 8  84624251.61046  20666055.906                    20666061.191
 11  8 14  0 23  0.0000000  0  9G12G10G05G17G04G09G27G30G02
 115499968.919 8  90000014.335 7  21978907.758                    21978915.430
 110478917.563 8  86087565.32546  21023415.547                    21023423.863
 120003819.947 7  93509552.330 7  22835954.203                    22835964.266
 119481625.945 7  93102650.313 7  22736592.367                    22736600.723
 110663609.246 8  86231520.25846  21058571.367                    21058579.656
 121200117.961 7  94441698.33444  23063620.602                    23063631.016
 122881287.045 6  95751600.73744  23383512.563                    23383523.816
 126411622.890 6  98502680.24643  24055350.508                    24055359.105
 108585899.241 8  84612508.67546  20663187.914                    20663193.266
 11  8 14  0 23 30.0000000  0  9G12G10G05G17G04G09G27G30G02
 115424356.984 8  89941095.958 7  21964519.461                    21964526.906
 110450039.644 8  86065063.09246  21017920.797                    21017928.441
 119902878.792 7  93430897.034 7  22816745.641                    22816754.895
 119528790.733 7  93139402.086 7  22745567.625                    22745575.590
 110731742.880 8  86284611.37646  21071536.703                    21071544.836
 121269039.302 7  94495403.19844  23076735.914                    23076745.785
 122939419.692 6  95796898.81344  23394574.844                    23394586.254
 126307680.598 6  98421686.37642  24035570.406                    24035579.691
 108571165.426 8  84601027.80846  20660384.148                    20660389.703
 11  8 14  0 24  0.0000000  0  9G12G10G05G17G04G09G27G30G02
 115349070.764 8  89882431.389 7  21950192.945                    21950200.492
 110421751.054 8  86043020.06546  21012537.625                    21012545.090
 119802107.072 7  93352373.757 7  22797568.945                    22797579.398
 119576087.258 7  93176256.492 6  22754567.648                    22754576.168
 110800115.657 8  86337888.83046  21084547.922                    21084555.852
 121338271.991 7  94549350.66244  23089910.602                    23089920.832
 122997739.282 6  95842342.55544  23405672.922                    23405684.465
 126203927.199 6  98340839.73042  24015827.000                    24015836.703
 108556767.768 8  84589808.87846  20657644.117                    20657649.746
 11  8 14  0 24 30.0000000  0  9G12G10G05G17G04G09G27G30G02
 115274113.396 8  89824023.059 7  21935929.000                    21935936.762
 110394053.802 8  86021437.83446  21007266.906                    21007274.707
 119701508.305 7  93273985.268 7  22778425.977                    22778435.781
 119623516.407 7  93213214.230 6  22763593.594                    22763601.250
 110868725.312 8  86391350.87246  21097603.945                    21097611.977
 121407813.042 7  94603538.41844  23103143.320                    23103154.320
 123056243.442 6  95887930.06744  23416805.391                    23416817.023
 126100365.827 6  98260142.68743  23996119.383                    23996129.277
 108542706.112 8  84578851.76946  20654968.453                    20654974.137
 11  8 14  0 25  0.0000000  0  9G12G10G05G17G04G09G27G30G02
 115199487.098 8  89765872.715 7  21921728.070                    21921736.113
 110366948.562 8  86000316.90046  21002108.641                    21002116.375
 119601084.840 7  93195733.356 7  22759315.813                    22759324.883
 119671078.350 7  93250275.457 7  22772644.094                    22772652.227
 110937569.214 8  86444995.45246  21110704.195                    21110712.434
 121477658.478 7  94657963.36344  23116435.219                    23116445.512
 123114928.763 6  95933658.79544  23427972.695                    23427984.973
 125996998.786 6  98179597.06343  23976449.844                    23976459.375
 108528978.967 8  84568155.31246  20652356.609                    20652361.676
 11  8 14  0 25 30.0000000  0  9G12G10G05G17G04G09G27G30G02
 115125193.943 8  89707981.966 7  21907590.570                    21907598.098
 110340436.443 8  85979658.13246  20997063.859                    20997071.832
 119500839.643 7  93117620.364 7  22740239.305                    22740249.047
 119718773.254 7  93287440.291 7  22781720.258                    22781728.316
 111006644.565 8  86498820.38246  21123849.180                    21123856.875
 121547804.601 7  94712622.60444  23129783.602                    23129794.219
 123173792.288 6  95979526.34543  23439174.930                    23439186.602
 125893828.084 6  98099204.42543  23956816.789                    23956826.637
 108515584.664 8  84557718.21146  20649807.289                    20649812.863
 11  8 14  0 26  0.0000000  0  9G12G10G05G17G04G09G27G30G02
 115051237.397 8  89650353.513 7  21893516.680                    21893524.496
 110314519.940 8  85959463.49146  20992131.883                    20992139.688
 119400775.997 7  93039648.844 7  22721198.422                    22721207.688
 119766602.225 7  93324709.583 6  22790821.781                    22790829.797
 111075949.922 8  86552824.54346  21137037.148                    21137045.211
 121618248.773 7  94767514.08644  23143188.695                    23143199.023
 123232831.978 6  96025531.18043  23450409.500                    23450421.520
 125790857.477 7  98018967.65443  23937221.734                    23937231.195
 108502523.402 8  84547540.61946  20647321.844                    20647327.227
 11  8 14  0 26 30.0000000  0  9G12G10G05G17G04G09G27G30G02
 114977619.937 8  89592989.285 7  21879507.977                    21879515.730
 110289201.004 8  85939734.47846  20987313.891                    20987321.602
 119300896.949 7  92961821.154 7  22702191.781                    22702200.664
 119814566.164 7  93362084.055 7  22799948.516                    22799956.941
 111145483.209 8  86607006.31446  21150269.320                    21150277.578
 121688987.954 7  94822635.44944  23156650.031                    23156660.703
 123292045.492 7  96071671.43944  23461678.305                    23461689.449
 125688089.964 7  97938889.14544  23917666.219                    23917675.238
 108489794.671 8  84537622.14246  20644899.914                    20644905.203
 11  8 14  0 27  0.0000000  0  9G12G10G05G17G04G09G27G30G02
 114904343.956 8  89535891.145 7  21865563.977                    21865571.992
 110264480.346 8  85920471.66846  20982609.391                    20982617.445
 119201205.362 7  92884139.538 7  22683221.078                    22683229.809
 119862665.477 7  93399564.020 7  22809102.383                    22809110.211
 111215241.864 8  86661363.70846  21163543.758                    21163551.707
 121760018.620 7  94877983.96644  23170166.828                    23170177.617
 123351429.733 7  96117944.74444  23472978.422                    23472989.531
 125585528.164 7  97858970.92143  23898149.000                    23898158.703
 108477397.484 8  84527962.00246  20642540.625                    20642546.242
 11  8 14  0 27 30.0000000  0  9G12G10G05G17G04G09G27G30G02
 114831411.846 7  89479060.950 7  21851685.508                    21851693.094
 110240358.984 8  85901675.83146  20978019.414                    20978027.293
 119101704.099 7  92806606.232 7  22664286.656                    22664295.777
 119910900.204 7  93437149.481 7  22818280.805                    22818289.164
 111285223.172 8  86715894.59646  21176860.680                    21176868.797
 121831336.800 7  94933556.51744  23183737.938                    23183748.926
 123410981.215 7  96164348.35044  23484311.117                    23484322.207
 125483174.396 7  97779214.77044  23878672.039                    23878681.363
 108465330.061 8  84518558.82646  20640244.258                    20640249.520
 11  8 14  0 28  0.0000000  0  9G12G10G05G17G04G09G27G30G02
 114758825.784 8  89422500.408 7  21837872.703                    21837880.336
 110216838.270 8  85883348.02246  20973543.125                    20973550.813
 119002396.024 7  92729223.452 7  22645388.305                    22645398.031
 119959271.049 7  93474840.998 7  22827485.617                    22827493.727
 111355425.125 8  86770597.41546  21190219.813                    21190227.656
 121902939.428 6  94989350.71544  23197363.656                    23197374.367
 123470697.387 7  96210880.30244  23495674.281                    23495685.668
 125381031.464 7  97699622.91944  23859234.375                    23859244.398
 108453591.682 8  84509412.03546  20638010.703                    20638015.387
 11  8 14  0 28 30.0000000  0  9G12G10G05G17G04G09G27G30G02
 114686588.208 8  89366211.412 7  21824126.734                    21824134.191
 110193919.703 8  85865489.42746  20969182.281                    20969189.852
 118903284.363 7  92651993.727 7  22626528.352                    22626537.301
 120007779.086 7  93512639.421 7  22836716.375                    22836724.078
 111425845.236 8  86825470.23546  21203619.984                    21203628.066
 121974822.851 7  95045363.70644  23211042.359                    23211053.273
 123530575.518 7  96257538.42444  23507069.156                    23507080.320
 125279102.197 6  97620197.57744  23839838.656                    23839847.574
 108442181.544 8  84500521.01546  20635839.188                    20635844.434
 11  8 14  0 29  0.0000000  0  9G12G10G05G17G04G09G27G30G02
 114614702.732 8  89310196.779 7  21810447.250                    21810454.770
 110171604.954 8  85848101.33346  20964936.109                    20964943.891
 118804372.391 7  92574919.608 7  22607705.539                    22607715.488
 120056424.892 7  93550545.198 7  22845973.609                    22845981.688
 111496481.819 8  86880511.73246  21217062.008                    21217070.035
 122046984.078 7  95101593.17644  23224774.539                    23224785.516
 123590613.515 7  96304321.12243  23518493.875                    23518505.570
 125177389.973 7  97540941.34644  23820482.484                    23820492.652
 108431099.502 8  84491885.65246  20633730.477                    20633735.258
 11  8 14  0 29 30.0000000  0  9G12G10G05G17G04G09G27G30G02
 114543171.595 8  89254458.247 7  21796835.125                    21796842.563
 110149895.273 8  85831184.72346  20960804.758                    20960812.805
 118705662.618 7  92498003.027 7  22588921.688                    22588930.770
 120105208.966 7  93588558.725 6  22855257.078                    22855264.707
 111567332.661 8  86935720.19446  21230544.258                    21230552.500
 122119419.395 7  95158036.22444  23238558.609                    23238569.504
 123650808.288 7  96351225.97744  23529949.008                    23529960.461
 125075897.372 6  97461856.27043  23801169.758                    23801178.551
 108420344.074 8  84483504.80346  20631683.938                    20631689.344
 11  8 14  0 30  0.0000000  0  9G12G10G05G17G04G09G27G30G02
 114471997.029 8  89198997.575 7  21783290.930                    21783298.938
 110128791.965 8  85814740.61246  20956788.898                    20956796.367
 118607158.466 7  92421246.683 7  22570177.047                    22570186.492
 120154131.947 7  93626680.469 7  22864566.789                    22864574.539
 111638395.249 8  86991093.64546  21244066.891                    21244074.805
 122192125.747 7  95214690.43744  23252394.125                    23252405.000
 123711157.361 7  96398251.05644  23541433.023                    23541445.047
 124974627.234 7  97382944.51843  23781898.313                    23781907.625
 108409914.632 8  84475377.96446  20629699.078                    20629704.375
 11  8 14  0 30 30.0000000  0  9G12G10G05G17G04G09G27G30G02
 114401181.722 8  89143816.837 7  21769815.242                    21769822.887
 110108296.005 8  85798769.76446  20952888.320                    20952896.160
 118508862.518 7  92344652.560 7  22551471.813                    22551480.582
 120203194.411 7  93664910.893 7  22873902.891                    22873911.008
 111709667.503 8  87046630.47446  21257629.375                    21257637.879
 122265099.880 7  95271553.33744  23266280.352                    23266291.613
 123771657.922 7  96445394.16344  23552946.188                    23552957.836
 124873582.359 6  97304208.31843  23762670.242                    23762679.141
 108399810.363 8  84467504.50746  20627776.469                    20627781.496
 11  8 14  0 31  0.0000000  0 10G25G12G10G05G17G04G09G27G30G02
 129535318.13616 100936667.35816  24649759.555                    24649771.645
 114330727.565 8  89088917.513 7  21756408.477                    21756415.727
 110088408.188 8  85783272.78646  20949104.281                    20949111.992
 118410777.434 7  92268222.765 7  22532806.602                    22532815.957
 120252396.583 7  93703250.195 7  22883266.289                    22883273.621
 111781146.648 8  87102328.51646  21271231.836                    21271240.074
 122338337.765 7  95328621.75444  23280217.469                    23280228.250
 123832306.626 7  96492652.71644  23564487.023                    23564498.797
 124772765.061 6  97225649.42143  23743484.531                    23743493.984
 108390029.446 8  84459883.01046  20625914.984                    20625920.445
 11  8 14  0 31 30.0000000  0 10G25G12G10G05G17G04G09G27G30G02
 129432067.717 6 100856212.661 6  24630111.609                    24630124.387
 114260636.579 8  89034301.179 7  21743070.211                    21743078.016
 110069128.989 8  85768250.05346  20945435.273                    20945442.992
 118312905.795 7  92191959.260 7  22514181.828                    22514191.375
 120301738.260 7  93741698.185 7  22892655.016                    22892663.352
 111852829.754 8  87158185.48846  21284872.461                    21284880.648
 122411835.389 7  95385892.54744  23294203.477                    23294214.250
 123893100.194 7  96540024.15044  23576055.711                    23576068.285
 124672177.514 6  97147269.57143  23724343.547                    23724352.648
 108380570.514 8  84452512.41346  20624115.313                    20624120.316
 11  8 14  0 32  0.0000000  0 10G25G12G10G05G17G04G09G27G30G02
 129328923.934 6 100775841.044 6  24610484.219                    24610496.660
 114190912.433 8  88979970.702 7  21729802.508                    21729809.605
 110050460.979 8  85753703.57246  20941883.031                    20941890.703
 118215251.769 7  92115865.334 7  22495598.898                    22495608.383
 120351221.076 7  93780256.184 7  22902071.547                    22902079.195
 111924715.898 8  87214200.66746  21298551.953                    21298560.395
 122485590.399 7  95443363.92344  23308238.430                    23308249.547
 123954036.944 6  96587507.14444  23587651.984                    23587663.988
 124571823.773 6  97069071.93243  23705246.891                    23705256.262
 108371434.054 8  84445393.09846  20622376.570                    20622382.063
 11  8 14  0 32 30.0000000  0 10G25G12G10G05G17G04G09G27G30G02
 129225889.091 6 100695554.314 6  24590876.820                    24590889.430
 114121557.752 8  88925928.110 7  21716604.617                    21716612.090
 110032404.914 8  85739633.92846  20938447.211                    20938454.516
 118117817.958 7  92039943.003 7  22477058.086                    22477066.719
 120400845.765 7  93818924.699 6  22911514.844                    22911522.977
 111996802.873 8  87270372.33246  21312269.477                    21312277.781
 122559599.135 7  95501032.97944  23322321.961                    23322333.188
 124015114.126 7  96635099.55244  23599274.430                    23599287.102
 124471706.503 6  96991058.53643  23686195.195                    23686204.141
 108362618.490 8  84438523.83246  20620698.992                    20620704.477
 11  8 14  0 33  0.0000000  0 10G25G12G10G05G17G04G09G27G30G02
 129122965.796 6 100615354.516 6  24571291.203                    24571303.789
 114052575.332 8  88872175.606 7  21703477.750                    21703485.324
 110014962.133 8  85726042.17146  20935127.703                    20935135.543
 118020607.618 7  91964194.798 7  22458559.273                    22458568.590
 120450613.274 7  93857704.512 7  22920985.406                    22920993.566
 112069088.551 8  87326698.82646  21326025.336                    21326033.191
 122633858.509 7  95558897.35744  23336453.875                    23336464.184
 124076329.309 6  96682799.51643  23610922.750                    23610935.750
 124371828.788 6  96913231.74943  23667188.680                    23667198.145
 108354123.558 8  84431904.41346  20619082.320                    20619087.836
 11  8 14  0 33 30.0000000  0 10G25G12G10G05G17G04G09G27G30G02
 129020156.551 6 100535243.547 6  24551727.414                    24551739.813
 113983967.188 8  88818714.741 7  21690421.727                    21690429.105
 109998133.816 8  85712929.21446  20931925.547                    20931933.016
 117923623.808 7  91888623.112 7  22440103.656                    22440112.988
 120500523.792 7  93896595.776 6  22930483.000                    22930491.371
 112141570.586 8  87383178.32646  21339818.188                    21339826.273
 122708365.165 7  95616954.39644  23350631.766                    23350642.723
 124137679.582 6  96730604.73144  23622598.250                    23622610.434
 124272193.388 6  96835593.86343  23648229.258                    23648238.656
 108345948.136 8  84425533.96546  20617526.617                    20617532.254
 11  8 14  0 34  0.0000000  0 10G25G12G10G05G17G04G09G27G30G02
 128917463.585 6 100455223.145 6  24532185.508                    24532198.063
 113915735.805 8  88765547.469 7  21677438.078                    21677445.484
 109981920.857 8  85700295.76246  20928840.125                    20928847.867
 117826869.080 7  91813229.924 7  22421692.227                    22421701.133
 120550577.900 7  93935598.924 6  22940008.242                    22940016.152
 112214246.761 8  87439809.11245  21353648.031                    21353656.168
 122783115.425 7  95675201.27844  23364855.961                    23364866.316
 124199161.877 6  96778512.82844  23634298.375                    23634310.379
 124172802.955 7  96758146.86044  23629315.594                    23629325.492
 108338090.816 8  84419411.38446  20616031.336                    20616037.164
 11  8 14  0 34 30.0000000  0 10G25G12G10G05G17G04G09G27G30G02
 128814889.217 6 100375295.182 6  24512666.523                    24512678.547
 113847883.393 8  88712675.510 7  21664525.984                    21664533.609
 109966323.974 8  85688142.36146  20925872.125                    20925879.887
 117730346.523 7  91738017.651 7  22403324.281                    22403333.484
 120600776.212 7  93974714.438 7  22949560.766                    22949569.090
 112287114.710 8  87496589.31645  21367514.641                    21367522.328
 122858105.929 7  95733635.34044  23379126.719                    23379137.535
 124260773.307 6  96826521.54044  23646022.367                    23646035.203
 124073660.223 6  96680892.85544  23610449.688                    23610458.508
 108330550.586 8  84413535.89646  20614596.867                    20614601.926
 11  8 14  0 35  0.0000000  0 10G25G12G10G05G17G04G09G27G30G02
 128712436.284 7 100295461.818 6  24493170.445                    24493182.277
 113780412.533 8  88660100.862 7  21651686.734                    21651694.137
 109951344.046 8  85676469.71246  20923021.172                    20923028.938
 117634058.884 7  91662988.424 7  22385000.984                    22385010.332
 120651119.325 7  94013942.814 7  22959140.320                    22959148.949
 112360172.380 8  87553517.36846  21381416.641                    21381424.621
 122933333.272 7  95792253.95144  23393442.164                    23393452.676
 124322511.119 6  96874628.74243  23657771.305                    23657783.707
 123974768.086 6  96603834.11244  23591630.617                    23591639.758
 108323326.689 8  84407906.90646  20613222.219                    20613227.898
 11  8 14  0 35 30.0000000  0 10G25G12G10G05G17G04G09G27G30G02
 128610107.262 7 100215724.981 6  24473697.383                    24473710.199
 113713326.236 8  88607825.879 7  21638920.445                    21638928.102
 109936982.757 8  85665279.10946  20920288.516                    20920296.602
 117538009.741 7  91588145.049 7  22366723.664                    22366732.719
 120701607.871 7  94053284.498 6  22968748.297                    22968756.598
 112433417.881 7  87610591.76746  21395354.383                    21395362.680
 123008794.164 6  95851054.55444  23407801.688                    23407812.613
 124384372.892 6  96922832.54544  23669543.000                    23669555.527
 123876129.606 6  96526973.03144  23572860.703                    23572869.449
 108316418.468 8  84402523.89846  20611907.469                    20611912.672
 11  8 14  0 36  0.0000000  0 10G25G12G10G05G17G04G09G27G30G02
 128507904.658 7 100136086.645 6  24454249.094                    24454261.367
 113646626.711 8  88555852.285 7  21626227.914                    21626235.406
 109923240.638 8  85654570.98446  20917673.836                    20917681.352
 117442202.025 7  91513489.786 7  22348491.734                    22348500.855
 120752242.383 7  94092739.947 7  22978383.508                    22978391.891
 112506848.915 8  87667810.72445  21409328.344                    21409336.156
 123084485.130 7  95910034.42144  23422205.234                    23422216.445
 124446355.833 6  96971130.77843  23681339.109                    23681350.680
 123777747.570 6  96450311.81144  23554139.578                    23554148.664
 108309824.970 8  84397386.12646  20610652.461                    20610657.977
 11  8 14  0 36 30.0000000  0 10G25G12G10G05G17G04G09G27G30G02
 128405830.850 7 100056548.654 6  24434825.250                    24434836.770
 113580316.286 8  88504181.883 7  21613609.820                    21613616.926
 109910118.168 8  85644345.69846  20915176.172                    20915184.082
 117346638.228 7  91439024.605 7  22330306.555                    22330315.875
 120803023.217 7  94132309.400 6  22988046.820                    22988054.629
 112580463.125 8  87725172.42045  21423336.453                    21423344.855
 123160402.764 7  95969190.88544  23436651.563                    23436663.051
 124508456.881 6  97019521.04144  23693155.664                    23693167.848
 123679624.571 6  96373852.41244  23535466.898                    23535476.195
 108303544.641 8  84392492.38746  20609457.078                    20609462.668
 11  8 14  0 37  0.0000000  0 10G25G12G10G05G17G04G09G27G30G02
 128303888.504 7  99977113.109 6  24415425.938                    24415438.156
 113514397.364 8  88452816.556 7  21601065.219                    21601072.934
 109897616.508 8  85634604.15246  20912797.117                    20912805.191
 117251321.587 7  91364752.010 7  22312168.234                    22312177.531
 120853951.128 6  94171993.471 6  22997737.922                    22997746.234
 112654258.576 8  87782675.34745  21437379.180                    21437387.551
 123236543.589 7  96028521.29044  23451141.180                    23451152.203
 124570673.614 7  97068001.44844  23704995.547                    23705008.160
 123581763.730 6  96297597.32044  23516844.547                    23516853.910
 108297576.811 8  84387842.15246  20608322.063                    20608327.059
 11  8 14  0 37 30.0000000  0 10G25G12G10G05G17G04G09G27G30G02
 128202079.977 7  99897781.824 6  24396052.469                    24396064.566
 113448872.560 8  88401758.326 7  21588596.422                    21588604.027
 109885736.327 8  85625346.88046  20910536.438                    20910544.305
 117156254.661 7  91290673.996 7  22294077.180                    22294086.340
 120905026.769 7  94211792.649 7  23007458.195                    23007466.090
 112728233.033 8  87840317.75545  21451456.344                    21451464.641
 123312904.130 7  96088022.88644  23465672.523                    23465683.270
 124633002.965 7  97116569.60844  23716856.672                    23716868.703
 123484167.735 6  96221548.61744  23498271.781                    23498281.758
 108291920.268 8  84383434.47646  20607245.172                    20607250.984
 11  8 14  0 38  0.0000000  0 10G25G12G10G05G17G04G09G27G30G02
 128100407.806 7  99818556.763 6  24376704.953                    24376716.637
 113383744.360 8  88351009.136 7  21576203.055                    21576209.848
 109874478.331 8  85616574.43146  20908394.219                    20908402.063
 117061440.670 8  91216793.076 7  22276035.289                    22276044.293
 120956250.495 7  94251707.236 7  23017205.063                    23017213.719
 112802384.367 8  87898097.97145  21465566.734                    21465574.977
 123389480.953 7  96147693.02744  23480244.539                    23480255.027
 124695442.227 7  97165223.43843  23728738.266                    23728750.129
 123386839.327 6  96145708.40444  23479751.063                    23479760.598
 108286573.911 8  84379268.50646  20606227.867                    20606233.281
 11  8 14  0 38 30.0000000  0 10G25G12G10G05G17G04G09G27G30G02
 127998874.357 7  99739439.775 6  24357383.773                    24357394.973
 113319014.887 8  88300570.633 7  21563885.438                    21563892.535
 109863843.697 8  85608287.71146  20906370.594                    20906378.449
 116966882.650 7  91143111.599 7  22258041.422                    22258050.031
 121007623.004 7  94291737.760 6  23026980.945                    23026989.141
 112876710.284 8  87956014.24245  21479711.125                    21479718.660
 123466270.474 6  96207528.89644  23494857.070                    23494868.023
 124757988.420 6  97213960.58343  23740640.914                    23740652.977
 123289781.287 6  96070078.87043  23461281.836                    23461291.313
 108281536.738 8  84375343.45246  20605269.352                    20605275.133
 11  8 14  0 39  0.0000000  0 10G25G12G10G05G17G04G09G27G30G02
 127897482.390 6  99660433.057 6  24338088.281                    24338101.043
 113254686.634 8  88250444.773 7  21551644.102                    21551651.148
 109853832.758 8  85600486.99846  20904465.336                    20904473.250
 116872583.094 7  91069631.545 7  22240096.313                    22240105.652
 121059145.013 7  94331884.775 6  23036785.063                    23036793.582
 112951208.683 8  88014064.90845  21493887.125                    21493895.578
 123543269.438 7  96267527.95944  23509509.945                    23509520.398
 124820639.095 7  97262779.14943  23752563.070                    23752575.152
 123192996.477 6  95994662.24643  23442863.695                    23442873.574
 108276807.788 8  84371658.57446  20604369.539                    20604374.941
 11  8 14  0 39 30.0000000  0 10G25G12G10G05G17G04G09G27G30G02
 127796234.611 6  99581538.716 6  24318821.797                    24318834.234
 113190762.315 8  88200633.646 7  21539479.938                    21539486.813
 109844446.768 8  85593173.24846  20902679.422                    20902687.258
 116778545.551 7  90996355.641 7  22222201.820                    22222210.855
 121110817.179 7  94372148.791 6  23046618.164                    23046626.551
 113025877.772 8  88072248.57045  21508096.672                    21508104.723
 123620474.579 7  96327687.68844  23524201.367                    23524212.035
 124883391.869 6  97311677.29643  23764503.734                    23764516.402
 123096488.210 6  95919461.09443  23424498.383                    23424508.023
 108272386.533 8  84368213.46346  20603528.203                    20603533.773
 11  8 14  0 40  0.0000000  0 10G25G12G10G05G17G04G09G27G30G02
 127695133.707 6  99502758.851 6  24299582.836                    24299595.512
 113127244.383 8  88151139.181 7  21527392.578                    21527399.684
 109835686.299 8  85586346.91846  20901012.367                    20901020.313
 116684772.946 7  90923286.182 7  22204357.617                    22204366.473
 121162639.778 7  94412530.036 6  23056479.359                    23056487.945
 113100715.523 8  88130563.66645  21522337.734                    21522345.945
 123697882.689 7  96388005.55444  23538930.992                    23538942.641
 124946243.682 7  97360652.61943  23776464.617                    23776476.469
 123000259.229 6  95844477.55143  23406187.484                    23406196.473
 108268271.901 8  84365007.26646  20602745.391                    20602750.695
 11  8 14  0 40 30.0000000  0 10G25G12G10G05G17G04G09G27G30G02
 127594181.786 6  99424095.063 6  24280372.789                    24280384.586
 113064134.824 8  88101962.931 7  21515383.281                    21515390.453
 109827551.493 8  85580008.11946  20899464.234                    20899472.434
 116591267.910 7  90850425.220 7  22186564.242                    22186572.703
 121214613.132 7  94453028.718 6  23066369.758                    23066378.660
 113175719.323 8  88189008.14445  21536610.406                    21536618.910
 123775489.840 6  96448478.53244  23553699.859                    23553711.191
 125009191.063 6  97409702.40443  23788443.148                    23788455.660
 122904311.880 6  95769713.46843  23387928.766                    23387938.117
 108264461.960 8  84362038.49846  20602020.383                    20602025.414
 11  8 14  0 41  0.0000000  0 10G25G12G10G05G17G04G09G27G30G02
 127493381.481 6  99345549.445 6  24261190.945                    24261203.180
 113001436.190 8  88053106.865 7  21503451.789                    21503458.922
 109820043.314 8  85574157.60946  20898035.570                    20898043.754
 116498033.404 7  90777775.063 7  22168821.883                    22168830.777
 121266737.978 7  94493645.461 6  23076288.820                    23076297.406
 113250887.361 8  88247580.59945  21550914.250                    21550922.609
 123853292.777 6  96509104.06744  23568504.875                    23568517.023
 125072231.756 6  97458824.89043  23800439.359                    23800452.125
 122808649.330 6  95695171.29744  23369724.891                    23369733.832
 108260956.078 8  84359306.65946  20601353.000                    20601358.117
 11  8 14  0 41 30.0000000  0 10G25G12G10G05G17G04G09G27G30G02
 127392735.424 7  99267124.010 6  24242038.602                    24242050.641
 112939150.748 7  88004572.760 7  21491599.484                    21491606.848
 109813161.912 8  85568795.49346  20896726.133                    20896733.902
 116405072.386 7  90705338.009 7  22151131.578                    22151140.824
 121319014.858 7  94534380.664 6  23086236.313                    23086245.379
 113326217.483 8  88306279.35145  21565249.391                    21565257.512
 123931288.057 7  96569879.49444  23583347.391                    23583358.758
 125135362.756 6  97508017.74143  23812453.430                    23812465.684
 122713274.201 7  95620853.08344  23351575.656                    23351584.949
 108257753.225 8  84356810.94546  20600743.625                    20600748.930
 11  8 14  0 42  0.0000000  0 10G25G12G10G05G17G04G09G27G30G02
 127292246.343 7  99188820.901 7  24222916.555                    24222928.789
 112877281.007 8  87956362.576 7  21479825.758                    21479832.730
 109806908.516 8  85563922.73846  20895536.063                    20895543.902
 116312387.788 7  90633116.343 7  22133494.438                    22133503.293
 121371444.508 7  94575234.866 7  23096214.453                    23096222.727
 113401707.637 8  88365102.80745  21579614.906                    21579622.969
 124009472.442 7  96630802.25944  23598225.383                    23598237.059
 125198581.591 6  97557279.04643  23824483.211                    23824495.699
 122618189.527 6  95546761.21944  23333481.258                    23333490.527
 108254852.564 8  84354550.69946  20600191.367                    20600196.973
 11  8 14  0 42 30.0000000  0 10G25G12G10G05G17G04G09G27G30G02
 127191916.535 7  99110641.928 6  24203824.055                    24203836.391
 112815829.585 8  87908478.348 7  21468132.023                    21468139.160
 109801283.166 8  85559539.37446  20894465.836                    20894473.461
 116219982.643 7  90561112.438 7  22115910.484                    22115918.766
 121424027.420 7  94616208.519 7  23106220.516                    23106228.688
 113477355.765 8  88424049.37045  21594009.781                    21594018.477
 124087842.146 7  96691869.43344  23613138.680                    23613150.367
 125261885.427 6  97606606.59043  23836529.281                    23836542.578
 122523398.117 6  95472897.86144  23315443.055                    23315452.652
 108252252.621 8  84352524.77846  20599696.609                    20599702.145
 11  8 14  0 43  0.0000000  0 10G25G12G10G05G17G04G09G27G30G02
 127091748.967 7  99032589.369 6  24184762.805                    24184774.984
 112754798.623 7  87860921.749 7  21456518.461                    21456525.176
 109796286.732 8  85555646.07046  20893514.500                    20893522.316
 116127859.622 7  90489328.356 7  22098379.930                    22098388.449
 121476764.066 7  94657301.961 7  23116255.648                    23116264.363
 113553160.089 8  88483117.63745  21608435.844                    21608443.402
 124166394.046 6  96753078.56944  23628087.320                    23628098.508
 125325271.991 6  97655998.56043  23848591.664                    23848604.539
 122428902.901 6  95399265.31544  23297461.344                    23297470.375
 108249952.840 8  84350732.74646  20599259.219                    20599264.613
 11  8 14  0 43 30.0000000  0 10G25G12G10G05G17G04G09G27G30G02
 126991745.832 7  98954664.954 6  24165733.266                    24165744.504
 112694190.175 7  87813694.379 7  21444985.203                    21444992.355
 109791919.351 8  85552242.93446  20892683.313                    20892691.355
 116036021.697 7  90417766.436 7  22080903.586                    22080911.922
 121529655.027 7  94698515.640 6  23126320.656                    23126329.289
 113629118.182 8  88542305.73945  21622889.492                    21622897.875
 124245124.456 6  96814426.81244  23643068.898                    23643080.668
 125388737.909 6  97705452.41143  23860669.297                    23860682.031
 122334706.506 6  95325865.61744  23279536.883                    23279545.750
 108247951.669 8  84349173.40346  20598878.406                    20598883.656
 11  8 14  0 44  0.0000000  0 10G25G12G10G05G17G04G09G27G30G02
 126891909.875 7  98876870.811 6  24146734.445                    24146746.309
 112634006.931 8  87766798.336 7  21433532.391                    21433539.578
 109788181.619 7  85549330.43946  20891972.258                    20891980.078
 115944471.871 7  90346429.003 7  22063482.188                    22063490.391
 121582700.831 7  94739849.961 7  23136414.656                    23136423.859
 113705228.200 8  88601612.21645  21637372.969                    21637381.035
 124324030.022 7  96875911.55244  23658084.234                    23658095.758
 125452280.498 6  97754966.00043  23872761.633                    23872774.168
 122240811.963 6  95252701.11544  23261668.406                    23261677.980
 108246248.201 8  84347846.03446  20598554.414                    20598559.387
 11  8 14  0 44 30.0000000  0 10G25G12G10G05G17G04G09G27G30G02
 126792243.851 7  98799209.112 6  24127768.320                    24127780.875
 112574251.260 7  87720235.470 7  21422161.297                    21422168.328
 109785074.346 8  85546909.21246  20891381.148                    20891388.695
 115853213.004 7  90275318.286 7  22046115.500                    22046124.855
 121635902.154 7  94781305.480 6  23146539.195                    23146546.914
 113781488.152 8  88661035.53745  21651884.438                    21651892.871
 124403107.732 6  96937530.41944  23673132.680                    23673144.129
 125515897.248 6  97804537.35043  23884866.828                    23884879.738
 122147222.210 6  95179774.11844  23243858.828                    23243868.270
 108244841.629 8  84346750.01046  20598286.477                    20598291.656
 11  8 14  0 45  0.0000000  0 10G25G12G10G05G17G04G09G27G30G02
 126692750.001 7  98721681.556 6  24108835.852                    24108847.246
 112514925.180 7  87674007.353 7  21410871.930                    21410879.227
 109782597.419 8  85544979.15346  20890909.734                    20890917.375
 115762247.983 7  90204436.547 7  22028805.758                    22028814.438
 121689259.387 7  94822882.470 6  23156693.203                    23156700.828
 113857895.747 8  88720573.90445  21666424.352                    21666432.719
 124482353.714 7  96999280.42344  23688213.023                    23688224.078
 125579584.924 6  97854163.95443  23896986.477                    23896999.680
 122053939.690 6  95107086.52344  23226107.891                    23226117.039
 108243730.165 8  84345883.94446  20598075.133                    20598080.258
 11  8 14  0 45 30.0000000  0 10G25G12G10G05G17G04G09G27G30G02
 126593431.021 7  98644290.240 6  24089935.813                    24089947.520
 112456031.052 7  87628115.822 7  21399664.867                    21399671.977
 109780750.950 8  85543540.36546  20890558.250                    20890565.828
 115671579.694 7  90133786.020 7  22011552.023                    22011560.898
 121742772.864 7  94864581.220 6  23166875.805                    23166884.320
 113934448.972 8  88780225.74245  21680991.938                    21681000.496
 124561764.846 7  97061159.12744  23703324.078                    23703335.242
 125643341.087 6  97903843.92843  23909118.922                    23909131.988
 121960967.403 6  95034640.69244  23208416.391                    23208425.176
 108242913.049 8  84345247.24046  20597919.625                    20597924.813
 11  8 14  0 46  0.0000000  0 10G25G12G10G05G17G04G09G27G30G02
 126494289.566 7  98567037.267 6  24071069.758                    24071081.492
 112397571.352 7  87582562.807 7  21388540.336                    21388547.633
 109779535.553 8  85542593.32146  20890326.695                    20890334.941
 115581210.959 7  90063368.921 7  21994355.773                    21994364.438
 121796443.527 7  94906402.462 7  23177089.164                    23177097.777
 114011145.886 8  88839989.55145  21695587.055                    21695595.027
 124641337.636 7  97123163.78744  23718466.570                    23718477.746
 125707162.912 6  97953575.07243  23921264.828                    23921277.227
 121868308.244 6  94962438.83844  23190783.281                    23190792.293
 108242389.395 8  84344839.21446  20597819.930                    20597825.305
 11  8 14  0 46 30.0000000  0 10G25G12G10G05G17G04G09G27G30G02
 126395328.218 6  98489924.650 6  24052238.047                    24052249.480
 112339548.397 7  87537350.125 7  21377498.750                    21377505.977
 109778951.649 7  85542138.34646  20890216.211                    20890223.906
 115491144.742 7  89993187.531 7  21977216.461                    21977224.953
 121850271.723 7  94948346.460 7  23187332.305                    23187341.113
 114087984.695 8  88899863.93045  21710209.352                    21710217.094
 124721068.770 7  97185291.85144  23733638.852                    23733650.176
 125771047.746 6  98003355.29543  23933421.586                    23933434.398
 121775964.969 7  94890483.12344  23173210.852                    23173219.684
 108242158.003 8  84344658.91846  20597775.625                    20597780.988
 11  8 14  0 47  0.0000000  0 10G25G12G10G05G17G04G09G27G30G02
 126296549.724 6  98412954.507 6  24033440.367                    24033451.926
 112281964.620 7  87492479.654 7  21366541.227                    21366548.230
 109778999.603 8  85542175.72946  20890225.016                    20890233.219
 115401384.198 7  89923244.339 7  21960135.156                    21960143.762
 121904258.186 7  94990413.778 6  23197605.555                    23197613.914
 114164963.407 8  88959847.33445  21724857.664                    21724865.500
 124800954.741 7  97247540.55843  23748840.227                    23748851.719
 125834992.905 6  98053182.54744  23945589.492                    23945602.727
 121683940.576 7  94818775.89444  23155699.445                    23155707.711
 108242217.931 8  84344705.62746  20597787.273                    20597792.684
 11  8 14  0 47 30.0000000  0 10G25G12G10G05G17G04G09G27G30G02
 126197956.760 7  98336128.919 6  24014679.555                    24014690.441
 112224822.176 7  87447953.093 7  21355667.156                    21355674.230
 109779679.328 8  85542705.40546  20890354.008                    20890362.121
 115311931.949 7  89853541.379 7  21943113.219                    21943122.000
 121958403.266 7  95032604.707 6  23207908.945                    23207917.699
 114242079.848 8  89019938.06545  21739532.320                    21739540.609
 124880992.271 7  97309907.36544  23764070.883                    23764082.590
 125898995.691 6  98103054.70744  23957768.828                    23957781.664
 121592238.003 7  94747319.41344  23138248.789                    23138257.574
 108242568.066 8  84344978.47946  20597853.719                    20597858.953
 11  8 14  0 48  0.0000000  0 10G25G12G10G05G17G04G09G27G30G02
 126099551.802 7  98259449.843 6  23995953.461                    23995965.027
 112168123.243 8  87403772.114 7  21344877.797                    21344884.789
 109780991.270 8  85543727.71546  20890603.859                    20890611.703
 115222790.545 7  89784080.624 7  21926150.172                    21926158.422
 122012707.512 7  95074919.682 6  23218243.016                    23218251.090
 114319332.156 8  89080134.65145  21754232.844                    21754241.168
 124961177.929 7  97372389.57544  23779330.727                    23779342.602
 125963053.377 6  98152969.62443  23969959.383                    23969972.012
 121500859.817 7  94676115.70544  23120859.906                    23120869.078
 108243207.052 8  84345476.40146  20597975.680                    20597980.777
 11  8 14  0 48 30.0000000  0 10G25G12G10G05G17G04G09G27G30G02
 126001337.502 7  98182919.288 6  23977264.047                    23977274.539
 112111869.968 7  87359938.408 7  21334172.922                    21334180.531
 109782935.650 8  85545242.83946  20890973.820                    20890981.492
 115133963.094 7  89714864.516 7  21909246.945                    21909255.488
 122067171.327 7  95117359.013 6  23228607.031                    23228615.844
 114396718.341 8  89140435.55545  21768958.828                    21768967.367
 125041508.243 7  97434984.52244  23794616.859                    23794628.746
 126027162.884 6  98202924.94443  23982158.805                    23982171.824
 121409808.854 7  94605166.95444  23103533.797                    23103542.664
 108244133.794 8  84346198.55746  20598151.758                    20598156.641
 11  8 14  0 49  0.0000000  0 10G25G12G10G05G17G04G09G27G30G02
 125903316.553 7  98106539.400 6  23958611.031                    23958622.340
 112056064.616 8  87316453.727 7  21323553.609                    21323560.844
 109785512.608 8  85547250.87446  20891464.344                    20891471.934
 115045452.758 7  89645895.504 7  21892404.148                    21892412.227
 122121795.286 7  95159923.147 6  23239001.398                    23239010.156
 114474236.407 8  89200839.23245  21783710.391                    21783718.613
 125121979.869 7  97497689.59444  23809930.273                    23809941.496
 126091321.711 6  98252918.70843  23994367.414                    23994381.039
 121319088.072 6  94534475.50244  23086270.219                    23086278.980
 108245347.343 8  84347144.19646  20598382.539                    20598388.004
 11  8 14  0 49 30.0000000  0 10G25G12G10G05G17G04G09G27G30G02
 125805491.321 7  98030312.055 6  23939995.273                    23940007.008
 112000709.304 7  87273319.728 7  21313019.688                    21313026.922
 109788721.629 7  85549751.43346  20892074.906                    20892082.625
 114957261.634 7  89577175.231 7  21875621.641                    21875629.762
 122176580.219 7  95202612.704 6  23249426.563                    23249435.508
 114551884.286 8  89261344.06345  21798486.281                    21798494.543
 125202589.183 6  97560501.94344  23825269.734                    23825281.285
 126155526.839 6  98302948.54343  24006585.367                    24006599.016
 121228699.950 7  94464043.23744  23069069.781                    23069078.520
 108246846.315 8  84348312.24746  20598667.922                    20598673.434
 11  8 14  0 50  0.0000000  0 10G25G12G10G05G17G04G09G27G30G02
 125707864.804 7  97954239.520 6  23921417.469                    23921429.051
 111945806.460 8  87230538.311 7  21302572.227                    21302579.754
 109792563.327 7  85552744.98946  20892805.898                    20892813.789
 114869393.141 7  89508706.352 7  21858900.430                    21858908.742
 122231526.022 7  95245427.601 6  23259883.086                    23259890.977
 114629660.297 8  89321948.73345  21813286.523                    21813294.695
 125283333.220 7  97623419.28944  23840634.805                    23840646.156
 126219775.877 6  98353012.59143  24018811.961                    24018825.086
 121138647.722 6  94393872.70644  23051933.531                    23051941.883
 108248629.940 8  84349702.09246  20599007.023                    20599012.523
 11  8 14  0 50 30.0000000  0 10G25G12G10G05G17G04G09G27G30G02
 125610439.442 7  97878323.737 6  23902878.109                    23902889.266
 111891358.627 8  87188111.439 7  21292210.953                    21292218.348
 109797037.512 8  85556231.38546  20893657.469                    20893665.008
 114781850.076 7  89440491.059 7  21842241.695                    21842249.680
 122286633.491 7  95288368.506 6  23270369.234                    23270378.047
 114707562.342 8  89382651.60845  21828110.828                    21828118.867
 125364208.375 7  97686438.80143  23856024.539                    23856035.828
 126284065.753 6  98403108.45643  24031045.578                    24031058.625
 121048933.944 7  94323965.91144  23034861.195                    23034870.156
 108250696.635 8  84351312.51946  20599400.609                    20599405.629
 11  8 14  0 51  0.0000000  0 10G25G12G10G05G17G04G09G27G30G02
 125513217.952 7  97802566.834 6  23884377.094                    23884388.578
 111837367.365 8  87146040.336 7  21281937.234                    21281944.328
 109802144.604 8  85560210.95546  20894629.117                    20894636.664
 114694635.119 7  89372531.429 7  21825645.297                    21825653.848
 122341903.147 7  95331435.756 6  23280886.789                    23280895.906
 114785588.530 8  89443451.23045  21842958.383                    21842966.902
 125445211.294 7  97749557.84543  23871439.359                    23871450.813
 126348393.862 6  98453234.14643  24043286.898                    24043300.090
 120959561.538 6  94254325.12844  23017854.242                    23017862.781
 108253045.515 8  84353142.82446  20599847.344                    20599852.781
 11  8 14  0 51 30.0000000  0 10G25G12G10G05G17G04G09G27G30G02
 125416203.038 7  97726970.890 6  23865916.000                    23865927.309
 111783835.013 8  87104326.826 7  21271749.977                    21271757.301
 109807884.486 8  85564683.61346  20895721.492                    20895729.480
 114607751.136 7  89304829.710 7  21809111.656                    21809119.824
 122397335.458 7  95374629.771 6  23291435.219                    23291443.625
 114863737.076 8  89504346.18245  21857830.031                    21857838.543
 125526338.601 7  97812773.82444  23886877.305                    23886889.125
 126412757.628 6  98503387.60343  24055534.773                    24055548.332
 120870533.363 6  94184952.54844  23000912.344                    23000921.207
 108255675.444 8  84355192.13446  20600348.094                    20600353.227
 11  8 14  0 52  0.0000000  0 10G25G12G10G05G17G04G09G27G30G02
 125319397.178 7  97651537.880 6  23847494.352                    23847505.738
 111730763.773 8  87062972.620 7  21261650.867                    21261658.039
 109814257.053 8  85569649.27846  20896934.383                    20896941.789
 114521200.893 7  89237388.033 7  21792641.367                    21792649.961
 122452930.912 7  95417950.890 6  23302014.852                    23302023.449
 114942005.802 8  89565334.79045  21872724.164                    21872732.402
 125607586.869 6  97876084.07044  23902338.234                    23902350.254
 126477154.22616  98553566.53853  24067789.844                    24067802.805
 120781852.129 7  94115850.34944  22984037.445                    22984046.281
 108258585.078 8  84357459.39646  20600901.961                    20600907.203
 11  8 14  0 52 30.0000000  0 10G25G12G10G05G17G04G09G27G30G02
 125222803.166 7  97576269.942 6  23829113.156                    23829124.309
 111678155.897 8  87021979.481 7  21251639.898                    21251647.113
 109821262.185 8  85575107.84446  20898267.016                    20898274.918
 114434987.143 7  89170208.559 7  21776235.672                    21776243.590
 122508690.135 7  95461399.631 6  23312625.484                    23312633.809
 115020393.175 8  89626415.84245  21887640.695                    21887648.934
 125688952.848 6  97939486.01043  23917821.688                    23917833.902
 126541580.978 6  98603769.05643  24080049.359                    24080063.191
 120693520.817 6  94047020.81144  22967228.117                    22967237.238
 108261773.704 8  84359944.04646  20601508.516                    20601513.816
 11  8 14  0 53  0.0000000  0 10G25G12G10G05G17G04G09G27G30G02
 125126423.859 7  97501169.283 6  23810772.273                    23810783.684
 111626013.773 8  86981349.264 7  21241717.711                    21241724.844
 109828900.110 8  85581059.50246  20899720.250                    20899728.059
 114349112.969 7  89103293.682 7  21759894.242                    21759902.348
 122564613.518 7  95504976.279 6  23323267.078                    23323275.934
 115098897.340 8  89687587.89545  21902579.422                    21902587.078
 125770433.308 6  98002977.14743  23933326.016                    23933338.777
 126606035.370 6  98653993.02343  24092314.867                    24092328.961
 120605542.178 7  93978466.08844  22950486.398                    22950495.406
 108265240.399 8  84362645.37946  20602168.039                    20602173.254
 11  8 14  0 53 30.0000000  0 10G25G12G10G05G17G04G09G27G30G02
 125030261.588 7  97426237.741 6  23792473.086                    23792484.277
 111574339.340 8  86941083.485 7  21231884.305                    21231891.480
 109837170.333 8  85587503.85246  20901294.594                    20901301.672
 114263580.962 7  89036645.433 7  21743618.000                    21743625.629
 122620701.589 7  95548681.246 6  23333940.523                    23333948.770
 115177516.141 8  89748849.27845  21917540.375                    21917548.211
 125852024.802 7  98066554.81143  23948853.500                    23948865.613
 126670514.433 6  98704236.22343  24104585.016                    24104599.543
 120517918.962 7  93910188.31444  22933812.414                    22933820.820
 108268983.509 8  84365562.10746  20602880.398                    20602885.855
 11  8 14  0 54  0.0000000  0 10G25G12G10G05G17G04G09G27G30G02
 124934318.884 7  97351477.293 6  23774215.352                    23774227.156
 111523134.263 8  86901183.439 7  21222140.305                    21222147.277
 109846072.512 8  85594440.63246  20902988.164                    20902995.887
 114178393.795 7  88970265.901 7  21727407.383                    21727415.723
 122676954.627 7  95592514.771 6  23344645.211                    23344653.551
 115256247.740 7  89810198.56045  21932522.297                    21932530.613
 125933723.802 6  98130216.22243  23964400.352                    23964412.441
 126735015.416 6  98754496.48243  24116859.313                    24116873.652
 120430653.667 7  93842189.42244  22917206.031                    22917214.836
 108273001.609 8  84368693.11246  20603644.805                    20603650.023
 11  8 14  0 54 30.0000000  0 10G25G12G10G05G17G04G09G27G30G02
 124838598.704 7  97276890.240 6  23756000.406                    23756012.359
 111472401.131 8  86861651.133 7  21212486.344                    21212493.488
 109855606.972 8  85601870.09846  20904802.695                    20904810.324
 114093554.324 7  88904157.282 7  21711263.016                    21711271.285
 122733373.429 7  95636477.446 6  23355380.930                    23355389.488
 115335090.342 8  89871634.33245  21947525.313                    21947533.672
 126015527.000 7  98193958.86744  23979966.563                    23979979.145
 126799535.850 6  98804771.84643  24129137.984                    24129151.949
 120343749.449 7  93774471.91444  22900668.672                    22900677.504
 108277294.012 8  84372037.85546  20604461.906                    20604466.594
 11  8 14  0 55  0.0000000  0 10G25G12G10G05G17G04G09G27G30G02
 124743103.755 7  97202478.669 6  23737829.109                    23737839.934
 111422142.054 8  86822488.233 7  21202922.141                    21202929.320
 109865773.661 8  85609792.20946  20906737.242                    20906744.871
 114009065.432 8  88838321.857 7  21695185.141                    21695193.137
 122789958.382 7  95680569.581 6  23366149.023                    23366157.250
 115414042.150 8  89933155.20045  21962549.805                    21962557.520
 126097431.339 7  98257780.29044  23995553.367                    23995565.277
 126864072.901 6  98855060.16443  24141419.063                    24141433.117
 120257209.069 7  93707037.90744  22884200.484                    22884208.852
 108281859.707 8  84375595.55546  20605330.750                    20605335.801
 11  8 14  0 55 30.0000000  0 10G25G12G10G05G17G04G09G27G30G02
 124647836.609 7  97128244.590 6  23719700.055                    23719711.465
 111372359.101 8  86783696.329 7  21193448.883                    21193455.852
 109876571.829 8  85618206.38246  20908792.070                    20908799.879
 113924929.821 7  88772761.709 7  21679174.586                    21679182.617
 122846709.519 7  95724791.230 6  23376948.891                    23376956.793
 115493101.332 8  89994759.74345  21977594.148                    21977602.445
 126179433.377 7  98321677.85544  24011157.703                    24011169.883
 126928623.730 6  98905359.20244  24153703.172                    24153717.199
 120171035.270 7  93639889.54144  22867802.445                    22867810.953
 108286697.208 8  84379365.05546  20606251.258                    20606256.297
 11  8 14  0 56  0.0000000  0 10G25G12G10G05G17G04G09G27G30G02
 124552799.803 7  97054189.994 6  23701615.172                    23701626.910
 111323053.924 8  86745276.723 7  21184066.406                    21184073.281
 109888001.281 8  85627112.47146  20910967.273                    20910974.535
 113841150.074 7  88707478.853 7  21663231.930                    21663239.883
 122903627.752 7  95769143.077 6  23387779.438                    23387787.898
 115572265.931 8  90056446.42845  21992658.438                    21992666.840
 126261529.581 7  98385648.81844  24026780.383                    24026792.375
 126993185.524 6  98955666.77643  24165989.039                    24166002.969
 120085230.528 7  93573028.76644  22851474.117                    22851483.012
 108291805.358 8  84383345.44346  20607223.102                    20607228.293
 11  8 14  0 56 30.0000000  0 10G25G12G10G05G17G04G09G27G30G02
 124457996.011 7  96980316.948 6  23683574.266                    23683585.520
 111274228.734 8  86707231.132 7  21174774.906                    21174782.242
 109900061.812 8  85636510.29946  20913262.078                    20913269.898
 113757729.091 8  88642475.567 7  21647357.359                    21647365.480
 122960713.496 7  95813625.471 6  23398642.422                    23398651.020
 115651534.167 8  90118213.86445  22007742.555                    22007751.203
 126343716.697 7  98449690.63344  24042420.266                    24042432.004
 127057755.715 6  99005980.87043  24178276.414                    24178290.359
 119999797.883 7  93506457.93144  22835216.844                    22835225.309
 108297183.136 8  84387535.93946  20608246.680                    20608251.957
 11  8 14  0 57  0.0000000  0 10G25G12G10G05G17G04G09G27G30G02
 124363428.132 7  96906627.723 6  23665578.781                    23665589.480
 111225885.887 8  86669561.391 7  21165575.961                    21165582.859
 109912753.294 8  85646399.79246  20915677.125                    20915685.023
 113674669.664 8  88577754.008 7  21631551.516                    21631559.668
 123017967.352 7  95858238.842 6  23409537.516                    23409545.750
 115730904.277 8  90180060.69145  22022846.336                    22022854.348
 126425991.525 7  98513800.81744  24058076.602                    24058088.492
 127122331.888 6  99056299.64743  24190564.703                    24190579.488
 119914740.074 7  93440179.16844  22819030.734                    22819039.156
 108302829.446 8  84391935.67646  20609321.148                    20609326.582
 11  8 14  0 57 30.0000000  0 10G25G12G10G05G17G04G09G27G30G02
 124269098.459 7  96833124.118 6  23647628.391                    23647639.887
 111178026.937 8  86632268.714 7  21156468.758                    21156475.723
 109926074.653 8  85656780.08046  20918211.945                    20918219.707
 113591974.244 8  88513316.085 7  21615815.578                    21615823.453
 123075389.172 7  95902983.109 6  23420464.781                    23420473.105
 115810374.346 7  90241985.38945  22037969.063                    22037977.633
 126508350.570 6  98577976.58744  24073749.000                    24073761.262
 127186910.883 6  99106620.60343  24202854.539                    24202868.711
 119830059.544 6  93374194.41444  22802916.320                    22802924.430
 108308742.574 8  84396543.32646  20610446.016                    20610451.250
 11  8 14  0 58  0.0000000  0 10G25G12G10G05G17G04G09G27G30G02
 124175009.970 7  96759808.468 6  23629724.078                    23629735.250
 111130654.185 8  86595354.897 7  21147453.766                    21147460.898
 109940026.183 8  85667651.41946  20920867.031                    20920874.859
 113509645.535 8  88449163.918 7  21600148.234                    21600156.313
 123132979.880 7  95947858.969 6  23431423.875                    23431432.379
 115889942.725 7  90303986.70845  22053110.711                    22053118.758
 126590790.667 7  98642215.55644  24089436.883                    24089448.883
 127251490.382 6  99156942.00443  24215143.570                    24215157.664
 119745759.364 7  93308506.01144  22786874.445                    22786883.047
 108314921.920 8  84401358.42046  20611621.953                    20611627.629
 11  8 14  0 58 30.0000000  0 10G25G12G10G05G17G04G09G27G30G02
 124081165.256 7  96686682.760 7  23611865.820                    23611876.922
 111083769.358 8  86558821.289 7  21138532.031                    21138539.227
 109954607.422 8  85679013.44246  20923642.023                    20923649.359
 113427686.108 8  88385299.498 7  21584552.031                    21584559.984
 123190739.796 7  95992866.686 6  23442414.953                    23442423.801
 115969607.531 8  90366063.17045  22068270.086                    22068278.652
 126673308.336 7  98706514.95943  24105140.211                    24105151.418
 127316067.684 6  99207261.67643  24227431.867                    24227446.887
 119661842.210 7  93243116.08844  22770905.477                    22770914.156
 108321366.052 8  84406379.84746  20612848.086                    20612853.652
 11  8 14  0 59  0.0000000  0 10G25G12G10G05G17G04G09G27G30G02
 123987566.906 7  96613749.024 6  23594054.609                    23594065.570
 111037374.382 8  86522669.387 7  21129703.391                    21129710.125
 109969817.844 8  85690865.73446  20926536.188                    20926543.762
 113346098.919 7  88321725.135 7  21569026.570                    21569034.203
 123248669.088 7  96038006.400 7  23453438.563                    23453447.891
 116049367.045 8  90428213.42545  22083447.852                    22083456.188
 126755900.377 7  98770872.33243  24120855.984                    24120868.305
 127380639.929 6  99257577.40443  24239720.008                    24239734.859
 119578310.685 7  93178026.65744  22755010.156                    22755018.547
 108328073.612 8  84411606.53646  20614124.688                    20614129.844
 11  8 14  0 59 30.0000000  0 10G25G12G10G05G17G04G09G27G30G02
 123894217.790 7  96541009.508 7  23576290.578                    23576302.301
 110991471.696 8  86486901.087 7  21120968.000                    21120975.215
 109985656.829 7  85703207.81546  20929550.258                    20929557.695
 113264886.671 7  88258442.927 7  21553571.852                    21553580.223
 123306768.571 7  96083278.710 6  23464495.078                    23464503.711
 116129219.692 7  90490436.25545  22098643.289                    22098652.027
 126838563.670 7  98835285.20043  24136586.633                    24136598.598
 127445204.605 6  99307887.27343  24252006.516                    24252021.285
 119495167.659 7  93113239.95544  22739188.406                    22739196.824
 108335043.925 8  84417037.97046  20615450.867                    20615456.488
 11  8 14  1  0  0.0000000  0 10G25G12G10G05G17G04G09G27G30G02
 123801120.594 7  96468466.305 6  23558574.859                    23558586.262
 110946063.083 8  86451517.769 7  21112327.422                    21112334.418
 110002123.934 8  85716039.34846  20932683.633                    20932691.297
 113184052.259 8  88195455.138 7  21538189.813                    21538197.902
 123365038.692 6  96128683.981 6  23475583.508                    23475592.121
 116209163.364 7  90552730.00945  22113856.109                    22113864.234
 126921294.712 6  98899750.87243  24152329.461                    24152341.848
 127509759.152 6  99358189.26643  24264291.766                    24264305.797
 119412415.867 7  93048758.10745  22723441.461                    22723449.461
 108342275.575 8  84422673.03046  20616827.164                    20616832.645
 11  8 14  1  0 30.0000000  0 10G25G12G10G05G17G04G09G27G30G02
 123708277.858 7  96396121.387 6  23540907.313                    23540918.215
 110901150.307 8  86416520.843 7  21103780.680                    21103787.926
 110019218.389 8  85729359.71746  20935937.016                    20935944.363
 113103597.947 8  88132763.534 7  21522879.484                    21522887.801
 123423479.618 6  96174222.368 6  23486703.789                    23486712.500
 116289196.460 7  90615093.46545  22129085.805                    22129094.672
 127004090.325 6  98964266.87243  24168085.531                    24168096.949
 127574300.767 6  99408481.21642  24276573.766                    24276588.086
 119330057.981 7  92984583.20044  22707769.039                    22707777.688
 108349767.603 8  84428510.99346  20618252.898                    20618258.219
 11  8 14  1  1  0.0000000  0 10G25G12G10G05G17G04G09G27G30G02
 123615692.263 7  96323976.839 7  23523288.688                    23523300.336
 110856735.371 8  86381911.838 7  21095328.594                    21095335.801
 110036940.009 8  85743168.77846  20939308.984                    20939316.480
 113023526.447 7  88070370.218 7  21507642.516                    21507650.836
 123482091.748 6  96219894.141 6  23497857.211                    23497866.297
 116369317.466 7  90677525.38645  22144332.891                    22144340.746
 127086947.246 6  99028830.61843  24183852.188                    24183864.973
 127638826.880 6  99458761.08642  24288853.031                    24288867.102
 119248096.630 7  92920717.28545  22692172.148                    22692181.027
 108357518.499 8  84434550.67546  20619727.813                    20619733.254
 11  8 14  1  1 30.0000000  0 10G25G12G10G05G17G04G09G27G30G02
 123523366.635 7  96252034.864 7  23505719.977                    23505731.641
 110812820.240 8  86347692.294 7  21086971.891                    21086979.129
 110055288.057 8  85757465.98146  20942800.336                    20942808.531
 112943840.503 8  88008277.339 7  21492479.156                    21492486.770
 123540875.640 6  96265699.775 6  23509044.055                    23509052.707
 116449524.466 7  90740024.36245  22159595.242                    22159604.184
 127169862.289 6  99093439.62443  24199631.273                    24199642.934
 127703334.643 6  99509026.64642  24301128.539                    24301142.727
 119166534.641 7  92857162.54545  22676651.406                    22676660.453
 108365527.295 8  84440791.30946  20621251.805                    20621257.285
 11  8 14  1  2  0.0000000  0 10G25G12G10G05G17G04G09G27G30G02
 123431303.446 7  96180297.371 7  23488200.820                    23488211.914
 110769406.619 8  86313863.540 7  21078710.516                    21078717.926
 110074261.763 8  85772250.69746  20946411.516                    20946418.875
 112864542.560 8  87946486.798 7  21477389.016                    21477396.961
 123599831.660 6  96311639.507 6  23520262.891                    23520271.512
 116529815.620 7  90802588.87545  22174874.359                    22174882.652
 127252831.940 6  99158091.16843  24215419.570                    24215432.000
 127767821.426 6  99559275.89442  24313400.438                    24313413.930
 119085374.523 7  92793920.96444  22661207.180                    22661215.938
 108373792.528 8  84447231.76846  20622824.922                    20622830.453
 11  8 14  1  2 30.0000000  0 10G25G12G10G05G17G04G09G27G30G02
 123339505.392 7  96108766.490 6  23470732.391                    23470743.336
 110726496.382 8  86280427.031 7  21070544.930                    21070552.406
 110093860.765 8  85787522.66746  20950140.656                    20950148.504
 112785635.304 8  87885000.691 7  21462373.234                    21462381.563
 123658960.142 7  96357713.675 6  23531514.430                    23531522.887
 116610189.232 7  90865217.66745  22190168.836                    22190177.184
 127335852.970 6  99222782.74843  24231218.133                    24231230.219
 127832284.543 6  99609506.69742  24325666.727                    24325680.879
 119004618.978 7  92730994.62344  22645839.633                    22645848.254
 108382313.084 8  84453871.17246  20624446.391                    20624451.246
 11  8 14  1  3  0.0000000  0 10G25G12G10G05G17G04G09G27G30G02
 123247975.362 7  96037444.441 6  23453314.633                    23453325.195
 110684091.521 8  86247384.321 7  21062475.695                    21062482.539
 110114084.411 8  85803281.36646  20953989.367                    20953996.695
 112707121.458 8  87823821.129 7  21447432.680                    21447440.652
 123718261.607 7  96403922.584 6  23542798.773                    23542807.988
 116690644.004 7  90927909.68145  22205478.820                    22205487.715
 127418922.259 6  99287511.89243  24247025.289                    24247038.059
 127896721.666 6  99659717.22843  24337928.813                    24337942.871
 118924270.880 7  92668385.78144  22630549.977                    22630559.031
 108391088.102 8  84460708.86446  20626116.195                    20626121.203
 11  8 14  1  3 30.0000000  0 10G25G12G10G05G17G04G09G27G30G02
 123156715.840 7  95966333.178 6  23435948.508                    23435959.098
 110642193.508 8  86214736.556 7  21054502.805                    21054509.621
 110134931.859 8  85819526.14746  20957956.320                    20957963.406
 112629003.504 8  87762950.062 7  21432567.359                    21432574.883
 123777736.425 6  96450266.588 6  23554117.344                    23554125.281
 116771178.020 7  90990663.45145  22220804.398                    22220812.727
 127502036.369 6  99352275.93843  24262842.219                    24262854.863
 127961129.968 6  99709905.28643  24350185.672                    24350200.406
 118844332.699 7  92606096.33244  22615338.055                    22615346.637
 108400116.232 8  84467743.77846  20627834.000                    20627838.965
 11  8 14  1  4  0.0000000  0 10G25G12G10G05G17G04G09G27G30G02
 123065729.705 7  95895434.938 6  23418634.656                    23418645.148
 110600804.469 8  86182485.397 7  21046626.273                    21046633.086
 110156402.399 8  85836256.45546  20962041.961                    20962049.500
 112551283.907 8  87702389.397 7  21417777.633                    21417785.539
 123837384.961 7  96496745.929 6  23565467.531                    23565476.656
 116851789.591 7  91053477.65745  22236143.469                    22236152.207
 127585192.315 6  99417072.56643  24278665.969                    24278678.973
 128025506.827 6  99760068.83343  24362436.484                    24362451.027
 118764807.256 7  92544128.50944  22600205.367                    22600213.480
 108409396.394 8  84474975.07846  20629599.563                    20629604.844
 11  8 14  1  4 30.0000000  0 10G25G12G10G05G17G04G09G27G30G02
 122975019.405 7  95824751.642 6  23401373.016                    23401383.738
 110559926.259 8  86150632.283 7  21038847.648                    21038854.766
 110178495.095 8  85853471.55646  20966246.016                    20966253.660
 112473965.501 8  87642141.358 7  21403064.227                    21403072.082
 123897207.619 7  96543360.993 6  23576851.609                    23576859.961
 116932477.115 7  91116351.03245  22251498.344                    22251506.738
 127668386.724 6  99481899.16543  24294498.203                    24294510.203
 128089849.522 6  99810205.77043  24374680.430                    24374695.211
 118685697.057 7  92482484.24544  22585150.422                    22585159.563
 108418927.308 8  84482401.77546  20631413.539                    20631418.672
 11  8 14  1  5  0.0000000  0 10G25G12G10G05G17G04G09G27G30G02
 122884587.568 7  95754285.331 6  23384164.008                    23384174.797
 110519560.363 8  86119178.371 7  21031166.148                    21031173.137
 110201209.307 8  85871170.94546  20970568.523                    20970575.793
 112397050.693 8  87582207.793 7  21388427.969                    21388435.867
 123957204.846 7  96590112.051 6  23588269.438                    23588277.211
 117013238.663 7  91179282.09745  22266866.625                    22266875.355
 127751616.203 6  99546753.03543  24310335.992                    24310349.090
 128154155.479 6  99860314.00843  24386918.188                    24386932.871
 118607004.554 7  92421165.47344  22570176.352                    22570184.496
 108428707.299 8  84490022.55946  20633274.445                    20633279.797
 11  8 14  1  5 30.0000000  0 10G25G12G10G05G17G04G09G27G30G02
 122794437.378 7  95684038.484 6  23367008.766                    23367019.844
 110479709.102 8  86088125.463 7  21023582.594                    21023589.836
 110224544.666 8  85889354.36446  20975009.008                    20975016.539
 112320542.321 8  87522590.943 7  21373868.719                    21373877.203
 124017376.732 7  96636999.230 6  23599718.367                    23599727.520
 117094072.990 7  91242269.87245  22282248.813                    22282257.344
 127834877.916 6  99611632.01244  24326180.359                    24326193.281
 128218422.327 6  99910391.78943  24399147.367                    24399162.188
 118528733.109 7  92360174.77344  22555281.234                    22555290.141
 108438736.250 8  84497837.33946  20635182.781                    20635188.094
 11  8 14  1  6  0.0000000  0 10G25G12G10G05G17G04G09G27G30G02
 122704571.168 7  95614012.923 6  23349907.492                    23349918.484
 110440373.809 8  86057474.597 7  21016097.305                    21016104.422
 110248499.713 8  85908020.64346  20979567.070                    20979574.891
 112244442.629 7  87463292.540 7  21359387.117                    21359395.414
 124077723.826 7  96684022.931 6  23611202.656                    23611211.164
 117174978.420 7  91305313.03845  22297644.352                    22297652.809
 127918168.318 6  99676533.34044  24342029.875                    24342042.652
 128282647.425 6  99960437.04943  24411368.789                    24411384.129
 118450884.864 7  92299513.83444  22540467.438                    22540476.180
 108449012.271 8  84505844.63546  20637138.297                    20637143.598
 11  8 14  1  6 30.0000000  0 10G25G12G10G05G17G04G09G27G30G02
 122614991.570 7  95544210.697 6  23332861.398                    23332871.941
 110401556.072 8  86027227.025 7  21008710.688                    21008717.551
 110273073.867 8  85927169.34646  20984243.969                    20984251.375
 112168754.203 8  87404314.594 7  21344984.422                    21344991.898
 124138246.572 7  96731183.523 6  23622719.828                    23622728.137
 117255953.204 7  91368410.25745  22313054.023                    22313062.027
 128001484.258 6  99741454.55843  24357884.859                    24357897.781
 128346828.087 6 100010447.62643  24423582.523                    24423597.508
 118373462.359 7  92239184.64844  22525734.500                    22525742.648
 108459534.266 8  84514043.60646  20639140.648                    20639145.797
 11  8 14  1  7  0.0000000  0 10G25G12G10G05G17G04G09G27G30G02
 122525701.046 7  95474633.738 6  23315870.414                    23315881.078
 110363257.315 8  85997383.853 7  21001422.852                    21001429.516
 110298265.935 8  85946799.54046  20989037.805                    20989045.375
 112093479.182 8  87345658.794 7  21330659.867                    21330667.555
 124198945.011 7  96778481.001 6  23634270.406                    23634279.352
 117336995.607 7  91431560.16745  22328475.320                    22328483.773
 128084822.586 6  99806393.18944  24373744.539                    24373756.914
 128410961.326 6 100060421.27943  24435787.242                    24435802.316
 118296468.038 7  92179189.11544  22511082.938                    22511091.406
 108470300.925 8  84522433.22046  20641189.289                    20641194.773
 11  8 14  1  7 30.0000000  0 10G25G12G10G05G17G04G09G27G30G02
 122436702.457 7  95405284.253 7  23298933.852                    23298944.773
 110325479.800 8  85967946.832 7  20994233.813                    20994240.660
 110324074.958 8  85966910.47446  20993949.023                    20993956.484
 112018620.293 8  87287327.242 7  21316415.016                    21316422.922
 124259819.764 7  96825915.861 6  23645854.266                    23645862.520
 117418103.936 7  91494761.43745  22343910.344                    22343918.230
 128168180.045 6  99871346.72144  24389607.109                    24389619.855
 128475044.716 6 100110356.07843  24447982.148                    24447997.410
 118219904.625 7  92119529.35844  22496513.359                    22496521.754
 108481311.001 8  84531012.51646  20643284.508                    20643290.063
 11  8 14  1  8  0.0000000  0 10G25G12G10G05G17G04G09G27G30G02
 122347998.525 7  95336164.374 6  23282054.133                    23282064.734
 110288225.406 8  85938917.434 7  20987144.305                    20987151.332
 110350500.162 8  85987501.55446  20998977.234                    20998984.797
 111944180.079 8  87229321.938 7  21302249.391                    21302257.133
 124320870.930 7  96873488.196 6  23657472.008                    23657480.289
 117499276.936 7  91558013.10945  22359356.594                    22359365.445
 128251553.712 6  99936312.85943  24405472.602                    24405485.387
 128539075.706 6 100160250.02243  24460167.289                    24460182.395
 118143774.859 7  92060207.49245  22482026.438                    22482034.465
 108492563.466 8  84539780.68446  20645426.070                    20645431.387
 11  8 14  1  8 30.0000000  0 10G25G12G10G05G17G04G09G27G30G02
 122259591.935 7  95267276.188 7  23265231.352                    23265242.266
 110251495.198 8  85910296.488 7  20980155.063                    20980162.078
 110377540.712 8  86008572.11946  21004123.172                    21004130.590
 111870161.086 8  87171644.850 7  21288163.867                    21288171.688
 124382098.960 7  96921198.350 6  23669123.797                    23669132.004
 117580512.893 7  91621313.84544  22374815.477                    22374823.570
 128334940.300 6 100001289.09444  24421340.789                    24421353.617
 128603051.898 6 100210101.27143  24472341.586                    24472357.215
 118068081.221 7  92001225.46944  22467622.484                    22467630.387
 108504057.167 8  84548736.82846  20647612.992                    20647618.379
 11  8 14  1  9  0.0000000  0 10G25G12G10G05G17G04G09G27G30G02
 122171485.193 7  95198621.651 6  23248464.781                    23248475.395
 110215290.816 8  85882085.271 7  20973265.617                    20973272.789
 110405195.383 8  86030121.23246  21009385.453                    21009392.988
 111796565.705 8  87114297.850 7  21274159.234                    21274167.000
 124443504.208 7  96969046.602 6  23680808.695                    23680816.438
 117661810.187 7  91684662.37045  22390286.586                    22390293.930
 128418336.434 6 100066272.77243  24437210.633                    24437223.852
 128666970.605 6 100259907.72043  24484506.383                    24484520.879
 117992826.148 7  91942585.17245  22453301.906                    22453310.230
 108515790.836 8  84557879.96246  20649845.750                    20649851.035
 11  8 14  1  9 30.0000000  0  9G25G12G10G05G17G04G09G30G02
 122083681.253 7  95130203.053 7  23231756.414                    23231767.176
 110179614.205 8  85854285.319 7  20966476.469                    20966483.500
 110433463.469 8  86052148.31646  21014765.063                    21014772.324
 111723396.490 8  87057282.918 7  21260235.453                    21260243.309
 124505087.091 6  97017033.259 6  23692527.156                    23692536.039
 117743167.283 7  91748057.50844  22405767.688                    22405775.332
 128501739.230 6 100131261.65843  24453082.383                    24453095.492
 117918012.503 7  91884288.86045  22439065.070                    22439073.535
 108527763.439 8  84567209.27446  20652124.172                    20652129.223
 11  8 14  1 10  0.0000000  0  9G25G12G10G05G17G04G09G30G02
 121996182.674 7  95062022.402 6  23215106.172                    23215116.680
 110144466.802 8  85826897.723 7  20959788.078                    20959794.824
 110462343.802 8  86074652.48846  21020260.523                    21020268.191
 111650655.588 8  87000601.753 7  21246393.242                    21246400.934
 124566847.843 6  97065158.502 6  23704280.313                    23704288.383
 117824582.809 7  91811498.15645  22421260.328                    22421268.668
 128585145.474 6 100196253.23443  24468953.719                    24468967.066
 117843642.653 7  91826338.35345  22424913.141                    22424921.590
 108539973.874 8  84576723.91646  20654447.781                    20654453.211
 11  8 14  1 10 30.0000000  0  9G25G12G10G05G17G04G09G30G02
 121908991.933 7  94994081.617 7  23198514.047                    23198524.836
 110109850.206 8  85799923.745 7  20953200.906                    20953207.773
 110491834.792 8  86097632.50246  21025872.477                    21025879.902
 111578345.454 8  86944256.243 7  21232633.055                    21232640.680
 124628786.636 6  97113422.493 6  23716067.422                    23716074.941
 117906055.021 7  91874982.98845  22436763.992                    22436772.781
 128668551.727 6 100261244.83543  24484824.859                    24484838.617
 117769719.086 7  91768735.58945  22410846.164                    22410853.848
 108552420.652 8  84586422.71846  20656816.094                    20656821.246
 11  8 14  1 11  0.0000000  0  9G25G12G10G05G17G04G09G30G02
 121822111.702 7  94926382.796 7  23181981.242                    23181991.945
 110075765.686 8  85773364.377 7  20946714.773                    20946721.684
 110521935.533 8  86121087.64746  21031600.570                    21031607.797
 111506468.461 8  86888248.244 7  21218955.273                    21218963.098
 124690903.966 6  97161825.582 6  23727887.164                    23727895.023
 117987582.251 7  91938510.69644  22452278.383                    22452286.832
 128751955.033 6 100326234.17643  24500696.898                    24500710.523
 117696244.190 7  91711482.44145  22396864.063                    22396872.246
 108565102.511 8  84596304.69946  20659229.297                    20659234.914
 11  8 14  1 11 30.0000000  0  9G25G12G10G05G17G04G09G30G02
 121735544.799 7  94858928.124 7  23165507.813                    23165519.008
 110042215.311 8  85747221.234 7  20940330.102                    20940337.184
 110552645.035 8  86145017.14146  21037444.305                    21037452.113
 111435027.407 8  86832579.938 7  21205360.531                    21205368.160
 124753200.029 6  97210367.976 6  23739741.773                    23739750.090
 118069163.270 7  92002080.33645  22467802.406                    22467811.020
 128835352.497 6 100391218.98043  24516566.672                    24516580.063
 117623220.671 7  91654581.00545  22382968.102                    22382976.496
 108578018.474 8  84606369.10046  20661687.469                    20661692.867
 11  8 14  1 12  0.0000000  0  9G25G12G10G05G17G04G09G30G02
 121649293.715 7  94791719.541 6  23149094.359                    23149105.234
 110009200.139 8  85721495.132 7  20934047.773                    20934054.473
 110583961.987 8  86169419.99146  21043403.508                    21043410.871
 111364024.266 8  86777252.863 7  21191848.992                    21191856.277
 124815675.262 6  97259049.954 6  23751630.375                    23751638.762
 118150796.214 7  92065690.42445  22483336.805                    22483345.555
 128918740.759 6 100456196.60742  24532435.391                    24532448.801
 117550650.907 7  91598033.14545  22369158.117                    22369166.770
 108591167.270 8  84616614.92346  20664189.625                    20664194.684
 11  8 14  1 12 30.0000000  0  9G25G12G10G05G17G04G09G30G02
 121563361.262 7  94724759.237 6  23132742.227                    23132752.863
 109976722.032 8  85696187.529 7  20927867.570                    20927874.160
 110615885.189 8  86194295.22246  21049478.227                    21049486.086
 111293461.838 8  86722269.201 7  21178421.531                    21178428.969
 124878329.563 6  97307871.501 6  23763552.852                    23763561.496
 118232480.141 7  92129340.24445  22498880.422                    22498889.332
 129002116.819 6 100521164.71243  24548301.484                    24548315.160
 117478537.489 7  91541840.86745  22355435.672                    22355443.996
 108604547.739 8  84627041.26546  20666735.766                    20666740.727
 11  8 14  1 13  0.0000000  0  9G25G12G10G05G17G04G09G30G02
 121477749.987 7  94658049.197 6  23116451.172                    23116461.305
 109944782.246 8  85671299.404 7  20921789.367                    20921796.305
 110648413.619 8  86219642.06546  21055668.422                    21055675.828
 111223341.816 8  86667630.274 7  21165077.773                    21165085.555
 124941163.418 6  97356832.916 6  23775509.086                    23775518.477
 118314213.171 7  92193028.33245  22514434.055                    22514442.301
 129085477.664 6 100586121.00342  24564164.672                    24564178.102
 117406882.866 7  91486006.09545  22341800.602                    22341809.230
 108618158.849 8  84637647.33446  20669325.930                    20669331.203
 11  8 14  1 13 30.0000000  0  9G25G12G10G05G17G04G09G30G02
 121392462.475 7  94591591.436 6  23100221.188                    23100231.914
 109913382.149 8  85646831.803 7  20915814.477                    20915821.215
 110681545.886 8  86245459.43746  21061973.125                    21061981.188
 111153666.670 8  86613337.995 7  21151819.359                    21151826.797
 125004177.206 6  97405934.540 6  23787501.031                    23787509.379
 118395993.714 7  92256753.45545  22529996.234                    22530004.895
 129168820.042 6 100651062.91842  24580025.109                    24580038.082
 117335689.425 7  91430530.67645  22328252.773                    22328261.250
 108631999.168 8  84648431.99846  20671959.328                    20671964.625
 11  8 14  1 14  0.0000000  0  9G25G12G10G05G17G04G09G30G02
 121307501.493 7  94525388.119 6  23084053.617                    23084064.395
 109882523.583 8  85622786.193 7  20909941.953                    20909949.043
 110715280.750 8  86271746.36046  21068392.898                    21068400.266
 111084439.093 8  86559394.474 7  21138645.398                    21138653.508
 125067371.126 6  97455176.548 6  23799526.867                    23799534.398
 118477820.607 7  92320514.67445  22545567.492                    22545575.465
 129252140.982 6 100715988.11343  24595880.086                    24595893.578
 117264959.686 7  91375416.60045  22314792.734                    22314801.348
 108646067.884 8  84659394.64046  20674636.734                    20674641.820
 11  8 14  1 14 30.0000000  0  9G25G12G10G05G17G04G09G30G02
 121222869.625 7  94459441.245 6  23067948.813                    23067959.277
 109852207.601 8  85599163.380 7  20904172.734                    20904179.488
 110749617.143 8  86298502.01746  21074926.953                    21074934.297
 111015661.083 8  86505801.259 7  21125557.484                    21125565.180
 125130745.461 6  97504559.105 6  23811585.633                    23811594.992
 118559692.248 7  92384310.77744  22561146.805                    22561155.348
 129335437.325 6 100780894.17142  24611730.617                    24611744.902
 117194696.101 7  91320665.76045  22301422.633                    22301431.086
 108660363.271 8  84670533.91046  20677357.180                    20677362.402
 11  8 14  1 15  0.0000000  0  9G25G12G10G05G17G04G09G30G02
 121138569.362 7  94393752.775 6  23051906.977                    23051917.633
 109822435.441 8  85575964.318 7  20898507.297                    20898514.383
 110784553.433 8  86325725.11546  21081575.117                    21081582.477
 110947334.845 8  86452560.089 7  21112555.563                    21112562.770
 125194300.373 6  97554082.412 6  23823680.047                    23823689.250
 118641607.108 7  92448140.54544  22576735.383                    22576743.602
 129418705.811 6 100845778.52243  24627576.633                    24627589.766
 117124900.991 7  91266279.96045  22288140.742                    22288149.477
 108674884.169 8  84681848.90146  20680120.531                    20680125.879
 11  8 14  1 15 30.0000000  0  9G25G12G10G05G17G04G09G30G02
 121054603.783 7  94328325.090 6  23035928.867                    23035939.016
 109793208.809 8  85553190.347 7  20892946.000                    20892952.441
 110820088.722 8  86353414.97546  21088337.023                    21088344.359
 110879463.313 8  86399673.219 7  21099639.914                    21099647.711
 125258036.423 6  97603746.846 6  23835808.641                    23835817.516
 118723564.026 7  92512003.11145  22592330.711                    22592339.543
 129501943.658 6 100910638.95343  24643416.609                    24643429.801
 117055577.072 7  91212261.34345  22274948.727                    22274957.230
 108689630.160 8  84693339.28446  20682926.336                    20682931.570
 11  8 14  1 16  0.0000000  0  9G25G12G10G05G17G04G09G30G02
 120970975.085 7  94263159.912 7  23020015.070                    23020024.859
 109764528.789 8  85530842.313 7  20887488.039                    20887495.000
 110856221.087 8  86381570.08146  21095212.750                    21095220.676
 110812047.907 8  86347141.779 7  21086811.078                    21086818.699
 125321953.617 6  97653552.454 6  23847971.031                    23847980.582
 118805561.323 7  92575897.13444  22607934.156                    22607942.523
 129585147.443 7 100975472.91943  24659250.164                    24659263.477
 116986726.378 7  91158611.46545  22261847.250                    22261855.355
 108704599.363 8  84705003.60246  20685774.758                    20685779.938
 11  8 14  1 16 30.0000000  0  9G25G12G10G05G17G04G09G30G02
 120887685.890 7  94198259.281 7  23004165.422                    23004175.500
 109736397.037 8  85508921.492 7  20882135.148                    20882141.840
 110892949.282 8  86410189.47446  21102201.938                    21102209.551
 110745091.203 8  86294967.771 7  21074069.797                    21074077.105
 125386052.490 6  97703499.619 6  23860169.047                    23860178.652
 118887597.505 7  92639821.44544  22623545.609                    22623553.484
 129668314.238 7 101040277.98543  24675075.992                    24675090.512
 116918351.345 7  91105332.25945  22248835.656                    22248843.973
 108719790.743 8  84716841.04046  20688665.781                    20688670.867
 11  8 14  1 17  0.0000000  0  9G25G12G10G05G17G04G09G30G02
 120804739.128 7  94133625.478 7  22988381.039                    22988391.875
 109708814.887 8  85487428.932 7  20876886.273                    20876893.152
 110930272.154 8  86439272.24846  21109304.586                    21109311.594
 110678595.546 8  86243153.016 7  21061415.773                    21061423.434
 125450332.825 6  97753588.155 6  23872402.094                    23872410.379
 118969671.491 7  92703775.21244  22639163.086                    22639171.566
 129751441.383 7 101105052.19643  24690894.648                    24690908.648
 116850454.661 7  91052425.79545  22235915.555                    22235923.645
 108735203.518 8  84728850.99546  20691598.695                    20691603.508
 11  8 14  1 17 30.0000000  0  9G25G12G10G05G17G04G09G30G02
 120722137.153 7  94069260.337 7  22972662.500                    22972673.395
 109681783.223 8  85466365.324 7  20871742.016                    20871749.020
 110968188.069 8  86468817.13646  21116519.414                    21116526.848
 110612562.822 8  86191698.982 7  21048850.398                    21048857.656
 125514795.018 6  97803818.436 6  23884668.563                    23884677.648
 119051781.672 7  92767757.17444  22654788.633                    22654797.105
 129834525.656 7 101169792.94344  24706704.898                    24706719.402
 116783038.336 7  90999893.64045  22223086.711                    22223094.785
 108750836.333 8  84741032.41146  20694573.711                    20694578.762
 11  8 14  1 18  0.0000000  0  9G25G12G10G05G17G04G09G30G02
 120639882.508 7  94005165.838 7  22957010.109                    22957020.949
 109655303.370 8  85445731.694 7  20866703.328                    20866710.195
 111006695.329 8  86498822.81246  21123847.086                    21123854.309
 110546995.357 8  86140607.498 7  21036373.203                    21036381.098
 125579439.011 6  97854190.376 6  23896969.539                    23896978.605
 119133926.698 7  92831766.28444  22670420.461                    22670428.305
 129917564.068 6 101234497.98343  24722507.398                    24722521.762
 116716104.717 7  90947737.63045  22210349.453                    22210357.543
 108766687.767 8  84753384.18146  20697589.711                    20697594.699
 11  8 14  1 18 30.0000000  0  9G25G12G10G05G17G04G09G30G02
 120557977.883 7  93941344.095 7  22941424.227                    22941434.730
 109629376.733 8  85425529.139 7  20861769.508                    20861776.293
 111045792.562 8  86529288.20046  21131286.938                    21131294.188
 110481895.104 8  86089880.071 7  21023984.992                    21023992.629
 125644265.412 6  97904704.446 6  23909306.195                    23909314.730
 119216105.083 7  92895801.38244  22686058.047                    22686066.105
 130000553.348 6 101299164.71643  24738299.609                    24738314.461
 116649656.163 7  90895959.60145  22197705.133                    22197713.016
 108782756.424 8  84765905.21446  20700647.758                    20700653.113
 11  8 14  1 19  0.0000000  0  9G25G12G10G05G17G04G09G30G02
 120476426.048 7  93877797.227 7  22925905.047                    22925915.625
 109604004.770 8  85405758.786 7  20856941.461                    20856948.254
 111085478.574 8  86560212.38946  21138838.789                    21138846.578
 110417264.786 8  86039518.827 7  21011685.898                    21011693.422
 125709274.238 7  97955360.662 6  23921676.539                    23921685.492
 119298315.589 7  92959861.51844  22701702.445                    22701710.332
 130083490.754 6 101363791.05143  24754082.633                    24754096.977
 116583695.205 7  90844561.50945  22185152.633                    22185160.973
 108799041.814 8  84778595.12746  20703746.719                    20703752.164
 11  8 14  1 19 30.0000000  0  9G25G12G10G05G17G04G09G30G02
 120395229.509 7  93814527.224 7  22910453.711                    22910464.625
 109579188.478 8  85386421.428 7  20852219.039                    20852225.617
 111125751.508 8  86591593.90645  21146502.359                    21146510.016
 110353106.451 8  85989525.362 7  20999477.047                    20999484.746
 125774465.820 7  98006159.288 6  23934082.711                    23934090.594
 119380557.188 7  93023945.86844  22717352.305                    22717360.766
 130166373.140 6 101428374.50443  24769854.859                    24769869.086
 116518224.099 7  90793545.13745  22172693.813                    22172702.414
 108815542.552 8  84791452.84946  20706886.695                    20706891.934
 11  8 14  1 20  0.0000000  0  9G25G12G10G05G17G04G09G30G02
 120314390.674 7  93751535.951 7  22895070.445                    22895081.051
 109554928.836 8  85367517.829 7  20847602.563                    20847609.379
 111166609.652 8  86623431.43546  21154277.836                    21154285.125
 110289421.686 8  85939900.912 7  20987358.445                    20987366.023
 125839840.213 7  98057100.359 6  23946522.797                    23946531.563
 119462828.046 7  93088052.99044  22733008.297                    22733016.395
 130249197.610 6 101492912.80743  24785615.141                    24785630.125
 116453244.780 7  90742911.97245  22160328.570                    22160336.836
 108832257.177 8  84804477.23146  20710067.461                    20710072.680
 11  8 14  1 20 30.0000000  0  9G25G12G10G05G17G04G09G30G02
 120233912.364 7  93688825.596 7  22879755.781                    22879766.336
 109531227.250 8  85349049.070 7  20843092.352                    20843099.238
 111208052.031 8  86655724.22046  21162163.664                    21162171.098
 110226213.170 8  85890647.569 7  20975330.180                    20975337.648
 125905397.759 7  98108184.170 6  23958997.984                    23959006.293
 119545127.103 7  93152182.10944  22748669.148                    22748676.996
 130331961.115 6 101557403.60343  24801366.008                    24801379.773
 116388759.953 7  90692664.12145  22148057.422                    22148066.141
 108849184.954 8  84817667.71346  20713288.609                    20713293.902
 11  8 14  1 21  0.0000000  0  9G25G12G10G05G17G04G09G30G02
 120153797.092 7  93626398.136 6  22864510.820                    22864521.152
 109508084.824 8  85331016.011 7  20838688.430                    20838695.328
 111250076.532 8  86688470.59446  21170161.008                    21170168.520
 110163482.737 8  85841766.755 7  20963392.820                    20963400.246
 125971138.507 6  98159410.716 6  23971508.711                    23971516.773
 119627453.021 7  93216332.14644  22764334.766                    22764343.707
 130414660.751 6 101621844.62943  24817102.383                    24817117.168
 116324771.612 7  90642803.13445  22135880.945                    22135889.273
 108866324.546 8  84831023.25346  20716550.000                    20716555.047
 11  8 14  1 21 30.0000000  0  9G25G12G10G05G17G04G09G30G02
 120074047.403 7  93564255.529 6  22849334.750                    22849345.441
 109485502.559 8  85313419.448 7  20834391.188                    20834398.230
 111292681.608 8  86721669.36946  21178268.078                    21178275.750
 110101232.603 8  85793260.193 7  20951547.102                    20951554.652
 126037062.719 7  98210780.202 6  23984053.336                    23984061.313
 119709804.414 7  93280502.02444  22780006.313                    22780014.152
 130497293.471 6 101686233.50143  24832827.766                    24832841.578
 116261282.124 7  90593330.86845  22123799.414                    22123807.324
 108883674.605 8  84844542.79646  20719851.391                    20719857.078
 11  8 14  1 22  0.0000000  0  9G25G12G10G05G17G04G09G30G02
 119994665.742 7  93502399.718 7  22834229.063                    22834239.465
 109463481.446 8  85296260.145 7  20830200.727                    20830207.555
 111335865.538 8  86755319.19445  21186486.070                    21186493.359
 110039464.384 8  85745129.155 7  20939793.164                    20939800.859
 126103170.289 6  98262292.603 6  23996632.594                    23996641.250
 119792179.884 7  93344690.67844  22795681.820                    22795689.695
 130579856.507 6 101750568.08343  24848538.742                    24848553.359
 116198293.487 7  90544248.87845  22111812.891                    22111820.988
 108901234.044 8  84858225.48446  20723193.320                    20723198.250
 11  8 14  1 22 30.0000000  0  9G25G12G10G05G17G04G09G30G02
 119915655.990 7  93440833.700 6  22819193.336                    22819204.359
 109442023.864 8  85279539.953 7  20826117.359                    20826124.539
 111379627.685 8  86789419.57446  21194813.445                    21194820.832
 109978181.600 8  85697376.380 7  20928131.141                    20928138.621
 126169462.829 6  98313949.120 6  24009248.469                    24009256.625
 119874579.484 7  93408898.12344  22811361.688                    22811370.441
 130662347.935 6 101814846.87943  24864236.398                    24864251.152
 116135809.254 7  90495559.92545  22099922.461                    22099930.734
 108919003.208 8  84872071.59846  20726574.570                    20726579.621
 11  8 14  1 23  0.0000000  0  8G25G12G10G05G17G04G30G02
 119837020.289 7  93379559.163 6  22804229.961                    22804240.383
 109421130.689 8  85263259.549 7  20822141.617                    20822148.598
 111423966.276 8  86823969.13645  21203250.805                    21203258.461
 109917385.721 8  85650003.007 7  20916562.047                    20916569.406
 126235940.350 6  98365749.801 6  24021897.734                    24021906.988
 119957001.419 7  93473122.97044  22827046.625                    22827054.934
 116073831.238 7  90447265.42845  22088128.391                    22088136.191
 108936980.483 8  84886079.86846  20729995.523                    20730000.977
 11  8 14  1 23 30.0000000  0  8G25G12G10G05G17G04G30G02
 119758760.320 7  93318577.395 7  22789337.656                    22789348.043
 109400801.770 8  85247418.824 7  20818273.203                    20818279.605
 111468878.725 7  86858965.85946  21211797.563                    21211804.641
 109857078.043 8  85603010.052 7  20905085.703                    20905093.617
 126302601.418 6  98417693.476 6  24034582.844                    24034591.910
 120039443.603 7  93537363.59144  22842734.430                    22842742.582
 116012360.637 7  90399366.30645  22076430.766                    22076438.762
 108955163.575 8  84900248.52646  20733455.523                    20733460.879
 11  8 14  1 24  0.0000000  0  8G25G12G10G05G17G04G30G02
 119680878.046 8  93257889.946 6  22774517.383                    22774527.273
 109381037.792 8  85232018.322 7  20814512.180                    20814519.047
 111514362.599 7  86894407.86146  21220452.828                    21220460.277
 109797259.877 8  85556398.526 7  20893702.977                    20893710.355
 126369446.309 6  98469780.394 6  24047303.523                    24047311.500
 120121904.313 7  93601618.65444  22858426.422                    22858434.930
 115951399.256 7  90351863.97445  22064830.328                    22064838.535
 108973550.887 8  84914576.31646  20736954.711                    20736959.723
 11  8 14  1 24 30.0000000  0  8G25G12G10G05G17G04G30G02
 119603376.397 8  93197499.094 7  22759769.133                    22759779.742
 109361840.019 8  85217059.018 7  20810858.938                    20810865.723
 111560416.581 8  86930294.08046  21229216.383                    21229223.945
 109737934.000 8  85510170.606 7  20882413.328                    20882420.684
 126436474.997 6  98522010.546 6  24060058.297                    24060066.582
 120204382.630 7  93665887.43644  22874121.352                    22874130.086
 115890949.483 7  90304760.29945  22053326.930                    22053335.047
 108992141.672 8  84929062.66846  20740492.508                    20740497.734
 11  8 14  1 25  0.0000000  0  8G25G12G10G05G17G04G30G02
 119526257.715 8  93137406.676 7  22745093.906                    22745104.656
 109343209.012 8  85202541.344 7  20807313.828                    20807320.637
 111607038.662 8  86966622.99346  21238088.539                    21238096.117
 109679101.738 8  85464327.327 7  20871218.086                    20871225.613
 126503687.596 6  98574383.948 6  24072848.117                    24072857.297
 120286877.096 7  93730168.82544  22889820.063                    22889827.922
 115831013.249 7  90258056.77845  22041921.297                    22041929.516
 109010934.152 8  84943706.17846  20744068.211                    20744073.508
 11  8 14  1 25 30.0000000  0  8G25G12G10G05G17G04G30G02
 119449525.086 8  93077615.081 7  22730492.000                    22730502.449
 109325146.385 8  85188466.569 7  20803876.555                    20803883.793
 111654227.722 8  87003393.70145  21247068.273                    21247075.602
 109620765.452 8  85418870.516 7  20860117.305                    20860124.621
 126571084.924 6  98626901.328 6  24085673.852                    24085682.031
 120369387.101 7  93794462.31344  22905520.531                    22905529.328
 115771593.240 7  90211755.50545  22030614.398                    22030622.488
 109029928.741 8  84958507.17046  20747682.797                    20747687.820
 11  8 14  1 26  0.0000000  0  8G25G12G10G05G17G04G30G02
 119373180.576 8  93018125.927 7  22715964.297                    22715974.711
 109307652.780 8  85174835.187 7  20800547.594                    20800554.504
 111701981.192 8  87040604.22045  21256155.344                    21256162.793
 109562926.776 8  85373801.451 7  20849110.563                    20849117.715
 126638666.670 6  98679562.416 6  24098533.539                    24098542.816
 120451911.193 7  93858766.77444  22921224.461                    22921232.750
 115712691.118 7  90165857.79845  22019405.430                    22019413.285
 109049123.549 8  84973464.17846  20751335.383                    20751340.570
 11  8 14  1 26 30.0000000  0  8G25G12G10G05G17G04G30G02
 119297226.474 8  92958940.982 7  22701510.266                    22701521.023
 109290728.826 8  85161647.695 7  20797327.023                    20797333.805
 111750297.188 8  87078253.06746  21265349.852                    21265357.113
 109505587.670 8  85329121.670 7  20838199.508                    20838206.828
 126706432.869 6  98732367.283 6  24111430.039                    24111438.117
 120534447.612 7  93923080.84944  22936930.695                    22936938.953
 115654308.739 7  90120365.06545  22008295.602                    22008303.711
 109068516.930 8  84988575.91946  20755025.711                    20755031.199
 11  8 14  1 27  0.0000000  0  8G25G12G10G05G17G04G30G02
 119221665.877 7  92900062.674 7  22687131.539                    22687142.250
 109274375.693 8  85148904.997 7  20794215.102                    20794221.633
 111799174.446 8  87116339.26046  21274650.484                    21274658.121
 109448750.483 8  85284832.987 7  20827383.531                    20827390.441
 126774383.568 6  98785315.822 6  24124360.461                    24124369.301
 120616995.888 7  93987404.15644  22952639.070                    22952647.773
 115596448.812 7  90075279.43945  21997285.117                    21997293.090
 109088108.417 8  85003842.02946  20758754.109                    20758759.086
 11  8 14  1 27 30.0000000  0  8G25G12G10G05G17G04G30G02
 119146501.138 8  92841492.825 7  22672828.320                    22672838.973
 109258594.387 8  85136607.878 7  20791211.930                    20791218.297
 111848610.946 8  87154861.23345  21284057.820                    21284065.711
 109392416.943 8  85240936.761 7  20816663.422                    20816671.148
 126842519.237 6  98838408.565 6  24137326.289                    24137334.594
 120699554.805 7  94051735.76844  22968349.641                    22968357.871
 115539113.242 7  90030602.41345  21986374.695                    21986382.625
 109107897.145 8  85019261.82746  20762519.773                    20762524.836
 11  8 14  1 28  0.0000000  0  8G25G12G10G05G17G04G30G02
 119071734.366 8  92783233.088 7  22658600.555                    22658611.074
 109243385.418 8  85124756.743 7  20788317.625                    20788324.484
 111898604.331 8  87193817.14145  21293571.219                    21293579.008
 109336587.977 8  85197433.708 7  20806039.844                    20806046.887
 126910839.605 6  98891645.227 6  24150327.727                    24150335.672
 120782122.830 7  94116074.44044  22984061.891                    22984071.035
 115482303.647 7  89986335.22445  21975563.563                    21975571.707
 109127881.226 8  85034833.85546  20766322.469                    20766327.707
 11  8 14  1 28 30.0000000  0  8G25G12G10G05G17G04G30G02
 118997368.240 8  92725285.527 7  22644449.430                    22644459.406
 109228749.795 8  85113352.372 7  20785533.000                    20785539.531
 111949153.074 8  87233205.79145  21303190.484                    21303197.855
 109281266.046 8  85154325.758 7  20795512.250                    20795519.488
 126979344.904 6  98945025.966 6  24163363.188                    24163371.254
 120864698.831 7  94180419.36544  22999775.961                    22999784.434
 115426022.238 8  89942479.62045  21964853.773                    21964862.184
 109148059.758 8  85050557.40246  20770162.266                    20770167.844
 11  8 14  1 29  0.0000000  0  8G25G12G10G05G17G04G30G02
 118923405.491 8  92667652.285 7  22630374.398                    22630384.664
 109214688.236 8  85102395.319 7  20782856.914                    20782863.590
 112000255.504 8  87273025.88845  21312915.016                    21312921.902
 109226453.264 8  85111614.538 7  20785081.539                    20785088.941
 127048035.309 6  98998550.953 6  24176434.516                    24176443.594
 120947282.135 7  94244769.97544  23015490.555                    23015499.406
 115370271.264 7  89899037.33545  21954244.938                    21954253.184
 109168432.101 8  85066431.96646  20774039.125                    20774043.965
 11  8 14  1 29 30.0000000  0  8G25G12G10G05G17G04G30G02
 118849848.532 7  92610335.245 7  22616376.766                    22616386.918
 109201201.522 8  85091886.209 7  20780290.828                    20780297.363
 112051909.391 8  87313275.69745  21322744.203                    21322751.621
 109172151.334 8  85069301.386 7  20774748.352                    20774755.902
 127116910.663 6  99052220.069 6  24189541.586                    24189549.645
 121029871.415 7  94309125.25444  23031206.844                    23031215.426
 115315052.608 7  89856009.84445  21943737.102                    21943745.234
 109188997.074 8  85082456.64246  20777952.523                    20777957.758
 11  8 14  1 30  0.0000000  0  8G25G12G10G05G17G04G30G02
 118776699.246 8  92553335.865 7  22602457.086                    22602467.383
 109188289.943 8  85081825.250 7  20777833.547                    20777840.281
 112104112.282 8  87353953.29445  21332677.938                    21332685.297
 109118361.471 8  85027387.249 7  20764512.266                    20764520.000
 127185971.030 6  99106033.324 6  24202682.766                    24202691.809
 121112465.175 7  94373483.98644  23046924.336                    23046932.523
 115260367.793 7  89813398.33845  21933330.617                    21933339.156
 109209752.895 8  85098630.02346  20781902.039                    20781907.016
 11  8 14  1 30 30.0000000  0  8G25G12G10G05G17G04G30G02
 118703960.611 8  92496656.459 7  22588615.289                    22588625.531
 109175954.575 8  85072213.292 7  20775486.031                    20775493.273
 112156862.595 8  87395057.45045  21342716.461                    21342723.809
 109065085.770 8  84985873.760 7  20754374.383                    20754381.859
 127255216.602 6  99159990.919 6  24215860.000                    24215868.652
 121195062.668 7  94437845.68444  23062641.961                    23062650.449
 115206219.218 8  89771204.67045  21923026.969                    21923034.742
 109230699.209 8  85114951.84146  20785888.039                    20785893.145
 11  8 14  1 31  0.0000000  0  8G25G12G10G05G17G04G30G02
 118631634.766 8  92440298.702 7  22574852.203                    22574862.492
 109164196.310 8  85063051.025 7  20773248.617                    20773255.277
 112210158.025 8  87436586.37545  21352858.078                    21352865.266
 109012325.861 8  84944762.181 8  20744334.484                    20744341.570
 127324647.353 6  99214092.789 6  24229071.914                    24229080.930
 121277662.624 7  94502209.25444  23078360.359                    23078368.371
 115152608.466 7  89729430.10545  21912824.875                    21912833.160
 109251834.533 8  85131420.93846  20789910.211                    20789915.043
 11  8 14  1 31 30.0000000  0  8G25G12G10G05G17G04G30G02
 118559724.197 7  92384264.540 7  22561167.945                    22561178.141
 109153015.169 8  85054338.472 7  20771120.594                    20771127.586
 112263996.523 8  87478538.46745  21363103.336                    21363110.332
 108960083.607 8  84904053.973 7  20734393.172                    20734400.813
 127394263.092 6  99268338.796 6  24242319.938                    24242328.641
 121360263.867 7  94566573.83144  23094078.750                    23094087.055
 115099537.602 8  89688076.21545  21902726.367                    21902734.172
 109273157.912 8  85148036.56246  20793967.813                    20793973.004
 11  8 14  1 32  0.0000000  0  8G25G12G10G05G17G04G30G02
 118488231.214 7  92328555.758 7  22547563.328                    22547573.508
 109142411.907 8  85046076.218 7  20769102.898                    20769110.012
 112318375.822 8  87520911.95745  21373450.953                    21373458.445
 108908360.276 8  84863750.117 7  20724550.297                    20724557.953
 127464063.768 6  99322728.910 6  24255602.234                    24255610.500
 121442865.437 7  94630938.67844  23109797.352                    23109805.699
 115047008.295 8  89647144.33345  21892729.969                    21892737.754
 109294667.745 8  85164797.48146  20798061.078                    20798066.090
 11  8 14  1 32 30.0000000  0  9G25G12G10G05G17G04G29G30G02
 118417158.425 7  92273174.410 7  22534038.469                    22534048.500
 109132387.363 8  85038264.904 7  20767195.133                    20767202.473
 112373294.600 7  87563705.82445  21383901.922                    21383909.234
 108857157.867 8  84823852.178 8  20714806.695                    20714814.410
 127534049.895 6  99377263.544 6  24268919.867                    24268928.445
 121525466.432 7  94695303.07244  23125515.766                    23125524.199
 129544655.20216 100943984.65815  24651547.430
 114995022.636 8  89606636.08045  21882837.102                    21882845.383
 109316363.815 8  85181703.52246  20802189.367                    20802194.922
 11  8 14  1 33  0.0000000  0  9G25G12G10G05G17G04G29G30G02
 118346507.947 7  92218122.120 7  22520594.555                    22520604.406
 109122941.975 8  85030904.886 7  20765398.016                    20765404.852
 112428750.003 8  87606917.83945  21394454.641                    21394461.906
 108806477.843 8  84784361.278 8  20705162.883                    20705169.859
 127604220.999 7  99431942.324 6  24282273.141                    24282281.973
 121608065.206 7  94759665.73244  23141234.219                    23141241.836
 129464903.034 6 100881840.195 5  24636370.094                    24636381.789
 114943582.137 8  89566552.61845  21873048.266                    21873056.836
 109338244.464 8  85198753.39646  20806353.266                    20806358.289
 11  8 14  1 33 30.0000000  0  9G25G12G10G05G17G04G29G30G02
 118276282.346 7  92163400.916 7  22507230.164                    22507240.340
 109114076.266 8  85023996.564 7  20763710.945                    20763717.516
 112484740.280 8  87650546.63045  21405109.367                    21405116.566
 108756321.701 8  84745278.608 8  20695618.531                    20695625.660
 127674577.348 6  99486765.424 6  24295661.234                    24295670.430
 121690661.120 7  94824026.17144  23156951.141                    23156959.758
 129385076.553 6 100819637.825 5  24621179.727                    24621190.234
 114892688.881 8  89526895.58445  21863363.992                    21863372.254
 109360308.817 8  85215946.41646  20810552.094                    20810557.285
 11  8 14  1 34  0.0000000  0  9G25G12G10G05G17G04G29G30G02
 118206483.749 7  92109012.434 7  22493948.102                    22493958.246
 109105790.599 8  85017540.217 7  20762134.188                    20762140.859
 112541262.981 7  87694590.30445  21415865.359                    21415872.516
 108706690.833 8  84706605.237 7  20686173.648                    20686180.531
 127745118.852 6  99541732.855 6  24309085.500                    24309093.832
 121773252.881 7  94888383.35744  23172668.477                    23172676.684
 129305176.041 6 100757377.791 5  24605974.992                    24605985.488
 114842344.394 8  89487666.16545  21853783.383                    21853791.484
 109382555.374 8  85233281.40546  20814785.453                    20814790.246
 11  8 14  1 34 30.0000000  0  9G25G12G10G05G17G04G29G30G02
 118137115.100 7  92054958.984 7  22480747.641                    22480758.148
 109098086.356 8  85011536.934 7  20760668.188                    20760674.801
 112598316.587 7  87739047.65845  21426722.102                    21426729.324
 108657587.521 8  84668342.945 7  20676829.703                    20676837.164
 127815845.750 6  99596844.701 6  24322544.469                    24322552.680
 121855840.055 7  94952736.96444  23188383.813                    23188392.664
 129225202.290 6 100695060.703 6  24590756.383                    24590767.672
 114792551.026 8  89448866.18745  21844308.336                    21844315.668
 109404983.942 8  85250758.22646  20819053.195                    20819058.672
 11  8 14  1 35  0.0000000  0  9G25G12G10G05G17G04G29G30G02
 118068178.224 7  92001241.995 7  22467629.695                    22467639.773
 109090963.024 8  85005986.309 7  20759312.484                    20759319.605
 112655898.373 7  87783916.59745  21437679.648                    21437687.086
 108609012.743 8  84630492.506 7  20667586.250                    20667593.449
 127886757.718 6  99652100.785 6  24336037.695                    24336047.016
 121938421.117 7  95017085.83144  23204098.664                    23204106.945
 129145155.610 6 100632686.744 6  24575524.367                    24575534.160
 114743309.911 8  89410496.54345  21834938.055                    21834945.938
 109427592.797 8  85268375.52646  20823355.453                    20823360.875
 11  8 14  1 35 30.0000000  0  9G25G12G10G05G17G04G29G30G02
 117999675.507 7  91947863.306 7  22454593.961                    22454603.957
 109084421.063 8  85000888.692 7  20758067.836                    20758074.598
 112714006.272 8  87829195.49145  21448736.750                    21448744.898
 108560968.225 8  84593055.259 7  20658443.664                    20658450.984
 127957854.679 6  99707500.993 6  24349567.813                    24349576.293
 122020994.947 7  95081429.05344  23219811.602                    23219820.059
 129065036.768 6 100570256.589 6  24560278.398                    24560288.449
 114694622.972 8  89372558.72045  21825673.039                    21825681.176
 109450381.040 8  85286132.60346  20827692.461                    20827697.496
 11  8 14  1 36  0.0000000  0  9G25G12G10G05G17G04G29G30G02
 117931609.470 7  91894824.886 7  22441641.398                    22441651.660
 109078461.377 8  84996244.792 7  20756933.664                    20756940.672
 112772638.240 7  87874882.74445  21459894.336                    21459901.781
 108513455.579 8  84556032.443 8  20649402.375                    20649409.441
 128029136.657 6  99763045.383 6  24363132.258                    24363139.984
 122103560.914 7  95145766.13144  23235523.359                    23235531.883
 128984846.205 6 100507770.544 6  24545017.844                    24545028.328
 114646492.022 8  89335054.12645  21816514.133                    21816521.965
 109473347.454 8  85304028.52146  20832062.445                    20832067.641
 11  8 14  1 36 30.0000000  0  9G25G12G10G05G17G04G29G30G02
 117863982.296 7  91842128.434 7  22428772.203                    22428782.227
 109073084.194 8  84992054.796 7  20755910.359                    20755917.105
 112831791.903 7  87920976.50745  21471150.609                    21471158.309
 108466476.129 8  84519425.114 8  20640462.320                    20640469.625
 128100603.495 6  99818733.828 5  24376732.297                    24376739.668
 122186117.883 7  95210096.22444  23251233.883                    23251242.277
 128904584.755 6 100445229.247 6  24529744.422                    24529754.820
 114598918.599 8  89297983.97845  21807460.789                    21807469.215
 109496491.283 8  85322062.66846  20836466.664                    20836471.547
 11  8 14  1 37  0.0000000  0  9G25G12G10G05G17G04G29G30G02
 117796796.314 7  91789775.775 7  22415987.711                    22415997.355
 109068289.601 8  84988318.754 7  20754997.961                    20755004.707
 112891464.980 7  87967475.01245  21482506.734                    21482513.766
 108420031.252 8  84483234.340 8  20631624.242                    20631631.617
 128172255.340 6  99874566.448 5  24390367.445                    24390374.801
 122268664.860 7  95274418.51844  23266941.727                    23266950.164
 128824252.658 6 100382632.910 6  24514457.875                    24514468.262
 114551904.419 8  89261349.59245  21798514.609                    21798522.172
 109519811.497 8  85340234.26246  20840903.836                    20840909.441
 11  8 14  1 37 30.0000000  0  9G25G12G10G05G17G04G29G30G02
 117730053.510 7  91737768.461 7  22403286.289                    22403297.105
 109064077.910 8  84985036.919 7  20754196.227                    20754203.234
 112951654.745 8  88014376.13745  21493959.883                    21493967.285
 108374122.187 8  84447461.070 8  20622887.930                    20622894.941
 128244091.838 6  99930542.962 5  24404035.867                    24404044.664
 122351200.682 7  95338732.11844  23282647.664                    23282656.281
 128743850.480 6 100319981.924 6  24499158.820                    24499168.469
 114505450.885 8  89225152.05545  21789674.680                    21789682.355
 109543306.691 8  85358542.20546  20845375.328                    20845380.188
 11  8 14  1 38  0.0000000  0  9G25G12G10G05G17G04G29G30G02
 117663756.327 7  91686108.378 7  22390670.344                    22390681.066
 109060449.540 8  84982209.623 7  20753505.898                    20753512.598
 113012359.331 7  88061678.41745  21505512.172                    21505519.301
 108328750.669 8  84412106.668 8  20614253.828                    20614261.223
 128316113.052 6  99986663.389 5  24417742.094                    24417749.742
 122433724.385 6  95403036.28643  23298351.297                    23298360.090
 128663378.981 6 100257276.955 6  24483845.211                    24483855.113
 114459559.716 8  89189392.74045  21780941.867                    21780949.773
 109566975.820 8  85376985.68446  20849879.055                    20849884.398
 11  8 14  1 38 30.0000000  0  9G25G12G10G05G17G04G29G30G02
 117597907.202 7  91634797.425 7  22378139.430                    22378150.320
 109057405.122 8  84979837.347 7  20752926.914                    20752933.676
 113073576.602 7  88109380.19345  21517161.359                    21517168.219
 108283918.168 8  84377172.281 8  20605722.484                    20605729.750
 128388318.824 6 100042927.635 5  24431481.922                    24431490.090
 122516235.261 6  95467330.43443  23314053.547                    23314061.195
 128582838.873 6 100194518.511 6  24468519.008                    24468529.074
 114414232.700 8  89154073.00045  21772316.297                    21772324.289
 109590818.247 8  85395564.20246  20854416.563                    20854421.102
 11  8 14  1 39  0.0000000  0  9G25G12G10G05G17G04G29G30G02
 117532508.165 7  91583837.203 7  22365694.758                    22365704.949
 109054944.832 8  84977920.243 7  20752458.484                    20752465.215
 113135303.765 7  88157479.28245  21528907.289                    21528914.852
 108239625.860 8  84342658.826 8  20597293.867                    20597301.359
 128460709.219 6 100099335.721 5  24445256.797                    24445265.805
 122598732.178 7  95531613.71344  23329751.531                    23329760.422
 128502230.502 7 100131706.896 6  24453179.406                    24453189.184
 114369471.233 8  89119193.95445  21763798.641                    21763806.113
 109614832.718 8  85414276.77246  20858986.242                    20858991.348
 11  8 14  1 39 30.0000000  0  9G25G12G10G05G17G04G29G30G02
 117467561.451 7  91533229.424 7  22353335.492                    22353345.859
 109053068.357 8  84976458.053 7  20752101.328                    20752108.098
 113197538.550 7  88205973.93145  21540750.180                    21540757.750
 108195874.638 8  84308566.994 8  20588968.406                    20588975.770
 128533284.049 6 100155887.567 6  24459068.313                    24459076.566
 122681214.254 6  95595885.41744  23345447.391                    23345455.809
 128421554.464 7 100068842.542 6  24437826.586                    24437837.438
 114325276.770 8  89084756.71045  21755388.570                    21755396.477
 109639018.040 8  85433122.46446  20863588.625                    20863593.527
 11  8 14  1 40  0.0000000  0  9G25G12G10G05G17G04G29G30G02
 117403069.345 7  91482975.899 7  22341063.430                    22341073.211
 109051776.302 8  84975451.254 7  20751855.555                    20751862.363
 113260278.848 7  88254862.47645  21552689.367                    21552696.871
 108152666.441 8  84274898.301 8  20580746.211                    20580753.688
 128606043.221 6 100212583.037 5  24472913.258                    24472921.730
 122763680.321 7  95660144.66744  23361140.344                    23361148.727
 128340811.499 7 100005926.026 6  24422462.242                    24422471.871
 114281651.031 8  89050762.61545  21747087.078                    21747094.391
 109663373.328 8  85452100.61046  20868223.125                    20868228.402
 11  8 14  1 40 30.0000000  0  9G25G12G10G05G17G04G29G30G02
 117339033.998 7  91433078.273 7  22328877.539                    22328887.629
 109051068.750 8  84974899.910 7  20751721.063                    20751727.945
 113323522.235 7  88304143.04545  21564724.211                    21564731.492
 108110002.276 8  84241653.531 8  20572627.266                    20572634.660
 128678986.534 6 100269421.969 6  24486794.898                    24486803.449
 122846129.770 6  95724390.95444  23376829.516                    23376837.906
 128260002.323 7  99942957.927 6  24407084.961                    24407094.148
 114238595.318 8  89017212.69645  21738893.570                    21738901.266
 109687897.749 8  85471210.55046  20872889.945                    20872895.223
 11  8 14  1 41  0.0000000  0  9G25G12G10G05G17G04G29G30G02
 117275457.703 7  91383538.354 7  22316779.742                    22316789.523
 109050946.070 8  84974804.307 7  20751697.766                    20751704.270
 113387266.600 7  88353813.98745  21576854.242                    21576861.508
 108067883.639 8  84208833.847 8  20564612.727                    20564619.973
 128752113.952 7 100326404.407 6  24500710.320                    24500718.496
 122928561.660 7  95788623.57243  23392516.109                    23392524.348
 128179127.579 7  99879938.748 6  24391694.961                    24391704.387
 114196111.276 8  88984108.23045  21730809.000                    21730816.969
 109712590.176 8  85490451.40246  20877588.766                    20877593.523
 11  8 14  1 41 30.0000000  0  9G25G12G10G05G17G04G29G30G02
 117212343.643 7  91334358.612 7  22304769.117                    22304779.008
 109051409.116 8  84975165.124 7  20751785.875                    20751792.789
 113451510.473 7  88403874.15845  21589079.156                    21589086.516
 108026312.772 8  84176440.993 8  20556701.922                    20556708.988
 128825426.265 7 100383530.900 5  24514661.133                    24514669.246
 123010976.229 7  95852842.69144  23408199.492                    23408207.395
 128098189.035 7  99816869.836 6  24376292.086                    24376302.367
 114154201.433 8  88951451.17545  21722833.813                    21722841.867
 109737450.640 8  85509823.19346  20882319.625                    20882324.203
 11  8 14  1 42  0.0000000  0  8G25G12G10G05G04G29G30G02
 117149693.003 7  91285539.962 7  22292847.328                    22292856.867
 109052457.191 8  84975981.809 7  20751984.930                    20751991.730
 113516250.384 8  88454320.83945  21601399.273                    21601406.164
 107985289.765 8  84144475.049 8  20548895.391                    20548902.664
 123093371.464 7  95917046.72544  23423877.984                    23423886.488
 128017186.254 7  99753750.907 6  24360878.023                    24360887.977
 114112866.167 7  88919241.83945  21714968.281                    21714975.754
 109762477.112 8  85529324.35446  20887081.977                    20887087.094
 11  8 14  1 42 30.0000000  0  8G25G12G10G05G04G29G30G02
 117087507.296 8  91237083.600 7  22281013.805                    22281023.621
 109054089.625 7  84977253.833 7  20752295.891                    20752302.707
 113581483.010 7  88505151.46645  21613812.297                    21613819.414
 107944815.706 8  84112936.848 8  20541193.781                    20541200.574
 123175746.069 6  95981234.69944  23439554.102                    23439562.031
 127936119.368 6  99690582.017 6  24345451.141                    24345461.648
 114072106.319 7  88887480.87645  21707211.633                    21707219.461
 109787668.044 8  85548953.66146  20891875.664                    20891880.766
 11  8 14  1 43  0.0000000  0  8G25G12G10G05G04G29G30G02
 117025789.358 7  91188991.720 7  22269269.063                    22269278.785
 109056307.457 8  84978982.010 7  20752717.898                    20752724.391
 113647206.824 7  88556364.83645  21626318.875                    21626326.563
 107904891.944 8  84081827.462 8  20533596.406                    20533603.590
 123258099.560 6  96045406.21944  23455225.250                    23455233.789
 127854989.711 6  99627364.201 6  24330012.703                    24330023.254
 114031923.948 7  88856169.88645  21699565.586                    21699573.371
 109813023.185 8  85568710.92246  20896700.469                    20896705.816
 11  8 14  1 43 30.0000000  0  8G25G12G10G05G04G29G30G02
 116964540.796 7  91141265.582 7  22257613.742                    22257623.668
 109059109.878 8  84981165.723 7  20753251.133                    20753257.766
 113713419.248 8  88607958.93945  21638919.305                    21638926.586
 107865518.917 8  84051147.217 8  20526103.789                    20526110.516
 123340430.817 6  96109560.43444  23470892.602                    23470900.777
 127773797.636 6  99564097.730 6  24314562.680                    24314572.734
 113992319.838 8  88825309.50545  21692029.406                    21692037.012
 109838540.661 8  85588594.68846  20901556.781                    20901561.750
 11  8 14  1 44  0.0000000  0  8G25G12G10G05G04G29G30G02
 116903763.976 8  91093907.019 7  22246048.367                    22246058.309
 109062497.166 8  84983805.175 7  20753896.133                    20753902.492
 113780117.839 7  88659931.88345  21651611.508                    21651618.492
 107826698.318 8  84020897.431 8  20518716.422                    20518723.391
 123422739.289 6  96173696.85343  23486554.680                    23486563.832
 127692543.829 6  99500783.159 5  24299099.820                    24299110.359
 113953295.698 8  88794901.05545  21684603.383                    21684611.027
 109864220.079 8  85608604.63846  20906442.875                    20906448.152
 11  8 14  1 44 30.0000000  0  8G25G12G10G05G04G29G30G02
 116843461.189 8  91046917.825 7  22234573.234                    22234582.988
 109066469.693 8  84986900.660 7  20754651.516                    20754658.555
 113847300.155 7  88712281.74945  21664395.750                    21664402.691
 107788431.538 8  83991079.195 8  20511434.570                    20511441.633
 123505024.154 7  96237814.89443  23502213.984                    23502221.902
 127611229.383 6  99437421.333 5  24283626.789                    24283636.500
 113914852.979 8  88764945.68545  21677287.984                    21677295.703
 109890060.744 8  85628740.24646  20911360.539                    20911365.621
 11  8 14  1 45  0.0000000  0  8G25G12G10G05G04G29G30G02
 116783634.533 8  91000299.640 7  22223188.508                    22223198.500
 109071027.219 8  84990451.985 7  20755518.781                    20755525.594
 113914963.743 7  88765006.63145  21677271.711                    21677278.801
 107750719.644 8  83961693.331 8  20504258.305                    20504265.359
 123587284.426 7  96301913.77444  23517867.461                    23517875.418
 127529855.075 6  99374012.841 6  24268140.914                    24268151.363
 113876993.035 8  88735444.42245  21670083.148                    21670091.387
 109916061.629 8  85649000.68846  20916307.891                    20916313.320
 11  8 14  1 45 30.0000000  0  8G25G12G10G05G04G29G30G02
 116724285.567 8  90954053.672 7  22211894.578                    22211904.895
 109076169.603 8  84994459.044 7  20756497.508                    20756504.086
 113983105.696 7  88818104.27045  21690238.102                    21690245.871
 107713562.901 8  83932740.059 8  20497187.320                    20497194.488
 123669519.197 6  96365992.79143  23533515.797                    23533524.332
 127448421.179 6  99310557.935 6  24252645.141                    24252654.895
 113839716.543 8  88706397.81345  21662989.680                    21662998.402
 109942220.990 8  85669384.62846  20921286.117                    20921291.195
 11  8 14  1 46  0.0000000  0  8G25G12G10G05G04G29G30G02
 116665416.902 8  90908181.967 7  22200692.375                    22200702.250
 109081896.724 8  84998921.739 7  20757587.383                    20757594.234
 114051723.908 7  88871573.01845  21703296.328                    21703303.332
 107676963.076 8  83904220.750 8  20490222.719                    20490229.578
 123751727.992 6  96430051.59043  23549159.789                    23549168.301
 127366928.700 6  99247057.392 6  24237136.477                    24237147.469
 113803025.330 8  88677807.27945  21656007.523                    21656015.230
 109968538.669 8  85689891.93046  20926294.078                    20926299.125
 11  8 14  1 46 30.0000000  0  8G25G12G10G05G04G29G30G02
 116607030.177 8  90862685.788 7  22189581.641                    22189591.789
 109088208.397 8  85003839.936 7  20758788.156                    20758795.234
 114120815.604 7  88925410.70645  21716443.695                    21716451.145
 107640921.078 8  83876136.105 8  20483363.680                    20483370.871
 123833909.687 6  96494089.26843  23564798.234                    23564806.875
 127285378.335 6  99183511.715 6  24221618.609                    24221628.621
 113766920.362 7  88649673.57545  21649137.344                    21649145.109
 109995013.453 8  85710521.65746  20931332.070                    20931337.367
 11  8 14  1 47  0.0000000  0  8G25G12G10G05G04G29G30G02
 116549127.653 8  90817566.914 7  22178563.484                    22178573.527
 109095104.328 8  85009213.391 7  20760100.641                    20760107.375
 114190378.394 7  88979615.49145  21729681.000                    21729688.473
 107605437.887 8  83848486.899 8  20476611.914                    20476618.930
 123916063.743 6  96558105.41044  23580431.711                    23580440.758
 127203770.757 6  99119921.430 6  24206089.094                    24206099.082
 113731402.864 8  88621997.63945  21642378.289                    21642386.363
 110021644.399 8  85731273.07146  20936399.758                    20936404.289
 11  8 14  1 47 30.0000000  0  8G25G12G10G05G04G29G30G02
 116491710.840 7  90772826.525 7  22167637.133                    22167647.508
 109102584.090 8  85015041.787 7  20761524.070                    20761530.680
 114260409.104 7  89034184.87745  21743008.031                    21743014.973
 107570514.182 8  83821273.651 8  20469965.914                    20469973.234
 123998188.813 6  96622098.94844  23596059.563                    23596068.484
 127122106.634 6  99056287.104 6  24190549.227                    24190559.109
 113696473.609 8  88594780.08746  21635732.055                    21635739.074
 110048430.091 8  85752145.05846  20941496.977                    20941502.113
 11  8 14  1 48  0.0000000  0  8G25G12G10G05G04G29G30G02
 116434782.653 8  90728466.902 7  22156804.070                    22156814.258
 109110648.319 8  85021325.605 7  20763058.500                    20763065.090
 114330906.381 7  89089117.83345  21756423.227                    21756430.438
 107536151.382 8  83794497.474 8  20463426.859                    20463433.684
 124080284.929 6  96686069.97844  23611682.164                    23611691.035
 127040387.560 6  98992609.956 6  24174999.156                    24175008.664
 113662134.580 8  88568022.46545  21629197.133                    21629204.805
 110075370.647 8  85773137.72146  20946623.492                    20946628.453
 11  8 14  1 48 30.0000000  0  8G25G12G10G05G04G29G30G02
 116378344.359 8  90684489.008 7  22146064.484                    22146074.250
 109119296.161 8  85028064.189 7  20764704.430                    20764711.121
 114401866.745 7  89144411.62745  21769926.555                    21769933.652
 107502349.949 8  83768158.725 8  20456994.563                    20457001.945
 124162350.870 7  96750017.44444  23627298.570                    23627307.430
 126958613.629 7  98928890.056 6  24159437.484                    24159447.652
 113628386.203 8  88541725.09246  21622774.789                    21622782.313
 110102464.285 8  85794249.67846  20951779.266                    20951784.398
 11  8 14  1 49  0.0000000  0  8G25G12G10G05G04G29G30G02
 116322398.428 8  90640894.788 7  22135418.391                    22135428.016
 109128528.164 8  85035257.966 7  20766460.852                    20766467.824
 114473287.960 7  89200064.52845  21783517.406                    21783524.148
 107469111.221 8  83742258.452 8  20450669.781                    20450676.625
 124244386.158 7  96813941.03844  23642909.680                    23642918.281
 126876786.039 6  98865128.355 6  24143865.977                    24143876.129
 113595230.161 8  88515889.28245  21616465.297                    21616472.848
 110129710.756 8  85815480.71946  20956964.023                    20956969.164
 11  8 14  1 49 30.0000000  0  8G25G12G10G05G04G29G30G02
 116266945.814 8  90597684.982 7  22124866.016                    22124876.055
 109138342.815 8  85042905.759 7  20768328.992                    20768335.699
 114545166.593 7  89256073.85245  21797195.078                    21797202.559
 107436435.361 8  83716796.772 8  20444451.578                    20444458.539
 124326389.437 7  96877839.70544  23658514.625                    23658522.957
 126794904.678 7  98801324.734 6  24128284.984                    24128294.703
 113562666.424 8  88490514.99845  21610268.602                    21610276.363
 110157107.852 8  85836829.13746  20962177.164                    20962182.563
 11  8 14  1 50  0.0000000  0  8G25G12G10G05G04G29G30G02
 116211989.099 8  90554861.613 7  22114408.000                    22114417.965
 109148740.064 8  85051007.515 7  20770307.188                    20770313.773
 114617500.927 7  89312438.27045  21810960.242                    21810967.426
 107404323.642 8  83691774.683 8  20438341.125                    20438348.109
 124408360.486 7  96941713.23443  23674112.578                    23674121.813
 126712971.108 7  98737480.448 6  24112693.063                    24112703.121
 113530696.720 8  88465603.59145  21604184.922                    21604192.680
 110184655.537 8  85858294.89946  20967419.719                    20967424.652
 11  8 14  1 50 30.0000000  0  8G25G12G10G05G04G29G30G02
 116157530.421 8  90512426.329 7  22104044.867                    22104054.883
 109159720.104 8  85059563.397 7  20772396.523                    20772403.297
 114690288.352 8  89369155.74745  21824810.555                    21824818.086
 107372777.035 8  83667192.937 8  20432337.797                    20432344.352
 124490298.544 7  97005561.07244  23689704.898                    23689713.938
 126630986.234 6  98673596.172 6  24097092.344                    24097101.547
 113499322.403 7  88441156.12945  21598214.516                    21598222.301
 110212353.166 8  85879877.49446  20972690.406                    20972695.281
 11  8 14  1 51  0.0000000  0  8G25G12G10G05G04G29G30G02
 116103571.331 8  90470380.351 7  22093776.594                    22093786.625
 109171282.222 8  85068572.837 7  20774596.891                    20774603.516
 114763526.234 7  89426224.22445  21838747.570                    21838755.266
 107341795.945 8  83643051.860 8  20426442.250                    20426449.336
 124572202.848 7  97069382.63144  23705291.141                    23705299.707
 126548950.819 7  98609672.512 6  24081481.391                    24081490.801
 113468544.014 7  88417173.02145  21592357.672                    21592365.910
 110240199.331 8  85901575.83446  20977989.180                    20977994.152
 11  8 14  1 51 30.0000000  0  8G25G12G10G05G04G29G30G02
 116050113.665 8  90428725.077 7  22083604.023                    22083614.012
 109183426.121 8  85078035.620 7  20776907.680                    20776914.520
 114837211.798 7  89483641.53945  21852769.813                    21852777.121
 107311381.339 8  83619352.198 8  20420654.477                    20420661.434
 124654072.626 7  97133177.25843  23720869.891                    23720878.762
 126466865.384 7  98545709.898 6  24065860.734                    24065870.652
 113438362.471 7  88393654.99245  21586613.953                    21586622.113
 110268193.147 8  85923389.21246  20983316.172                    20983321.578
 11  8 14  1 52  0.0000000  0  8G25G12G10G05G04G29G30G02
 115997159.708 8  90387462.313 7  22073527.359                    22073537.098
 109196151.505 8  85087951.501 7  20779329.344                    20779336.207
 114911342.439 7  89541405.66645  21866875.992                    21866883.305
 107281534.295 8  83596094.794 8  20414974.641                    20414981.809
 124735907.533 6  97196944.74943  23736442.617                    23736451.148
 126384731.396 7  98481709.445 6  24050231.250                    24050240.332
 113408779.178 7  88370603.11345  21580984.273                    21580992.344
 110296334.327 8  85945317.43146  20988671.383                    20988676.605
 11  8 14  1 52 30.0000000  0  8G25G12G10G05G04G29G30G02
 115944710.432 8  90346592.810 7  22063546.500                    22063556.840
 109209457.289 8  85098319.647 7  20781861.164                    20781868.102
 114985914.731 7  89599513.94245  21881066.719                    21881073.711
 107252254.812 8  83573279.642 8  20409403.063                    20409410.109
 124817706.301 7  97260684.03743  23752008.680                    23752017.426
 126302549.026 6  98417671.270 6  24034592.805                    24034601.355
 113379794.164 7  88348017.41845  21575468.508                    21575476.398
 110324620.938 8  85967358.96446  20994053.938                    20994059.254
 11  8 14  1 53  0.0000000  0  8G25G12G10G05G04G29G30G02
 115892768.512 8  90306118.641 7  22053661.938                    22053671.895
 109223343.718 8  85109140.246 7  20784503.875                    20784510.609
 115060926.682 7  89657964.80345  21895341.195                    21895348.355
 107223544.385 8  83550907.920 8  20403939.367                    20403946.727
 124899468.713 7  97324395.06143  23767567.875                    23767576.430
 126220319.792 6  98353596.570 6  24018944.656                    24018954.137
 113351409.147 7  88325899.25745  21570067.648                    21570074.973
 110353053.090 8  85989513.91346  20999464.602                    20999469.664
 11  8 14  1 53 30.0000000  0  8G25G12G10G05G04G29G30G02
 115841335.707 8  90266041.194 7  22043874.516                    22043884.758
 109237810.723 8  85120413.244 7  20787256.953                    20787263.379
 115136375.851 8  89716756.37045  21909698.992                    21909705.789
 107195403.414 8  83528979.932 8  20398584.648                    20398591.766
 124981194.258 7  97388077.29943  23783119.648                    23783128.313
 126138044.721 6  98289486.175 6  24003287.680                    24003297.805
 113323625.045 7  88304249.33345  21564780.164                    21564788.105
 110381630.047 8  86011781.69246  21004902.539                    21004907.461
 11  8 14  1 54  0.0000000  0  8G25G12G10G05G04G29G30G02
 115790413.545 8  90226361.641 7  22034184.578                    22034194.285
 109252857.178 8  85132137.759 7  20790119.938                    20790126.441
 115212259.296 7  89775886.32445  21924138.797                    21924146.375
 107167832.359 8  83507496.020 8  20393337.469                    20393344.688
 125062881.983 7  97451730.08643  23798664.156                    23798672.738
 126055724.265 6  98225340.421 6  23987622.469                    23987631.883
 113296442.382 8  88283068.05745  21559607.344                    21559615.477
 110410350.394 8  86034161.19746  21010367.797                    21010372.746
 11  8 14  1 54 30.0000000  0  8G25G12G10G05G04G29G30G02
 115740003.591 8  90187081.203 7  22024592.070                    22024601.289
 109268482.162 8  85144313.078 7  20793093.461                    20793099.934
 115288574.196 7  89835352.46745  21938660.719                    21938668.234
 107140831.811 8  83486456.669 8  20388199.688                    20388206.926
 125144531.269 7  97515352.91843  23814201.508                    23814210.574
 125973359.447 6  98161160.090 6  23971948.648                    23971958.922
 113269861.761 8  88262355.91445  21554549.188                    21554557.004
 110439213.204 8  86056651.70946  21015860.172                    21015865.035
 11  8 14  1 55  0.0000000  0  8G25G12G10G05G04G29G30G02
 115690107.843 8  90148201.454 7  22015096.672                    22015106.906
 109284685.117 8  85156938.764 7  20796176.375                    20796183.398
 115365318.024 8  89895152.83745  21953264.750                    21953271.730
 107114402.601 8  83465862.512 8  20383170.461                    20383177.723
 125226141.428 7  97578945.28543  23829731.766                    23829740.066
 125890951.118 6  98096945.869 6  23956267.406                    23956276.703
 113243884.251 8  88242113.71045  21549606.055                    21549614.305
 110468217.649 8  86079252.59346  21021379.875                    21021384.285
 11  8 14  1 55 30.0000000  0  8G25G12G10G05G04G29G30G02
 115640727.906 8  90109723.615 7  22005700.055                    22005709.621
 109301465.839 8  85170014.657 7  20799369.914                    20799376.438
 115442488.232 7  89955285.45645  21967949.852                    21967957.184
 107088544.937 8  83445713.713 8  20378249.813                    20378256.910
 125307711.975 7  97642506.75143  23845253.117                    23845262.402
 125808500.357 6  98032698.579 6  23940577.641                    23940587.055
 113218510.496 8  88222341.96745  21544777.406                    21544785.234
 110497363.054 8  86101963.31446  21026925.461                    21026930.734
 11  8 14  1 56  0.0000000  0  8G25G12G10G05G04G29G30G02
 115591865.290 8  90071648.893 7  21996401.984                    21996411.773
 109318823.287 8  85183539.950 7  20802672.977                    20802679.750
 115520081.720 7  90015747.90445  21982715.070                    21982722.383
 107063259.403 8  83426010.732 8  20373438.203                    20373445.090
 125389241.978 6  97706036.63643  23860768.086                    23860776.906
 125726008.095 6  97968418.964 6  23924879.758                    23924889.285
 113193740.869 8  88203040.98145  21540063.641                    21540071.441
 110526648.142 8  86124782.88446  21032498.414                    21032503.461
 11  8 14  1 56 30.0000000  0  8G25G12G10G05G04G29G30G02
 115543521.798 8  90033978.686 7  21987202.461                    21987212.270
 109336757.316 8  85197514.528 7  20806085.609                    20806092.461
 115598095.872 7  90076538.13645  21997560.953                    21997568.273
 107038546.673 8  83406754.093 8  20368735.859                    20368742.480
 125470730.924 6  97769534.48043  23876275.234                    23876283.770
 125643475.108 6  97904107.612 6  23909174.344                    23909183.484
 113169576.301 8  88184211.46145  21535465.547                    21535473.289
 110556072.403 8  86147710.88146  21038097.664                    21038102.684
 11  8 14  1 57  0.0000000  0  8G25G12G10G05G04G29G30G02
 115495699.083 8  89996714.270 7  21978101.844                    21978112.031
 109355267.238 8  85211937.857 7  20809607.484                    20809614.730
 115676527.436 8  90137653.63245  22012486.313                    22012493.309
 107014407.051 8  83387944.030 8  20364141.664                    20364148.645
 125552178.048 6  97832999.77243  23891773.563                    23891782.043
 125560902.258 7  97839765.236 6  23893461.031                    23893470.500
 113146017.436 8  88165853.91745  21530982.758                    21530990.094
 110585634.768 8  86170746.50446  21043723.477                    21043728.328
 11  8 14  1 57 30.0000000  0  8G25G12G10G05G04G29G30G02
 115448398.725 8  89959856.896 7  21969100.836                    21969110.699
 109374351.765 8  85226808.917 7  20813239.773                    20813246.555
 115755373.750 7  90199092.29945  22027489.945                    22027497.156
 106990840.985 8  83369580.893 8  20359657.492                    20359664.402
 125633582.924 6  97896432.15443  23907264.992                    23907273.367
 125478290.638 7  97775392.654 6  23877740.859                    23877749.566
 113123064.865 8  88147968.80645  21526614.391                    21526622.098
 110615334.345 8  86193889.04046  21049374.828                    21049379.898
 11  8 14  1 58  0.0000000  0  8G25G12G10G05G04G29G30G02
 115401622.352 8  89923407.818 7  21960199.859                    21960209.273
 109394010.237 8  85242127.221 7  20816980.320                    20816987.414
 115834632.320 7  90260852.20845  22042572.641                    22042579.641
 106967848.951 8  83351665.052 8  20355282.188                    20355289.199
 125714944.922 6  97959831.13943  23922747.656                    23922755.992
 125395641.495 7  97710990.814 6  23862012.688                    23862021.992
 113100719.191 8  88130556.60945  21522362.469                    21522370.000
 110645170.406 8  86217137.92646  21055052.133                    21055057.758
 11  8 14  1 58 30.0000000  0  8G25G12G10G05G04G29G30G02
 115355372.121 8  89887368.717 7  21951398.563                    21951408.426
 109414242.288 8  85257892.467 7  20820830.492                    20820836.977
 115914300.788 7  90322931.52745  22057732.367                    22057739.961
 106945431.899 8  83334197.249 8  20351016.367                    20351023.184
 125796263.944 6  98023196.61943  23938222.000                    23938230.977
 125312955.829 7  97646560.557 6  23846277.953                    23846287.406
 113078981.459 8  88113618.13445  21518225.875                    21518234.039
 110675142.793 8  86240493.04446  21060755.766                    21060761.184
 11  8 14  1 59  0.0000000  0  8G25G12G10G05G04G29G30G02
 115309649.143 8  89851740.460 7  21942697.641                    21942707.492
 109435047.263 8  85274104.141 7  20824789.406                    20824796.008
 115994375.837 7  90385327.65945  22072970.695                    22072977.602
 106923589.687 8  83317177.366 8  20346859.594                    20346866.750
 125877539.063 7  98086527.84243  23953688.227                    23953696.727
 125230234.230 7  97582102.274 6  23830536.969                    23830545.891
 113057851.872 8  88097153.53645  21514205.172                    21514212.859
 110705250.129 8  86263953.32046  21066485.336                    21066490.262
 11  8 14  1 59 30.0000000  0  8G25G12G10G05G04G29G30G02
 115264454.934 8  89816524.230 7  21934097.563                    21934107.301
 109456423.647 8  85290761.077 7  20828857.273                    20828863.988
 116074855.115 7  90448038.77945  22088285.281                    22088292.961
 106902322.512 8  83300605.562 8  20342812.859                    20342819.617
 125958769.660 7  98149824.38043  23969145.992                    23969154.234
 125147477.807 6  97517616.876 6  23814788.852                    23814797.398
 113037330.863 8  88081163.15845  21510300.320                    21510307.563
 110735491.391 8  86287517.94646  21072239.906                    21072244.742
 11  8 14  2  0  0.0000000  0  8G25G12G10G05G04G29G30G02
 115219791.596 8  89781721.666 7  21925598.500                    21925608.254
 109478371.374 8  85307863.208 7  20833033.789                    20833040.500
 116155736.042 7  90511062.87245  22103676.797                    22103683.707
 106881631.590 8  83284482.791 8  20338875.539                    20338882.414
 126039955.574 6  98213086.13043  23984595.023                    23984603.727
 125064688.099 6  97453105.549 6  23799034.203                    23799043.434
 113017419.540 8  88065647.85845  21506510.688                    21506518.691
 110765866.738 8  86311187.05646  21078020.016                    21078025.012
 11  8 14  2  0 30.0000000  0  8G25G12G10G05G04G29G30G02
 115175660.364 8  89747333.725 7  21917200.563                    21917210.402
 109500889.494 8  85325409.797 7  20837318.500                    20837325.813
 116237015.524 7  90574397.52445  22119143.383                    22119150.828
 106861516.673 8  83268808.856 8  20335047.930                    20335054.656
 126121096.121 7  98276312.49643  24000035.383                    24000043.957
 124981866.012 6  97388568.990 6  23783273.797                    23783282.410
 112998117.964 8  88050607.67945  21502838.352                    21502845.695
 110796374.919 8  86334959.67546  21083825.594                    21083830.477
 11  8 14  2  1  0.0000000  0  8G25G12G10G05G04G29G30G02
 115132062.582 8  89713361.458 7  21908904.367                    21908913.938
 109523976.815 8  85343399.930 7  20841711.945                    20841719.023
 116318690.710 7  90638040.53245  22134685.555                    22134692.840
 106841978.086 8  83253584.003 8  20331329.742                    20331336.352
 126202190.485 6  98339502.90243  24015467.547                    24015475.715
 124899012.356 7  97324007.837 6  23767506.961                    23767516.215
 112979426.485 8  88036042.91045  21499281.031                    21499289.070
 110827014.720 8  86358834.85346  21089656.203                    21089660.949
 11  8 14  2  1 30.0000000  0  8G25G12G10G05G04G29G30G02
 115089000.234 8  89679806.401 7  21900709.492                    21900719.844
 109547632.937 8  85361833.275 7  20846213.758                    20846220.813
 116400759.238 7  90701990.02845  22150302.688                    22150310.324
 106823016.519 8  83238808.785 8  20327721.305                    20327728.195
 126283238.817 6  98402657.44243  24030889.727                    24030898.730
 124816128.061 7  97259422.792 6  23751734.109                    23751743.652
 112961346.015 8  88021954.24045  21495840.703                    21495848.363
 110857786.257 8  86382812.68846  21095511.945                    21095516.922
 11  8 14  2  2  0.0000000  0  8G25G12G10G05G04G29G30G02
 115046473.743 8  89646668.903 7  21892617.000                    21892626.902
 109571856.090 8  85380708.461 7  20850823.055                    20850830.121
 116483216.989 7  90766242.82045  22165994.188                    22166001.305
 106804631.187 8  83224482.576 8  20324222.781                    20324229.695
 126364239.430 6  98465774.80943  24046304.359                    24046312.309
 124733214.034 7  97194814.565 6  23735956.773                    23735965.301
 112943875.843 8  88008341.12746  21492516.141                    21492524.059
 110888687.291 8  86406891.41746  21101392.422                    21101397.012
 11  8 14  2  2 30.0000000  0  8G25G12G10G05G04G29G30G02
 115004484.945 8  89613950.391 7  21884626.703                    21884636.332
 109596645.296 8  85400024.726 7  20855540.531                    20855547.340
 116566061.933 7  90830797.31545  22181758.867                    22181766.273
 106786822.538 8  83210605.730 8  20320833.789                    20320840.480
 126445192.441 6  98528855.09243  24061709.063                    24061716.965
 124650271.556 7  97130184.165 6  23720172.805                    23720181.535
 112927016.815 8  87995204.22946  21489307.813                    21489315.598
 110919717.661 8  86431070.94246  21107296.852                    21107301.648
 11  8 14  2  3  0.0000000  0  8G25G12G10G05G04G29G30G02
 114963035.297 8  89581651.989 7  21876739.344                    21876748.980
 109621999.762 8  85419781.453 7  20860365.211                    20860372.348
 116649291.185 7  90895651.26245  22197597.109                    22197604.273
 106769590.878 8  83197178.490 8  20317554.727                    20317561.363
 126526097.019 6  98591897.64443  24077104.719                    24077113.023
 124567301.628 7  97065532.360 6  23704383.680                    23704392.777
 112910769.241 8  87982543.78346  21486216.172                    21486223.926
 110950876.509 8  86455350.57246  21113226.328                    21113231.180
 11  8 14  2  3 30.0000000  0  8G25G12G10G05G04G29G30G02
 114922126.612 8  89549775.114 7  21868954.703                    21868964.660
 109647918.926 8  85439978.211 7  20865297.750                    20865304.531
 116732902.148 7  90960802.67145  22213507.289                    22213515.168
 106752936.769 8  83184201.287 8  20314385.289                    20314392.297
 126606953.422 6  98654902.66043  24092490.867                    24092499.340
 124484305.742 7  97000860.306 6  23688590.680                    23688598.980
 112895133.872 8  87970360.38146  21483240.984                    21483248.598
 110982163.913 8  86479730.37546  21119180.094                    21119185.016
 11  8 14  2  4  0.0000000  0  8G25G12G10G05G04G29G30G02
 114881760.285 8  89518320.857 7  21861272.922                    21861282.754
 109674401.529 8  85460614.005 7  20870337.086                    20870343.730
 116816892.011 7  91026249.31745  22229490.250                    22229497.734
 106736860.344 8  83171674.236 8  20311326.273                    20311333.238
 126687761.102 7  98717869.71043  24107867.625                    24107876.570
 124401284.929 7  96936168.840 6  23672792.164                    23672800.605
 112880110.920 7  87958654.18946  21480382.430                    21480389.590
 111013579.037 8  86504209.71146  21125158.188                    21125163.086
 11  8 14  2  4 30.0000000  0  8G25G12G10G05G04G29G30G02
 114841937.278 8  89487289.964 7  21853695.047                    21853704.586
 109701446.528 8  85481688.029 7  20875483.453                    20875490.348
 116901257.482 7  91091988.65145  22245544.773                    22245551.707
 106721361.337 8  83159597.113 8  20308376.859                    20308383.852
 126768519.030 6  98780798.00343  24123236.539                    24123243.703
 124318239.783 7  96871458.390 6  23656989.602                    23656998.215
 112865700.329 8  87947425.15846  21477639.758                    21477647.539
 111045120.411 8  86528787.41446  21131160.469                    21131165.426
 11  8 14  2  5  0.0000000  0  8G25G12G10G05G04G29G30G02
 114802659.164 8  89456683.656 7  21846220.422                    21846229.930
 109729052.823 8  85503199.436 7  20880736.906                    20880743.582
 116985996.260 7  91158018.87345  22261669.719                    22261676.910
 106706440.017 8  83147970.137 8  20305537.313                    20305544.457
 126849227.040 6  98843687.41043  24138594.172                    24138602.398
 124235172.181 7  96806730.440 6  23641181.859                    23641190.813
 112851902.460 8  87936673.56846  21475014.445                    21475021.953
 111076787.828 8  86553463.33346  21137186.219                    21137191.699
 11  8 14  2  5 30.0000000  0  8G25G12G10G05G04G29G30G02
 114763927.248 8  89426502.977 7  21838849.953                    21838860.094
 109757219.141 8  85525147.219 7  20886096.703                    20886103.758
 117071105.460 7  91224337.72745  22277865.672                    22277872.613
 106692096.370 8  83136793.305 8  20302808.086                    20302814.578
 126929884.647 6  98906537.54443  24153942.727                    24153951.594
 124152082.799 7  96741985.519 6  23625370.578                    23625378.945
 112838717.600 8  87926399.65746  21472505.227                    21472513.086
 111108580.345 8  86578236.73446  21143236.289                    21143241.316
 11  8 14  2  6  0.0000000  0  8G25G12G10G05G04G29G30G02
 114725742.599 8  89396748.728 7  21831583.930                    21831593.578
 109785944.280 8  85547530.440 7  20891562.914                    20891570.191
 117156581.984 7  91290942.81045  22294130.859                    22294138.363
 106678330.425 8  83126066.634 8  20300188.023                    20300195.230
 127010491.428 6  98969348.02743  24169281.523                    24169289.832
 124068972.697 7  96677224.447 6  23609555.141                    23609563.844
 112826145.640 8  87916603.32046  21470112.914                    21470120.379
 111140497.179 8  86603107.01646  21149309.867                    21149314.648
 11  8 14  2  6 30.0000000  0  8G25G12G10G05G04G29G30G02
 114688106.601 8  89367421.998 7  21824422.008                    21824431.684
 109815227.118 7  85570348.249 7  20897135.352                    20897142.668
 117242422.889 7  91357831.82744  22310466.391                    22310473.359
 106665142.259 8  83115790.167 8  20297678.391                    20297685.383
 127091046.815 6  99032118.46643  24184610.594                    24184619.004
 123985843.260 7  96612448.312 6  23593736.289                    23593744.695
 112814186.819 8  87907284.76746  21467837.000                    21467844.754
 111172537.613 7  86628073.60246  21155407.094                    21155412.082
 11  8 14  2  7  0.0000000  0  8G25G12G10G05G04G29G30G02
 114651020.682 8  89338523.901 7  21817364.813                    21817374.160
 109845066.670 8  85593599.847 7  20902813.703                    20902820.500
 117328625.462 7  91425002.67144  22326870.055                    22326877.410
 106652531.608 8  83105963.719 8  20295278.836                    20295285.805
 127171550.613 6  99094848.73143  24199929.438                    24199938.809
 123902695.760 7  96547658.109 6  23577913.641                    23577922.430
 112802841.477 7  87898444.24646  21465678.555                    21465686.164
 111204701.216 8  86653136.16646  21161527.602                    21161532.094
 11  8 14  2  7 30.0000000  0  8G25G12G10G05G04G29G30G02
 114614486.043 8  89310055.374 7  21810412.391                    21810421.879
 109875462.062 8  85617284.577 7  20908597.539                    20908604.563
 117415186.873 7  91492453.10544  22343342.438                    22343349.492
 106640498.839 8  83096587.575 8  20292989.094                    20292996.023
 127252002.328 6  99157538.38643  24215238.711                    24215247.965
 123819531.206 7  96482854.623 6  23562087.734                    23562096.832
 112792109.601 8  87890081.76446  21463636.156                    21463643.852
 111236987.434 8  86678294.27846  21167671.266                    21167676.105
 11  8 14  2  8  0.0000000  0  8G25G12G10G05G04G29G30G02
 114578503.962 8  89282017.413 7  21803565.102                    21803574.820
 109906411.563 8  85641401.073 7  20914487.125                    20914494.102
 117502104.365 7  91560181.01445  22359881.703                    22359888.922
 106629043.900 8  83087661.683 8  20290809.102                    20290816.215
 127332401.706 6  99220187.28043  24230538.977                    24230547.289
 123736351.052 7  96418038.985 6  23546259.258                    23546267.750
 112781991.421 8  87882197.48446  21461710.742                    21461718.309
 111269395.415 8  86703547.26146  21173838.406                    21173843.383
 11  8 14  2  8 30.0000000  0  8G25G12G10G05G04G29G30G02
 114543075.249 8  89254410.644 7  21796822.984                    21796832.707
 109937913.794 8  85665948.265 7  20920481.813                    20920488.582
 117589374.898 7  91628184.02344  22376488.813                    22376496.414
 106618166.316 8  83079185.672 8  20288739.352                    20288746.387
 127412748.013 6  99282794.80243  24245828.945                    24245837.043
 123653156.060 7  96353211.780 6  23530427.641                    23530436.488
 112772486.503 8  87874791.07446  21459901.828                    21459909.555
 111301924.098 8  86728894.31746  21180028.500                    21180033.613
 11  8 14  2  9  0.0000000  0  8G25G12G10G05G04G29G30G02
 114508201.062 8  89227235.984 7  21790186.703                    21790196.656
 109969967.775 8  85690925.400 7  20926581.352                    20926588.621
 117676995.311 7  91696459.64944  22393162.695                    22393169.934
 106607865.890 8  83071159.401 8  20286779.086                    20286786.066
 127493040.604 6  99345360.46243  24261107.672                    24261115.879
 123569947.411 7  96288373.918 6  23514593.234                    23514602.293
 112763594.883 8  87867862.57146  21458210.008                    21458217.266
 111334572.756 8  86754334.85546  21186241.352                    21186245.773
 11  8 14  2  9 30.0000000  0  8G25G12G10G05G04G29G30G02
 114473882.972 8  89200494.640 7  21783656.258                    21783665.922
 110002572.211 8  85716331.455 7  20932785.625                    20932792.820
 117764963.188 7  91765006.02544  22409902.445                    22409909.289
 106598143.019 8  83063583.175 8  20284928.930                    20284935.664
 127573279.864 6  99407884.56743  24276376.359                    24276384.691
 123486726.666 7  96223526.651 6  23498757.078                    23498765.703
 112755316.803 7  87861412.14246  21456634.641                    21456641.961
 111367341.405 8  86779868.88846  21192477.336                    21192482.125
 11  8 14  2 10  0.0000000  0  8G25G12G10G05G04G29G30G02
 114440121.936 8  89174187.366 7  21777231.789                    21777240.988
 110035725.646 8  85742165.310 7  20939094.859                    20939101.746
 117853275.587 7  91833820.87344  22426707.398                    22426715.066
 106588997.411 8  83056456.756 8  20283188.336                    20283195.441
 127653465.006 6  99470366.51743  24291635.039                    24291643.273
 123403495.054 7  96158670.919 6  23482918.016                    23482927.891
 112747652.273 7  87855439.81846  21455175.813                    21455183.547
 111400229.079 8  86805495.66946  21198735.141                    21198740.293
 11  8 14  2 10 30.0000000  0  9G25G12G10G05G26G04G29G30G02
 114406918.847 8  89148314.858 7  21770913.492                    21770922.953
 110069426.483 8  85768425.701 7  20945507.789                    20945514.652
 117941929.499 7  91902901.81944  22443577.883                    22443585.371
 106580428.317 8  83049779.567 8  20281557.953                    20281564.695
 130435185.03316 101637881.66652  24820999.086                    24821009.125
 127733595.556 6  99532805.89443  24306883.984                    24306892.598
 123320253.631 7  96093807.536 6  23467078.023                    23467087.199
 112740600.846 7  87849945.22546  21453834.039                    21453841.949
 111433234.838 8  86831214.46946  21205015.867                    21205020.758
 11  8 14  2 11  0.0000000  0  9G25G12G10G05G26G04G29G30G02
 114374275.130 8  89122878.220 7  21764701.500                    21764710.980
 110103673.723 8  85795111.860 7  20952024.680                    20952031.598
 118030922.456 7  91972246.95345  22460512.719                    22460520.102
 106572436.165 8  83043551.951 8  20280036.953                    20280044.004
 130341985.260 6 101565258.56043  24803264.789                    24803274.141
 127813671.511 6  99595202.77243  24322121.867                    24322130.242
 123237003.935 7  96028937.699 6  23451236.344                    23451244.840
 112734162.746 8  87844928.55546  21452609.055                    21452616.207
 111466358.554 8  86857025.17646  21211318.969                    21211324.207
 11  8 14  2 11 30.0000000  0  9G25G12G10G05G26G04G29G30G02
 114342191.664 8  89097878.142 7  21758596.211                    21758606.148
 110138465.783 8  85822222.566 7  20958645.609                    20958652.293
 118120251.072 7  92041853.64545  22477511.375                    22477519.016
 106565020.626 8  83037773.635 8  20278625.883                    20278633.004
 130248657.374 6 101492535.63242  24785503.914                    24785514.297
 127893692.393 7  99657556.71043  24337349.578                    24337358.129
 123153747.113 7  95964062.313 6  23435393.031                    23435401.758
 112728337.829 7  87840389.69345  21451500.523                    21451508.250
 111499599.309 8  86882927.09346  21217644.500                    21217649.617
 11  8 14  2 12  0.0000000  0  9G25G12G10G05G26G04G29G30G02
 114310669.314 8  89073315.295 7  21752597.703                    21752607.352
 110173801.231 8  85849756.681 7  20965369.867                    20965376.438
 118209912.294 7  92111719.50544  22494573.008                    22494580.453
 106558180.990 8  83032444.074 8  20277323.953                    20277331.047
 130155203.814 6 101419714.71342  24767721.102                    24767730.609
 127973657.579 7  99719867.27143  24352566.625                    24352574.680
 123070484.165 7  95899182.165 6  23419548.930                    23419557.059
 112723125.579 7  87836328.23146  21450508.359                    21450516.160
 111532956.318 8  86908919.58646  21223992.461                    21223997.199
 11  8 14  2 12 30.0000000  0  9G25G12G10G05G26G04G29G30G02
 114279709.157 8  89049190.523 7  21746706.078                    21746715.383
 110209678.757 7  85877713.194 7  20972196.813                    20972203.684
 118299903.562 7  92181842.55244  22511697.672                    22511705.742
 106551917.115 8  83027563.160 8  20276132.078                    20276138.973
 130061627.623 5 101346798.25442  24749913.602                    24749923.129
 128053566.974 7  99782134.36343  24367772.617                    24367780.504
 122987216.466 7  95834298.298 6  23403703.094                    23403711.168
 112718525.924 8  87832744.12146  21449633.141                    21449640.844
 111566429.156 7  86935002.33846  21230361.695                    21230367.117
 11  8 14  2 13  0.0000000  0  9G25G12G10G05G26G04G29G30G02
 114249312.196 8  89025504.604 7  21740921.609                    21740931.559
 110246096.931 8  85906091.000 7  20979127.172                    20979134.156
 118390221.883 7  92252220.43444  22528885.484                    22528892.832
 106546228.932 8  83023130.838 8  20275049.922                    20275056.637
 129967931.684 5 101273788.53442  24732082.938                    24732093.469
 128133420.196 7  99844357.62043  24382968.227                    24382976.699
 122903945.398 7  95769411.821 6  23387856.773                    23387865.543
 112714538.690 7  87829637.21245  21448874.344                    21448882.047
 111600016.882 7  86961174.61046  21236753.414                    21236758.156
 11  8 14  2 13 30.0000000  0  9G25G12G10G05G26G04G29G30G02
 114219479.407 8  89002258.301 7  21735244.773                    21735254.531
 110283054.332 8  85934888.975 7  20986159.719                    20986166.914
 118480864.269 7  92322850.85144  22546133.906                    22546141.422
 106541115.914 8  83019146.699 8  20274076.875                    20274083.570
 129874118.931 5 101200687.81442  24714231.453                    24714240.652
 128213217.023 6  99906537.00743  24398152.633                    24398160.938
 122820672.339 7  95704523.791 6  23372011.023                    23372019.141
 112711163.611 8  87827007.30246  21448232.375                    21448239.820
 111633719.215 8  86987436.18446  21243166.414                    21243171.531
 11  8 14  2 14  0.0000000  0  9G25G12G10G05G26G04G29G30G02
 114190211.806 8  88979452.406 7  21729675.281                    21729684.887
 110320548.974 8  85964105.587 7  20993294.898                    20993301.719
 118571828.241 7  92393731.85344  22563443.930                    22563451.133
 106536578.026 8  83015610.711 8  20273213.023                    20273219.977
 129780192.488 6 101127498.43443  24696357.508                    24696366.797
 128292957.145 7  99968672.17543  24413326.492                    24413334.945
 122737398.534 7  95639635.189 6  23356164.383                    23356172.734
 112708400.527 7  87824854.26846  21447706.406                    21447714.031
 111667535.895 8  87013786.86346  21249601.813                    21249606.402
 11  8 14  2 14 30.0000000  0  9G25G12G10G05G26G04G29G30G02
 114161510.088 8  88957087.453 7  21724213.656                    21724223.293
 110358579.561 8  85993739.817 7  21000531.836                    21000538.641
 118663110.225 7  92464860.65144  22580814.414                    22580821.523
 106532614.423 8  83012522.218 8  20272459.023                    20272465.805
 129686155.052 6 101054222.59243  24678463.063                    24678472.961
 128372640.078 6 100030762.74543  24428489.734                    24428498.109
 122654125.205 7  95574746.961 6  23340318.445                    23340326.496
 112706248.836 8  87823177.65446  21447296.758                    21447304.387
 111701465.709 7  87040225.69846  21256058.234                    21256063.398
 11  8 14  2 15  0.0000000  0  9G25G12G10G05G26G04G29G30G02
 114133375.088 8  88935164.095 7  21718859.617                    21718869.336
 110397144.453 8  86023790.385 7  21007870.547                    21007877.227
 118754707.586 7  92536235.20044  22598244.805                    22598251.930
 106529224.584 8  83009880.810 8  20271813.922                    20271820.500
 129592009.365 6 100980862.44443  24660548.313                    24660558.141
 128452265.494 6 100092808.48843  24443642.078                    24443650.445
 122570853.757 7  95509860.206 6  23324471.836                    23324480.090
 112704708.216 7  87821977.18945  21447004.172                    21447011.059
 111735508.176 8  87066752.31246  21262536.633                    21262541.363
 11  8 14  2 15 30.0000000  0  9G25G12G10G05G26G04G29G30G02
 114105807.837 8  88913683.146 7  21713613.875                    21713623.500
 110436242.228 8  86054256.183 7  21015310.656                    21015317.488
 118846617.599 7  92607853.36544  22615734.531                    22615741.648
 106526408.375 8  83007686.388 8  20271277.883                    20271284.605
 129497758.622 6 100907420.38443  24642612.305                    24642622.105
 128531833.197 6 100154809.29343  24458783.258                    24458791.539
 122487585.483 6  95444975.921 6  23308626.734                    23308634.590
 112703778.486 8  87821252.74546  21446826.891                    21446834.082
 111769662.703 8  87093366.24446  21269035.906                    21269040.578
 11  8 14  2 16  0.0000000  0  9G25G12G10G05G26G04G29G30G02
 114078809.252 8  88892645.312 7  21708476.102                    21708485.406
 110475871.273 8  86085135.964 7  21022851.555                    21022858.320
 118938837.517 7  92679713.03944  22633283.141                    22633290.695
 106524165.548 8  83005938.761 8  20270851.289                    20270857.805
 129403405.743 6 100833898.76343  24624657.453                    24624667.188
 128611343.172 6 100216765.14743  24473913.109                    24473922.230
 122404321.891 6  95380095.311 6  23292781.219                    23292789.980
 112703459.272 8  87821004.02046  21446766.195                    21446773.688
 111803929.063 8  87120067.33246  21275556.391                    21275561.352
 11  8 14  2 16 30.0000000  0  9G25G12G10G05G26G04G29G30G02
 114052379.853 8  88872051.014 7  21703446.734                    21703456.090
 110516029.845 8  86116428.356 7  21030493.617                    21030500.188
 119031363.955 7  92751811.52844  22650890.539                    22650897.887
 106522495.112 8  83004637.145 8  20270533.414                    20270540.086
 129308953.720 6 100760299.83843  24606684.070                    24606693.523
 128690794.800 6 100278675.55042  24489032.023                    24489040.598
 122321064.186 7  95315219.300 6  23276937.977                    23276946.461
 112703749.873 7  87821230.48346  21446821.305                    21446829.277
 111838306.295 8  87146854.80646  21282098.125                    21282103.121
 11  8 14  2 17  0.0000000  0  9G25G12G10G05G26G04G29G30G02
 114026520.591 8  88851900.965 7  21698525.828                    21698535.461
 110556716.280 8  86148132.076 7  21038235.820                    21038242.625
 119124194.216 7  92824146.78844  22668555.664                    22668562.418
 106521396.631 8  83003781.207 8  20270324.070                    20270331.000
 129214405.375 7 100686625.89043  24588692.563                    24588701.344
 128770187.943 6 100340540.30843  24504140.750                    24504148.535
 122237813.636 7  95250348.855 6  23261096.188                    23261104.500
 112704649.965 8  87821931.85946  21446992.742                    21447000.113
 111872794.014 8  87173728.37646  21288661.086                    21288666.305
 11  8 14  2 17 30.0000000  0  9G25G12G10G05G26G04G29G30G02
 114001232.274 8  88832195.810 7  21693713.383                    21693723.277
 110597928.916 8  86180245.821 7  21046078.516                    21046085.414
 119217325.541 6  92896716.62244  22686277.883                    22686284.938
 106520869.770 8  83003370.691 8  20270223.930                    20270230.656
 129119763.784 6 100612879.26543  24570682.727                    24570691.965
 128849522.361 6 100402359.40242  24519236.898                    24519245.793
 122154571.912 7  95185485.312 6  23245255.664                    23245264.266
 112706159.200 7  87823107.89446  21447280.086                    21447287.219
 111907391.814 7  87200687.71646  21295245.094                    21295249.461
 11  8 14  2 18  0.0000000  0  9G25G12G10G05G26G04G29G30G02
 113976515.683 8  88812936.156 7  21689010.102                    21689019.777
 110639666.431 8  86212768.571 7  21054020.781                    21054027.961
 119310755.201 6  92969518.94044  22704056.469                    22704064.668
 106520914.125 8  83003405.278 8  20270232.398                    20270239.430
 129025032.158 6 100539062.45543  24552655.398                    24552665.043
 128928797.874 6 100464132.56942  24534323.547                    24534331.535
 122071340.428 7  95120629.752 6  23229416.680                    23229425.297
 112708277.013 8  87824758.14946  21447682.711                    21447690.180
 111942099.227 8  87227732.47246  21301849.289                    21301854.602
 11  8 14  2 18 30.0000000  0  9G25G12G10G05G26G04G29G30G02
 113952371.377 8  88794122.437 7  21684415.625                    21684424.758
 110681926.607 8  86245698.582 7  21062062.609                    21062069.031
 119404480.007 6  93042551.23344  22721892.156                    22721899.883
 106521528.811 8  83003884.284 8  20270349.234                    20270355.840
 128930213.157 7 100465177.62343  24534612.141                    24534621.309
 129008014.289 6 100525859.66242  24549396.906                    24549406.402
 121988120.470 7  95055783.184 6  23213580.594                    23213588.609
 112711002.751 7  87826882.12346  21448201.266                    21448208.980
 111976915.430 7  87254862.00146  21308474.391                    21308479.586
 11  8 14  2 19  0.0000000  0  9G25G12G10G05G26G04G29G30G02
 113928799.966 8  88775755.133 7  21679930.375                    21679939.797
 110724707.602 8  86279034.421 7  21070203.484                    21070210.383
 119498497.109 6  93115811.28344  22739783.008                    22739790.504
 106522713.033 8  83004807.086 8  20270574.680                    20270581.555
 128835309.790 7 100391227.00743  24516552.570                    24516561.883
 129087170.969 6 100587540.15542  24564461.117                    24564469.262
 121904913.457 7  94990946.688 6  23197746.922                    23197754.949
 112714335.848 7  87829479.33946  21448835.977                    21448843.660
 112011839.671 7  87282075.71346  21315120.328                    21315125.148
 11  8 14  2 19 30.0000000  0  9G25G12G10G05G26G04G29G30G02
 113905802.092 8  88757834.732 7  21675554.133                    21675563.441
 110768008.291 8  86312775.220 7  21078443.484                    21078450.328
 119592803.625 7  93189296.86744  22757729.117                    22757736.742
 106524466.437 8  83006173.404 8  20270908.500                    20270915.090
 128740325.205 6 100317213.12243  24498477.469                    24498486.359
 129166267.891 6 100649174.15843  24579512.258                    24579519.875
 121821720.574 7  94926121.198 6  23181915.469                    23181923.863
 112718275.632 7  87832549.32445  21449585.586                    21449593.078
 112046871.579 7  87309373.32246  21321786.875                    21321791.570
 11  8 14  2 20  0.0000000  0  9G25G12G10G05G26G04G29G30G02
 113883378.643 8  88740361.946 7  21671286.750                    21671296.242
 110811826.520 8  86346919.304 7  21086781.656                    21086788.770
 119687396.586 7  93263005.64444  22775729.484                    22775736.922
 106526788.426 8  83007982.771 8  20271350.133                    20271356.766
 128645262.616 6 100243138.46943  24480387.125                    24480396.809
 129245305.061 6 100710761.61842  24594552.656                    24594560.512
 121738543.488 7  94861308.024 6  23166087.766                    23166095.520
 112722821.707 7  87836091.72746  21450450.844                    21450458.035
 112082010.811 8  87336754.56046  21328473.555                    21328478.434
 11  8 14  2 20 30.0000000  0  9G25G12G10G05G26G04G29G30G02
 113861530.122 8  88723337.145 7  21667128.969                    21667138.730
 110856160.310 8  86381465.110 7  21095218.602                    21095225.176
 119782273.464 7  93336935.66344  22793783.898                    22793791.348
 106529678.129 8  83010234.518 8  20271899.891                    20271906.824
 128550124.815 6 100169005.18943  24462283.156                    24462292.156
 129324282.094 6 100772302.17442  24609580.867                    24609589.082
 121655383.525 7  94796508.180 6  23150261.945                    23150270.398
 112727973.260 7  87840105.94146  21451430.945                    21451438.047
 112117256.941 7  87364219.10046  21335180.672                    21335185.238
 11  8 14  2 21  0.0000000  0  9G25G12G10G05G26G04G29G30G02
 113840257.117 8  88706760.809 7  21663080.883                    21663090.133
 110901008.298 8  86416411.601 7  21103752.398                    21103759.086
 119877431.219 7  93411084.55044  22811891.836                    22811899.273
 106533134.974 8  83012928.189 8  20272557.641                    20272564.613
 128454915.041 6 100094815.85742  24444165.414                    24444174.379
 129403198.797 6 100833795.83943  24624598.445                    24624606.316
 121572242.371 7  94731722.988 6  23134441.063                    23134448.859
 112733729.743 8  87844591.52446  21452526.070                    21452533.371
 112152609.506 8  87391766.56546  21341908.109                    21341912.727
 11  8 14  2 21 30.0000000  0  9G25G12G10G05G26G04G29G30G02
 113819560.142 8  88690633.320 7  21659142.563                    21659151.703
 110946368.270 8  86451757.034 7  21112384.266                    21112390.922
 119972866.740 7  93485449.86844  22830052.180                    22830059.941
 106537158.125 8  83016063.143 8  20273323.406                    20273330.266
 128359636.328 6 100020572.82943  24426034.625                    24426043.547
 129482055.097 6 100895242.31643  24639603.984                    24639612.617
 121489121.280 7  94666953.396 6  23118623.734                    23118631.566
 112740090.357 7  87849547.86546  21453736.688                    21453743.820
 112188067.715 8  87419396.36646  21348655.508                    21348660.191
 11  8 14  2 22  0.0000000  0  9G25G12G10G05G26G04G29G30G02
 113799439.934 8  88674955.259 7  21655313.594                    21655322.891
 110992238.729 8  86487500.255 7  21121113.008                    21121120.102
 120068577.148 7  93560029.38644  22848265.813                    22848273.488
 106541747.168 8  83019639.049 8  20274196.469                    20274203.461
 128264291.916 6  99946278.55043  24407890.141                    24407899.523
 129560850.750 6 100956641.52343  24654598.953                    24654606.902
 121406021.867 7  94602200.700 6  23102810.086                    23102818.035
 112747054.496 7  87854974.48146  21455061.984                    21455069.121
 112223631.420 7  87447108.35646  21355423.031                    21355427.539
 11  8 14  2 22 30.0000000  0  9G25G12G10G05G26G04G29G30G02
 113779896.865 8  88659726.918 7  21651594.992                    21651604.141
 111038617.846 8  86523639.827 7  21129938.906                    21129945.609
 120164559.808 7  93634821.05544  22866530.672                    22866538.113
 106546901.248 8  83023655.242 8  20275177.320                    20275184.188
 128168884.783 6  99871935.46142  24389735.031                    24389744.684
 129639585.663 6 101017993.41843  24669581.625                    24669589.832
 121322945.707 7  94537466.118 6  23087001.367                    23087009.316
 112754621.379 7  87860870.78445  21456501.828                    21456509.035
 112259300.171 7  87474902.20246  21362210.688                    21362215.219
 11  8 14  2 23  0.0000000  0  9G25G12G10G05G26G04G29G30G02
 113760931.567 8  88644948.788 7  21647985.625                    21647994.863
 111085503.598 8  86560174.186 7  21138860.672                    21138867.563
 120260811.928 7  93709822.68244  22884846.680                    22884854.367
 106552619.541 8  83028111.081 8  20276265.656                    20276272.711
 128073418.150 6  99797545.99443  24371569.172                    24371578.363
 129718259.695 6 101079297.88343  24684552.359                    24684560.711
 121239894.354 7  94472750.839 6  23071196.961                    23071205.422
 112762790.243 7  87867236.14945  21458056.406                    21458063.586
 112295073.269 8  87502777.36646  21369017.852                    21369022.586
 11  8 14  2 23 30.0000000  0  8G25G12G10G05G26G29G30G02
 113742544.461 8  88630621.190 7  21644486.656                    21644495.863
 111132893.861 8  86597101.669 7  21147878.813                    21147885.422
 120357330.532 7  93785031.96044  22903214.023                    22903221.117
 106558901.140 8  83033005.862 8  20277460.961                    20277467.645
 127977895.101 6  99723112.56343  24353391.328                    24353400.254
 121156869.092 7  94408055.872 6  23055397.414                    23055405.707
 112771560.304 7  87874069.97246  21459725.219                    21459732.301
 112330950.404 8  87530733.57946  21375845.461                    21375849.898
 11  8 14  2 24  0.0000000  0  8G25G12G10G05G26G29G30G02
 113724735.665 8  88616744.231 7  21641098.078                    21641107.277
 111180786.527 8  86634420.627 7  21156992.570                    21156999.457
 120454112.338 7  93860446.35844  22921630.648                    22921638.121
 106565744.931 8  83038338.710 8  20278763.406                    20278770.031
 127882318.591 6  99648637.46143  24335203.383                    24335212.141
 121073871.294 7  94343382.308 6  23039604.422                    23039612.242
 112780930.318 8  87881371.29445  21461508.336                    21461515.383
 112366930.889 8  87558770.34746  21382692.000                    21382696.566
 11  8 14  2 24 30.0000000  0  8G25G12G10G05G26G29G30G02
 113707505.650 8  88603318.268 7  21637819.094                    21637828.672
 111229179.957 8  86672129.794 7  21166201.500                    21166208.387
 120551154.611 7  93936063.68644  22940096.977                    22940104.691
 106573149.992 8  83044108.915 8  20280172.523                    20280179.012
 127786691.530 6  99574122.97543  24317006.289                    24317014.996
 120990902.572 7  94278731.389 6  23023815.117                    23023823.363
 112790899.504 8  87889139.50246  21463405.305                    21463412.844
 112403014.455 8  87586887.42646  21389558.094                    21389563.180
 11  8 14  2 25  0.0000000  0  8G25G12G10G05G26G29G30G02
 113690854.986 8  88590343.751 7  21634650.633                    21634659.891
 111278072.022 8  86710227.505 7  21175505.297                    21175512.074
 120648454.451 7  94011881.72144  22958612.922                    22958620.004
 106581115.885 8  83050316.122 8  20281688.156                    20281694.852
 127691017.449 7  99499571.80543  24298799.805                    24298808.230
 120907964.759 7  94214104.545 6  23008032.930                    23008040.949
 112801467.194 7  87897374.08246  21465416.227                    21465423.492
 112439200.778 8  87615084.57946  21396444.352                    21396449.039
 11  8 14  2 25 30.0000000  0  8G25G12G10G05G26G29G30G02
 113674783.827 8  88577820.794 7  21631592.109                    21631601.801
 111327460.582 8  86748712.105 7  21184903.625                    21184910.754
 120746008.997 7  94087898.24444  22977176.188                    22977184.102
 106589641.426 8  83056959.424 8  20283310.461                    20283317.117
 127595299.411 7  99424986.41143  24280585.617                    24280594.453
 120825059.073 7  94149502.737 6  22992256.172                    22992264.738
 112812632.238 7  87906074.12546  21467541.141                    21467548.477
 112475488.983 8  87643361.11446  21403349.852                    21403354.484
 11  8 14  2 26  0.0000000  0  8G25G12G10G05G26G29G30G02
 113659292.461 8  88565749.621 7  21628644.406                    21628653.566
 111377343.825 8  86787582.169 7  21194395.984                    21194402.777
 120843815.532 6  94164111.08844  22995788.828                    22995796.656
 106598725.352 8  83064037.832 8  20285039.234                    20285045.867
 127499540.365 7  99350369.07143  24262363.273                    24262371.523
 120742186.998 7  94084927.108 6  22976486.492                    22976494.730
 112824393.634 7  87915238.86146  21469778.883                    21469786.250
 112511878.765 8  87671716.80546  21410274.750                    21410279.352
 11  8 14  2 26 30.0000000  0  8G25G12G10G05G26G29G30G02
 113644381.343 8  88554130.587 7  21625806.656                    21625816.465
 111427719.595 8  86826836.019 7  21203982.383                    21203989.152
 120941871.216 6  94240518.09544  23014447.867                    23014455.969
 106608367.072 8  83071550.877 8  20286873.633                    20286880.488
 127403743.596 6  99275722.32143  24244134.188                    24244142.191
 120659350.262 7  94020379.021 6  22960723.078                    22960731.305
 112836750.586 8  87924867.65946  21472130.398                    21472137.793
 112548369.827 8  87700151.41946  21417218.547                    21417223.148
 11  8 14  2 27  0.0000000  0  8G25G12G10G05G26G29G30G02
 113630050.825 8  88542963.974 7  21623079.805                    21623089.195
 111478585.974 8  86866472.161 7  21213661.945                    21213668.676
 121040173.191 7  94317117.02644  23033154.930                    23033161.590
 106618566.071 8  83079498.167 8  20288814.773                    20288821.273
 127307912.495 7  99201048.83743  24225897.484                    24225906.293
 120576550.602 7  93955859.848 6  22944966.766                    22944974.930
 112849702.037 7  87934959.70346  21474594.813                    21474602.191
 112584961.864 8  87728664.71346  21424182.094                    21424186.426
 11  8 14  2 27 30.0000000  0  8G25G12G10G05G26G29G30G02
 113616301.064 8  88532249.888 7  21620463.203                    21620472.133
 111529940.916 8  86906489.009 7  21223434.234                    21223440.875
 121138718.458 7  94393905.53044  23051907.094                    23051914.969
 106629320.837 8  83087878.526 8  20290861.188                    20290867.480
 127212050.179 7  99126351.02443  24207655.594                    24207663.602
 120493789.519 7  93891370.740 6  22929217.773                    22929226.121
 112863246.956 7  87945514.18845  21477172.547                    21477179.840
 112621654.692 8  87757256.55846  21431164.047                    21431168.590
 11  8 14  2 28  0.0000000  0  8G25G12G10G05G26G29G30G02
 113603131.837 8  88521988.157 7  21617957.242                    21617966.602
 111581781.950 8  86946884.620 7  21233299.188                    21233305.977
 121237503.810 7  94470881.12044  23070705.906                    23070712.637
 106640629.742 8  83096690.675 8  20293013.328                    20293019.605
 127116159.503 7  99051631.08644  24189408.125                    24189416.535
 120411068.240 7  93826912.663 6  22913475.781                    22913484.809
 112877383.819 8  87956529.92946  21479862.570                    21479870.160
 112658446.995 8  87785925.90746  21438165.578                    21438170.203
 11  8 14  2 28 30.0000000  0  8G25G12G10G05G26G29G30G02
 113590543.962 8  88512179.442 7  21615562.273                    21615571.074
 111634107.350 8  86987657.671 7  21243256.586                    21243263.242
 121336527.007 7  94548042.04244  23089548.836                    23089556.609
 106652492.583 8  83105934.473 8  20295270.703                    20295276.891
 127020244.067 6  98976891.89943  24171154.992                    24171164.402
 120328388.794 7  93762487.189 6  22897742.406                    22897750.832
 112892112.169 7  87968006.57245  21482665.172                    21482672.613
 112695339.152 8  87814673.06446  21445185.938                    21445190.172
 11  8 14  2 29  0.0000000  0  8G25G12G10G05G26G29G30G02
 113578537.310 8  88502823.618 7  21613276.828                    21613286.578
 111686914.708 8  87028806.263 7  21253305.477                    21253312.191
 121435784.740 7  94625385.73144  23108436.648                    23108444.492
 106664908.040 8  83115608.872 8  20297633.031                    20297640.227
 126924306.876 6  98902135.72943  24152899.188                    24152907.727
 120245752.769 7  93698095.564 6  22882017.867                    22882025.941
 112907430.568 8  87979942.97946  21485580.539                    21485587.727
 112732330.599 8  87843497.59746  21452225.117                    21452229.422
 11  8 14  2 29 30.0000000  0  8G25G12G10G05G26G29G30G02
 113567112.308 8  88493921.021 7  21611102.953                    21611112.160
 111740202.262 8  87070329.037 7  21263445.680                    21263452.336
 121535274.611 7  94702910.29044  23127369.516                    23127376.648
 106677875.269 8  83125713.228 8  20300100.914                    20300107.188
 126828351.521 7  98827365.41743  24134639.484                    24134648.746
 120163161.668 7  93633738.952 6  22866300.727                    22866309.156
 112923338.124 7  87992338.48045  21488607.445                    21488615.086
 112769421.139 8  87872399.34746  21459283.016                    21459287.922
 11  8 14  2 30  0.0000000  0  8G25G12G10G05G26G29G30G02
 113556268.651 8  88485471.429 7  21609039.430                    21609048.953
 111793967.282 8  87112223.866 7  21273676.438                    21273683.688
 121634993.178 7  94780613.06644  23146344.703                    23146352.160
 106691392.554 8  83136246.203 8  20302672.906                    20302679.262
 126732380.870 6  98752583.18543  24116376.977                    24116385.547
 120080617.080 7  93569418.588 6  22850593.461                    22850600.953
 112939833.201 8  88005191.79346  21491746.445                    21491754.270
 112806610.014 8  87901377.71546  21466360.102                    21466364.797
 11  8 14  2 30 30.0000000  0  8G25G12G10G05G26G29G30G02
 113546006.699 8  88477475.106 7  21607086.555                    21607096.086
 111848207.911 8  87154489.289 7  21283998.438                    21284005.465
 121734937.945 7  94858492.10044  23165363.906                    23165371.141
 106705459.233 8  83147207.272 8  20305349.688                    20305356.289
 126636398.337 6  98677791.70243  24098111.383                    24098120.098
 119998120.888 7  93505135.937 6  22834894.859                    22834902.258
 112956915.019 7  88018502.30845  21494996.859                    21495004.359
 112843897.341 8  87930432.79746  21473455.359                    21473460.359
 11  8 14  2 31  0.0000000  0  8G25G12G10G05G26G29G30G02
 113536326.627 8  88469932.194 7  21605244.555                    21605254.332
 111902922.275 8  87197123.859 7  21294410.273                    21294417.266
 121835106.405 7  94936545.43444  23184425.828                    23184433.230
 106720074.206 8  83158595.586 8  20308130.570                    20308137.000
 126540407.298 6  98602993.57243  24079845.242                    24079854.180
 119915674.373 7  93440891.992 6  22819205.641                    22819213.184
 112974582.280 8  88032269.00745  21498358.844                    21498366.063
 112881282.449 8  87959564.07746  21480569.492                    21480574.078
 11  8 14  2 31 30.0000000  0  8G25G12G10G05G26G29G30G02
 113527228.428 8  88462842.688 7  21603513.172                    21603522.742
 111958107.947 8  87240125.686 7  21304911.844                    21304918.648
 121935495.124 7  95014770.40744  23203528.586                    23203536.258
 106735236.169 8  83170410.119 8  20311016.063                    20311022.500
 126444411.003 6  98528191.38543  24061577.703                    24061586.609
 119833279.615 7  93376688.395 6  22803526.227                    22803534.082
 112992833.776 7  88046490.96546  21501832.000                    21501839.547
 112918765.114 8  87988771.36846  21487702.141                    21487707.246
 11  8 14  2 32  0.0000000  0  8G25G12G10G05G26G29G30G02
 113518711.914 8  88456206.449 7  21601892.602                    21601902.160
 112013762.319 8  87283492.732 7  21315502.336                    21315509.367
 122036101.377 6  95093164.90144  23222673.094                    23222680.926
 106750943.739 8  83182649.808 8  20314005.133                    20314011.531
 126348412.698 6  98453387.61143  24043309.445                    24043318.305
 119750938.003 7  93312526.209 6  22787857.695                    22787865.305
 113011668.022 8  88061167.01245  21505415.758                    21505423.473
 112956344.934 8  88018054.36746  21494853.438                    21494858.496
 11  8 14  2 32 30.0000000  0  8G25G12G10G05G26G29G30G02
 113510777.051 8  88450023.443 7  21600382.750                    21600391.938
 112069883.150 8  87327223.262 7  21326182.094                    21326188.797
 122136922.275 6  95171726.60444  23241859.539                    23241866.777
 106767195.661 8  83195313.669 8  20317097.781                    20317103.957
 126252415.502 6  98378584.70643  24025041.297                    24025050.676
 119668651.282 7  93248406.794 6  22772198.859                    22772206.934
 113031083.693 8  88076296.11746  21509110.703                    21509118.340
 112994021.461 8  88047412.71346  21502022.938                    21502027.359
 11  8 14  2 33  0.0000000  0  8G25G12G10G05G26G29G30G02
 113503424.125 8  88444293.900 7  21598983.742                    21598993.137
 112126468.675 8  87371315.881 7  21336949.883                    21336956.422
 122237955.323 7  95250453.64944  23261085.594                    23261092.125
 106783991.270 8  83208401.185 8  20320293.828                    20320300.344
 126156423.198 6  98303785.58843  24006775.516                    24006784.047
 119586421.281 7  93184331.592 6  22756550.852                    22756558.555
 113051079.738 7  88091877.46645  21512915.859                    21512923.215
 113031794.513 8  88076846.27746  21509211.188                    21509215.883
 11  8 14  2 33 30.0000000  0  8G25G12G10G05G26G29G30G02
 113496652.747 8  88439017.509 7  21597694.852                    21597704.164
 112183516.278 8  87415768.557 7  21347805.758                    21347812.348
 122339197.692 7  95329343.80344  23280350.891                    23280358.375
 106801328.721 8  83221910.911 8  20323592.781                    20323599.375
 126060438.588 6  98228992.49043  23988509.945                    23988517.730
 119504249.519 7  93120301.763 7  22740913.781                    22740921.559
 113071654.559 8  88107909.81145  21516831.117                    21516838.703
 113069663.878 8  88106354.89146  21516417.469                    21516421.945
 11  8 14  2 34  0.0000000  0  8G25G12G10G05G26G29G30G02
 113490462.851 8  88434194.231 7  21596516.766                    21596526.457
 112241023.484 7  87460579.373 7  21358748.805                    21358755.457
 122440646.341 7  95408394.70844  23299655.328                    23299663.258
 106819206.684 8  83235841.816 8  20326994.984                    20327001.648
 125964465.121 6  98154208.04643  23970246.273                    23970254.602
 119422137.543 7  93056318.515 7  22725288.211                    22725296.164
 113092806.690 7  88124392.00945  21520856.398                    21520863.582
 113107629.083 8  88135938.17546  21523641.594                    21523646.355
 11  8 14  2 34 30.0000000  0  8G25G12G10G05G26G29G30G02
 113484854.467 8  88429824.079 7  21595449.680                    21595458.848
 112298988.368 8  87505746.820 7  21369778.977                    21369786.012
 122542298.546 7  95487604.18244  23319000.156                    23319007.113
 106837624.095 8  83250193.071 8  20330499.828                    20330506.305
 125868506.141 6  98079434.90043  23951985.984                    23951993.762
 119340087.433 7  92992383.481 7  22709674.609                    22709682.180
 113114534.916 8  88141323.11145  21524990.992                    21524998.191
 113145689.949 8  88165596.01146  21530884.266                    21530889.164
 11  8 14  2 35  0.0000000  0  8G25G12G10G05G26G29G30G02
 113479827.451 8  88425906.947 7  21594493.055                    21594502.684
 112357408.358 7  87551268.895 7  21380896.188                    21380902.785
 122644151.673 7  95566970.25844  23338381.664                    23338388.984
 106856579.759 8  83264963.743 8  20334106.570                    20334113.059
 125772565.045 6  98004675.67243  23933729.625                    23933737.500
 119258100.992 7  92928498.053 7  22694073.031                    22694080.301
 113136837.839 7  88158702.03545  21529235.141                    21529242.520
 113183846.333 8  88195328.26746  21538145.430                    21538150.195
 11  8 14  2 35 30.0000000  0  8G25G12G10G05G26G29G30G02
 113475381.626 8  88422442.703 7  21593647.094                    21593656.559
 112416281.409 8  87597144.001 7  21392099.219                    21392106.090
 122746202.743 7  95646490.55443  23357801.133                    23357808.758
 106876072.155 8  83280152.646 8  20337815.969                    20337822.250
 125676645.393 6  97929933.16743  23915476.484                    23915484.254
 119176179.576 7  92864663.284 6  22678483.781                    22678491.379
 113159713.947 8  88176527.59745  21533587.992                    21533595.270
 113222097.582 8  88225134.44446  21545424.570                    21545429.313
 11  8 14  2 36  0.0000000  0  8G25G12G10G05G26G29G30G02
 113471516.507 8  88419430.944 7  21592911.602                    21592921.207
 112475604.666 8  87643369.917 7  21403388.117                    21403394.902
 122848449.055 7  95726162.97343  23377258.359                    23377265.539
 106896099.798 8  83295758.620 8  20341627.125                    20341633.688
 125580750.096 6  97855209.64143  23897228.078                    23897236.078
 119094325.074 7  92800880.650 6  22662907.328                    22662914.996
 113183161.417 8  88194798.37745  21538049.984                    21538057.137
 113260443.378 8  88255014.30246  21552721.398                    21552725.844
 11  8 14  2 36 30.0000000  0  8G25G12G10G05G26G29G30G02
 113468232.180 8  88416871.763 7  21592286.859                    21592295.965
 112535375.781 8  87689944.813 7  21414762.242                    21414769.141
 122950887.765 7  95805985.33344  23396751.148                    23396759.098
 106916661.472 8  83311780.723 8  20345539.742                    20345546.316
 125484882.674 6  97780507.81343  23878985.219                    23878993.699
 119012539.330 7  92737151.582 6  22647344.094                    22647351.535
 113207179.217 8  88213513.56446  21542620.570                    21542627.984
 113298883.779 8  88284967.86545  21560035.859                    21560040.750
 11  8 14  2 37  0.0000000  0  8G25G12G10G05G26G29G30G02
 113465528.145 8  88414764.761 7  21591772.195                    21591781.586
 112595592.606 8  87736867.018 7  21426221.266                    21426228.066
 123053516.087 7  95885955.44343  23416281.039                    23416288.777
 106937755.599 8  83328217.728 8  20349553.938                    20349560.637
 125389046.664 6  97705830.47643  23860747.922                    23860756.297
 118930823.883 7  92673477.275 6  22631793.930                    22631801.391
 113231765.411 8  88232671.65945  21547298.922                    21547306.344
 113337418.081 8  88314994.59945  21567369.188                    21567373.852
 11  8 14  2 37 30.0000000  0  8G25G12G10G05G26G29G30G02
 113463404.314 8  88413109.859 7  21591368.203                    21591377.176
 112656252.598 7  87784134.543 7  21437764.578                    21437771.148
 123156331.144 7  95966071.06744  23435845.867                    23435853.996
 106959380.904 8  83345068.636 8  20353669.227                    20353675.691
 125293245.361 6  97631180.19443  23842517.219                    23842526.043
 118849180.693 7  92609859.259 6  22616257.469                    22616265.086
 113256918.709 7  88252271.64745  21552085.648                    21552092.781
 113376046.550 8  88345094.70846  21574719.883                    21574724.641
 11  8 14  2 38  0.0000000  0  8G25G12G10G05G26G29G30G02
 113461860.352 8  88411906.803 7  21591074.109                    21591082.934
 112717353.527 8  87831745.664 7  21449391.547                    21449398.246
 123259330.248 7  96046330.09543  23455446.438                    23455453.926
 106981535.853 8  83362332.259 8  20357885.344                    20357891.609
 125197482.197 6  97556559.62344  23824293.547                    23824302.281
 118767611.423 7  92546298.844 6  22600735.813                    22600743.074
 113282637.461 7  88272312.25545  21556979.875                    21556986.672
 113414768.623 8  88375267.76145  21582088.289                    21582093.117
 11  8 14  2 38 30.0000000  0  8G25G12G10G05G26G29G30G02
 113460895.850 8  88411155.277 7  21590890.492                    21590899.773
 112778892.593 8  87879698.186 7  21461101.813                    21461108.660
 123362510.722 7  96126730.43444  23475080.539                    23475089.156
 107004219.149 8  83380007.570 8  20362201.320                    20362207.961
 125101760.527 6  97481971.40043  23806078.633                    23806087.137
 118686118.120 7  92482797.609 6  22585227.797                    22585235.582
 113308919.988 7  88292792.16445  21561980.930                    21561988.227
 113453584.021 8  88405513.52746  21589474.719                    21589479.867
 11  8 14  2 39  0.0000000  0  8G25G12G10G05G26G29G30G02
 113460510.522 8  88410855.049 7  21590817.133                    21590826.219
 112840867.581 8  87927990.383 7  21472895.133                    21472902.332
 123465870.048 7  96207270.17344  23494749.734                    23494756.941
 107027429.556 8  83398093.621 8  20366618.398                    20366624.492
 125006083.841 6  97407418.20443  23787871.633                    23787880.516
 118604702.491 7  92419356.886 6  22569734.898                    22569742.297
 113335764.666 8  88313710.10346  21567089.234                    21567096.500
 113492492.633 8  88435831.93246  21596878.711                    21596883.656
 11  8 14  2 39 30.0000000  0  8G25G12G10G05G26G29G30G02
 113460704.197 8  88411005.998 7  21590853.859                    21590862.957
 112903276.344 8  87976620.588 7  21484771.266                    21484778.199
 123569405.090 7  96287946.81344  23514450.938                    23514459.090
 107051165.463 8  83416589.154 8  20371134.898                    20371141.574
 124910455.591 6  97332902.76443  23769675.219                    23769683.164
 118523366.587 7  92355978.295 6  22554257.039                    22554264.555
 113363170.189 7  88335065.06345  21572304.477                    21572311.777
 113531494.622 8  88466223.09646  21604300.570                    21604305.574
 11  8 14  2 40  0.0000000  0  8G25G12G10G05G26G29G30G02
 113461476.174 8  88411607.574 7  21591001.164                    21591010.102
 112966116.140 8  88025586.667 7  21496729.172                    21496735.914
 123673113.102 7  96368758.23843  23534186.234                    23534194.008
 107075424.901 8  83435492.631 8  20375751.570                    20375757.867
 124814879.149 6  97258427.73443  23751487.320                    23751495.078
 118442111.826 7  92292662.953 7  22538794.773                    22538802.414
 113391134.477 7  88356855.43545  21577625.656                    21577633.113
 113570589.291 8  88496686.48146  21611740.125                    21611744.656
 11  8 14  2 40 30.0000000  0  8G25G12G10G05G26G29G30G02
 113462825.710 8  88412659.186 7  21591257.414                    21591266.711
 113029383.515 7  88074885.927 7  21508768.680                    21508775.539
 123776990.934 7  96449701.96843  23553954.031                    23553960.961
 107100205.862 8  83454802.496 8  20380467.258                    20380473.570
 124719357.665 7  97183995.50744  23733309.758                    23733317.898
 118360939.828 7  92229412.085 7  22523348.203                    22523355.547
 113419655.560 7  88379079.66745  21583053.250                    21583060.352
 113609776.346 8  88527221.85846  21619197.367                    21619202.113
 11  8 14  2 41  0.0000000  0  8G25G12G10G05G26G29G30G02
 113464753.242 8  88414161.185 7  21591624.055                    21591633.582
 113093077.431 8  88124517.541 7  21520889.398                    21520896.516
 123881036.697 7  96530776.59243  23573753.242                    23573760.992
 107125508.487 8  83474518.849 8  20385281.969                    20385288.566
 124623895.244 6  97109609.29944  23715143.477                    23715152.332
 118279853.412 7  92166227.909 7  22507918.000                    22507925.672
 113448732.637 8  88401737.14346  21588586.438                    21588593.883
 113649056.185 8  88557829.52946  21626671.875                    21626676.527
 11  8 14  2 41 30.0000000  0  9G25G12G10G05G26G15G29G30G02
 113467257.515 8  88416112.588 7  21592100.906                    21592110.523
 113157194.545 8  88174478.933 7  21533090.477                    21533097.148
 123985247.164 7  96611979.56343  23593583.867                    23593591.137
 107151329.998 8  83494639.531 8  20390195.523                    20390201.977
 124528494.882 6  97035271.44343  23696989.547                    23696997.758
 129413619.54316 100841810.29515  24626596.555                    24626605.297
 118198853.657 7  92103111.273 7  22492504.289                    22492511.594
 113478363.127 7  88424825.85046  21594224.859                    21594232.383
 113688428.047 8  88588508.90546  21634164.047                    21634168.520
 11  8 14  2 42  0.0000000  0  9G25G12G10G05G26G15G29G30G02
 113470337.965 8  88418512.956 7  21592686.992                    21592696.406
 113221732.357 8  88224768.142 7  21545371.602                    21545378.125
 124089619.507 7  96693308.63443  23613445.078                    23613452.664
 107177668.645 8  83515163.169 8  20395207.570                    20395213.891
 124433159.706 6  96960984.39543  23678848.133                    23678856.270
 129319786.202 6 100768693.590 5  24608739.336                    24608749.500
 118117942.280 7  92040063.515 7  22477107.031                    22477115.008
 113508545.283 8  88448344.41945  21599968.563                    21599976.090
 113727891.549 8  88619259.70046  21641673.945                    21641678.316
 11  8 14  2 42 30.0000000  0  9G25G12G10G05G26G15G29G30G02
 113473994.392 8  88421362.138 7  21593382.797                    21593392.051
 113286688.537 7  88275383.351 7  21557732.164                    21557739.191
 124194151.432 7  96774762.06943  23633337.078                    23633344.004
 107204523.190 8  83536088.812 8  20400317.609                    20400324.145
 124337893.592 6  96886751.12944  23660719.094                    23660727.434
 129225826.919 6 100695478.739 6  24590859.586                    24590869.016
 118037121.461 7  91977086.328 7  22461727.531                    22461735.473
 113539277.554 7  88472291.64945  21605816.477                    21605823.660
 113767447.012 8  88650082.15546  21649200.828                    21649205.570
 11  8 14  2 43  0.0000000  0  9G25G12G10G05G26G15G29G30G02
 113478226.085 8  88424659.577 7  21594188.039                    21594197.336
 113352060.010 8  88326322.161 7  21570172.094                    21570178.809
 124298840.184 7  96856337.74743  23653258.500                    23653265.891
 107231892.089 8  83557415.248 8  20405526.156                    20405532.273
 124242699.980 6  96812574.38844  23642604.805                    23642613.047
 129131744.032 6 100622167.576 5  24572956.883                    24572965.207
 117956393.096 7  91914181.184 7  22446365.063                    22446372.965
 113570558.019 7  88496666.04846  21611768.945                    21611776.379
 113807093.996 8  88680975.91646  21656745.578                    21656749.828
 11  8 14  2 43 30.0000000  0  9G25G12G10G05G26G15G29G30G02
 113483032.518 8  88428404.859 7  21595102.711                    21595111.602
 113417844.389 8  88377582.725 7  21582690.773                    21582697.121
 124403682.826 7  96938033.32943  23673209.523                    23673217.184
 107259773.450 8  83579141.001 8  20410831.633                    20410838.105
 124147582.425 7  96738456.87143  23624503.938                    23624511.914
 129037540.150 6 100548762.107 5  24555030.156                    24555039.086
 117875758.957 7  91851349.463 7  22431021.328                    22431028.934
 113602384.874 8  88521466.19545  21617825.563                    21617832.781
 113846832.312 8  88711940.85946  21664307.539                    21664312.266
 11  8 14  2 44  0.0000000  0  9G25G12G10G05G26G15G29G30G02
 113488413.174 8  88432597.589 7  21596126.375                    21596136.180
 113484039.862 7  88429163.617 7  21595286.633                    21595293.926
 124508676.715 7  97019846.73843  23693189.430                    23693196.379
 107288165.938 8  83601265.037 8  20416234.672                    20416240.914
 124052544.354 7  96664401.32244  23606418.688                    23606427.633
 128943218.021 6 100475264.497 5  24537081.313                    24537090.445
 117795221.216 7  91788592.858 7  22415695.484                    22415702.930
 113634756.408 7  88546690.77345  21623985.328                    21623992.977
 113886662.142 8  88742977.09345  21671886.438                    21671891.617
 11  8 14  2 44 30.0000000  0  9G25G12G10G05G26G15G29G30G02
 113494367.247 8  88437237.119 7  21597259.461                    21597269.031
 113550643.063 8  88481062.211 7  21607961.117                    21607968.180
 124613819.270 7  97101776.03843  23713197.156                    23713204.637
 107317067.837 8  83623786.013 8  20421734.477                    20421740.656
 123957589.297 7  96590410.45944  23588349.844                    23588357.629
 128848780.013 6 100401676.599 5  24519110.344                    24519118.941
 117714781.604 7  91725912.727 7  22400388.055                    22400395.684
 113667670.525 7  88572338.14545  21630248.758                    21630256.102
 113926582.999 8  88774084.27346  21679483.422                    21679488.246
 11  8 14  2 45  0.0000000  0  9G25G12G10G05G26G15G29G30G02
 113500893.836 8  88442322.778 7  21598501.453                    21598511.063
 113617651.217 8  88533276.363 7  21620712.469                    21620719.211
 124719107.844 7  97183819.07143  23733232.594                    23733240.793
 107346476.965 8  83646702.237 8  20427330.992                    20427337.227
 123862720.463 7  96516486.76644  23570296.109                    23570304.910
 128754228.190 6 100328000.041 6  24501116.711                    24501126.438
 117634441.909 7  91663310.452 7  22385100.180                    22385107.168
 113701125.046 8  88598406.61045  21636615.227                    21636622.477
 113966594.558 8  88805262.12546  21687097.508                    21687101.977
 11  8 14  2 45 30.0000000  0  9G25G12G10G05G26G15G29G30G02
 113507992.459 8  88447854.179 7  21599852.570                    21599861.430
 113685061.859 7  88585804.145 7  21633540.313                    21633547.047
 124824539.529 7  97265973.64043  23753296.164                    23753303.199
 107376391.829 8  83670012.535 8  20433023.352                    20433029.793
 123767941.633 7  96442633.20744  23552260.586                    23552268.508
 128659565.656 6 100254237.207 6  24483103.938                    24483112.023
 117554203.985 7  91600787.466 7  22369831.250                    22369838.332
 113735118.342 7  88624894.89245  21643083.563                    21643091.176
 114006696.886 7  88836510.70146  21694728.797                    21694733.156
 11  8 14  2 46  0.0000000  0  9G25G12G10G05G26G15G29G30G02
 113515662.655 8  88453830.962 7  21601311.563                    21601321.473
 113752872.754 7  88638643.807 7  21646444.359                    21646451.047
 124930111.742 7  97348237.70843  23773385.461                    23773393.254
 107406811.168 8  83693715.935 8  20438812.328                    20438818.434
 123673256.418 7  96368852.61444  23534242.570                    23534250.777
 128564795.226 7 100180390.289 6  24465069.070                    24465077.766
 117474070.072 7  91538345.544 7  22354582.422                    22354589.230
 113769648.679 7  88651801.65945  21649654.602                    21649662.000
 114046890.130 7  88867830.12845  21702377.063                    21702381.539
 11  8 14  2 46 30.0000000  0  9G25G12G10G05G26G15G29G30G02
 113523903.452 8  88460252.369 7  21602880.125                    21602889.637
 113821080.818 7  88691792.949 7  21659423.852                    21659430.406
 125035821.823 7  97430609.20043  23793501.102                    23793508.512
 107437732.668 8  83717810.624 8  20444695.938                    20444702.523
 123578668.300 7  96295147.65643  23516242.664                    23516250.977
 128469918.835 6 100106460.789 6  24447014.930                    24447024.195
 117394041.870 7  91475985.967 7  22339353.094                    22339360.707
 113804713.819 7  88679125.14045  21656327.711                    21656334.957
 114087173.948 7  88899220.12746  21710043.125                    21710047.652
 11  8 14  2 47  0.0000000  0  9G25G12G10G05G26G15G29G30G02
 113532714.010 8  88467117.733 7  21604556.203                    21604565.863
 113889683.425 7  88745249.528 7  21672478.672                    21672485.074
 125141667.235 6  97513086.12643  23813643.344                    23813651.121
 107469154.895 8  83742295.499 8  20450675.688                    20450682.152
 123484180.829 7  96221521.11744  23498262.680                    23498270.375
 128374939.268 7 100032450.887 6  24428941.383                    24428949.445
 117314121.418 7  91413710.359 7  22324144.906                    22324151.844
 113840311.746 7  88706863.78745  21663101.273                    21663108.766
 114127548.099 7  88930680.52945  21717726.063                    21717730.289
 11  8 14  2 47 30.0000000  0  9G25G12G10G05G26G15G29G30G02
 113542093.682 8  88474426.577 7  21606341.430                    21606350.695
 113958678.277 7  88799011.753 7  21685607.594                    21685614.332
 125247645.435 6  97595666.52743  23833809.422                    23833817.566
 107501076.104 8  83767169.182 8  20456749.820                    20456756.387
 123389797.431 7  96147975.66144  23480301.625                    23480309.324
 128279859.105 6  99958362.643 6  24410847.305                    24410856.188
 117234310.810 7  91351520.342 7  22308957.156                    22308964.160
 113876440.522 7  88735016.09145  21669976.516                    21669983.992
 114168012.705 8  88962211.39445  21725426.008                    21725430.574
 11  8 14  2 48  0.0000000  0  9G25G12G10G05G26G15G29G30G02
 113552041.507 8  88482178.128 7  21608234.461                    21608244.191
 114028062.310 7  88853077.237 7  21698811.203                    21698817.152
 125353753.637 6  97678348.22443  23854001.242                    23854009.961
 107533494.328 8  83792430.153 8  20462919.094                    20462925.379
 123295521.566 7  96074514.03844  23462362.156                    23462369.613
 128184681.001 7  99884198.047 6  24392735.867                    24392743.875
 117154611.886 7  91289417.339 7  22293791.453                    22293798.234
 113913098.065 7  88763580.41145  21676952.219                    21676959.660
 114208567.458 8  88993812.49745  21733143.547                    21733147.684
 11  8 14  2 48 30.0000000  0  9G25G12G10G05G26G15G29G30G02
 113562556.694 8  88490371.791 7  21610235.688                    21610244.957
 114097832.972 8  88907443.998 7  21712087.711                    21712094.605
 125459989.175 6  97761129.14743  23874217.508                    23874225.680
 107566407.885 8  83818077.100 8  20469182.219                    20469188.570
 123201356.937 7  96001139.04143  23444443.070                    23444450.570
 128089407.663 7  99809959.179 6  24374605.055                    24374614.480
 117075026.543 7  91227402.848 7  22278646.547                    22278653.730
 113950282.309 7  88792555.15245  21684028.445                    21684035.566
 114249212.361 8  89025483.85945  21740877.375                    21740882.109
 11  8 14  2 49  0.0000000  0  9G25G12G10G05G26G15G29G30G02
 113573638.283 8  88499006.792 7  21612344.203                    21612353.711
 114167987.315 7  88962109.721 7  21725438.008                    21725443.961
 125566349.289 7  97844007.15743  23894457.313                    23894464.582
 107599814.615 8  83844108.332 8  20475539.125                    20475545.652
 123107306.999 7  95927853.47744  23426545.398                    23426553.258
 127994041.581 6  99735648.116 6  24356457.969                    24356466.145
 116995556.725 7  91165478.387 7  22263523.875                    22263531.195
 113987991.163 7  88821938.67646  21691203.797                    21691211.297
 114289947.046 7  89057225.17645  21748628.680                    21748633.473
 11  8 14  2 49 30.0000000  0  9G25G12G10G05G26G15G29G30G02
 113585285.361 8  88508082.445 7  21614560.531                    21614570.191
 114238522.474 7  89017072.186 7  21738860.344                    21738866.430
 125672831.642 7  97926980.39543  23914720.547                    23914727.840
 107633713.258 8  83870522.875 8  20481989.945                    20481996.258
 123013375.549 7  95854660.19744  23408671.578                    23408679.156
 127898585.206 7  99661266.677 6  24338292.367                    24338301.242
 116916204.787 7  91103645.766 7  22248423.422                    22248430.844
 114026222.372 7  88851729.22645  21698478.930                    21698486.637
 114330771.717 7  89089036.61745  21756397.484                    21756402.500
 11  8 14  2 50  0.0000000  0  9G25G12G10G05G26G15G29G30G02
 113597496.935 8  88517597.961 7  21616884.336                    21616893.879
 114309436.109 8  89072329.561 7  21752354.734                    21752360.965
 125779433.378 7  98010046.68043  23935006.461                    23935013.727
 107668101.306 8  83897318.774 8  20488533.672                    20488539.840
 122919565.719 7  95781561.69844  23390819.648                    23390827.758
 127803041.094 7  99586816.836 6  24320111.609                    24320120.020
 116836972.447 7  91041906.344 7  22233345.938                    22233353.656
 114064973.785 7  88881925.14645  21705852.852                    21705860.242
 114371686.155 8  89120918.00545  21764183.914                    21764188.758
 11  8 14  2 50 30.0000000  0  9G25G12G10G05G26G15G29G30G02
 113610272.289 8  88527552.799 7  21619315.578                    21619325.184
 114380725.379 8  89127879.649 7  21765920.461                    21765926.992
 125886152.000 6  98093204.02443  23955314.258                    23955321.883
 107702977.250 8  83924494.850 8  20495170.484                    20495176.766
 122825881.514 7  95708561.09444  23372992.289                    23372999.984
 127707412.351 7  99512301.065 6  24301914.289                    24301922.156
 116757861.573 7  90980261.567 7  22218291.672                    22218298.773
 114104243.582 7  88912524.98745  21713325.602                    21713333.109
 114412690.527 8  89152869.45945  21771986.289                    21771990.785
 11  8 14  2 51  0.0000000  0  9G25G12G10G05G26G15G29G30G02
 113623610.252 8  88537946.029 7  21621853.602                    21621863.117
 114452387.326 8  89183720.124 7  21779557.219                    21779564.063
 125992984.942 7  98176450.46743  23975643.750                    23975651.094
 107738339.163 8  83952049.596 8  20501899.367                    20501906.020
 122732326.430 7  95635661.09744  23355189.320                    23355197.063
 127611701.437 7  99437721.269 6  24283700.711                    24283708.711
 116678874.236 7  90918713.041 7  22203261.086                    22203268.109
 114144029.314 7  88943526.86245  21720896.891                    21720904.301
 114453784.832 7  89184891.00745  21779806.281                    21779811.180
 11  8 14  2 51 30.0000000  0  9G25G12G10G05G26G15G29G30G02
 113637509.871 8  88548776.923 7  21624498.563                    21624508.148
 114524419.344 7  89239848.966 7  21793264.609                    21793271.535
 126099929.703 6  98259784.04743  23995994.227                    23996001.898
 107774185.313 8  83979981.676 8  20508720.758                    20508726.980
 122638903.845 7  95562864.33244  23337411.320                    23337419.195
 127515910.754 7  99363079.319 6  24265471.633                    24265480.258
 116600012.746 7  90857262.591 7  22188254.297                    22188261.512
 114184328.850 8  88974929.10545  21728565.492                    21728572.766
 114494968.665 8  89216982.30945  21787643.773                    21787648.637
 11  8 14  2 52  0.0000000  0  9G25G12G10G05G26G15G29G30G02
 113651970.073 8  88560044.613 7  21627250.289                    21627259.660
 114596818.731 7  89296264.082 7  21807041.656                    21807048.480
 126206983.485 6  98343202.57843  24016366.234                    24016373.820
 107810513.354 8  84008289.250 8  20515633.898                    20515640.277
 122545617.657 7  95490173.87044  23319659.781                    23319667.164
 127420042.922 6  99288377.199 6  24247228.281                    24247236.801
 116521278.866 7  90795911.570 7  22173271.492                    22173278.543
 114225140.004 7  89006730.01145  21736331.492                    21736338.902
 114536241.944 8  89249143.31645  21795497.219                    21795502.020
 11  8 14  2 52 30.0000000  0  9G25G12G10G05G26G15G29G30G02
 113666989.905 8  88571748.394 7  21630108.398                    21630117.816
 114669582.529 7  89352963.142 7  21820888.070                    21820894.926
 126314143.909 6  98426704.21543  24036758.313                    24036765.582
 107847321.922 8  84036971.261 8  20522638.023                    20522644.695
 122452471.184 7  95417592.29044  23301933.805                    23301941.965
 127324101.096 6  99213617.467 6  24228970.797                    24228979.434
 116442674.848 7  90734661.738 7  22158313.820                    22158320.949
 114266460.616 7  89038927.89445  21744194.656                    21744202.195
 114577604.880 8  89281374.17645  21803368.820                    21803373.168
 11  8 14  2 53  0.0000000  0  9G25G12G10G05G26G15G29G30G02
 113682567.931 8  88583887.137 7  21633072.719                    21633082.504
 114742707.689 8  89409943.781 7  21834803.695                    21834809.902
 126421408.519 6  98510287.03243  24057170.391                    24057177.285
 107884608.410 8  84066025.685 8  20529733.625                    20529739.699
 122359467.904 7  95345122.24944  23284236.273                    23284243.836
 127228087.600 6  99138801.896 6  24210700.336                    24210708.813
 116364202.337 7  90673514.383 7  22143380.672                    22143388.191
 114308288.085 8  89071520.73445  21752154.344                    21752161.246
 114619056.845 8  89313674.42645  21811256.750                    21811261.164
 11  8 14  2 53 30.0000000  0  9G25G12G10G05G26G15G29G30G02
 113698703.311 8  88596460.169 7  21636143.305                    21636152.629
 114816191.832 7  89467204.153 7  21848786.906                    21848793.445
 126528774.465 6  98593948.82343  24077600.641                    24077607.789
 107922371.219 8  84095451.264 8  20536919.477                    20536926.039
 122266611.757 7  95272766.88844  23266566.117                    23266574.148
 127132005.104 6  99063932.555 6  24192416.648                    24192425.254
 116285863.811 7  90612471.443 7  22128473.563                    22128480.977
 114350620.360 8  89104506.93945  21760209.852                    21760217.070
 114660598.334 8  89346044.41845  21819161.875                    21819166.277
 11  8 14  2 54  0.0000000  0  9G25G12G10G05G26G15G29G30G02
 113715394.972 8  88609466.670 7  21639319.586                    21639329.039
 114890032.320 7  89524742.199 7  21862838.234                    21862845.086
 126636239.595 6  98677687.89143  24098050.703                    24098057.988
 107960608.546 8  84125246.592 8  20544196.000                    20544202.145
 122173906.379 7  95200529.00344  23248924.633                    23248932.664
 127035856.400 7  98989011.587 6  24174119.641                    24174128.129
 116207661.039 7  90551534.279 7  22113591.250                    22113598.777
 114393455.262 8  89137884.79045  21768361.320                    21768368.086
 114702229.450 8  89378484.25745  21827083.891                    21827088.539
 11  8 14  2 54 30.0000000  0  9G25G12G10G05G26G15G29G30G02
 113732641.664 8  88622905.660 7  21642601.625                    21642611.023
 114964226.105 7  89582555.549 7  21876957.000                    21876963.480
 126743801.054 6  98761502.01243  24118519.023                    24118526.473
 107999318.098 7  84155409.888 8  20551561.984                    20551568.566
 122081355.098 7  95128411.18844  23231312.516                    23231320.398
 126939644.119 6  98914041.109 5  24155811.813                    24155819.184
 116129596.349 7  90490704.702 7  22098736.047                    22098743.652
 114436790.367 7  89171652.41845  21776607.727                    21776614.629
 114743950.028 7  89410993.79645  21835023.148                    21835027.918
 11  8 14  2 55  0.0000000  0  9G25G12G10G05G26G15G29G30G02
 113750442.117 8  88636776.152 7  21645989.133                    21645998.156
 115038770.088 7  89640641.772 7  21891142.242                    21891148.855
 126851456.455 6  98845389.34143  24139006.195                    24139012.656
 108038497.967 8  84185939.658 7  20559018.008                    20559024.270
 121988961.698 7  95056416.39644  23213730.773                    23213738.836
 126843371.060 7  98839023.266 6  24137491.469                    24137500.012
 116051671.505 7  90429984.112 7  22083907.688                    22083915.348
 114480623.269 7  89205807.92645  21784948.273                    21784955.871
 114785759.920 7  89443572.93945  21842979.430                    21842983.699
 11  8 14  2 55 30.0000000  0  9G25G12G10G05G26G15G29G30G02
 113768795.317 8  88651077.370 7  21649481.375                    21649490.906
 115113661.247 8  89698998.515 7  21905393.508                    21905400.250
 126959203.278 6  98929347.87443  24159508.961                    24159515.664
 108078146.343 8  84216834.504 8  20566562.602                    20566568.844
 121896729.738 7  94984547.40644  23196179.852                    23196187.402
 126747040.071 7  98763960.278 6  24119159.578                    24119167.859
 115973888.760 7  90369374.239 7  22069106.258                    22069113.426
 114524951.775 7  89240349.63345  21793383.773                    21793391.449
 114827659.307 8  89476221.82445  21850952.555                    21850956.941
 11  8 14  2 56  0.0000000  0  9G25G12G10G05G26G15G29G30G02
 113787699.790 8  88665808.143 7  21653078.633                    21653088.277
 115188896.943 7  89757623.735 7  21919710.281                    21919717.215
 127067038.712 6  99013375.48143  24180029.063                    24180036.953
 108118260.805 8  84248092.538 8  20574196.344                    20574202.465
 121804662.836 7  94912807.01244  23178659.742                    23178667.180
 126650653.569 6  98688854.039 6  24100818.063                    24100826.340
 115896250.151 7  90308876.668 7  22054331.797                    22054338.910
 114569773.278 7  89275275.48445  21801912.984                    21801920.590
 114869647.740 8  89508940.07945  21858942.633                    21858946.930
 11  8 14  2 56 30.0000000  0  9G25G12G10G05G26G15G29G30G02
 113807154.200 8  88680967.434 7  21656781.328                    21656790.195
 115264474.254 7  89816515.159 7  21934091.945                    21934099.043
 127174960.363 6  99097470.27543  24200566.344                    24200573.121
 108158839.159 7  84279712.038 8  20581917.914                    20581924.516
 121712764.545 7  94841198.02544  23161172.438                    23161179.555
 126554214.251 7  98613706.646 6  24082466.664                    24082474.074
 115818757.606 7  90248492.923 7  22039585.789                    22039592.465
 114615085.416 7  89310583.65145  21810535.773                    21810543.504
 114911725.427 7  89541727.88545  21866949.609                    21866954.590
 11  8 14  2 57  0.0000000  0  9G25G12G10G05G26G15G29G30G02
 113827157.562 8  88696554.485 7  21660587.500                    21660596.625
 115340390.577 8  89875670.739 7  21948538.688                    21948545.789
 127282966.047 6  99181630.57343  24221118.992                    24221126.250
 108199879.981 8  84311691.909 7  20589727.805                    20589733.797
 121621038.593 7  94769723.32544  23143717.664                    23143724.938
 126457725.197 7  98538520.510 6  24064104.125                    24064112.770
 115741413.520 7  90188224.856 7  22024867.500                    22024874.078
 114660886.045 8  89346272.46245  21819251.281                    21819259.117
 114953892.617 8  89574585.43345  21874973.695                    21874978.785
 11  8 14  2 57 30.0000000  0  9G25G12G10G05G26G15G29G30G02
 113847708.769 8  88712568.432 7  21664497.906                    21664507.039
 115416643.588 8  89935088.672 7  21963049.250                    21963055.813
 127391053.321 6  99265854.40843  24241687.391                    24241694.898
 108241381.371 8  84344030.666 7  20597625.188                    20597631.410
 121529489.056 7  94698386.07144  23126296.484                    23126303.668
 126361189.224 7  98463297.817 6  24045734.422                    24045742.652
 115664220.054 7  90128074.153 7  22010178.188                    22010185.004
 114707172.895 8  89382340.14945  21828059.430                    21828066.641
 114996149.634 7  89607512.96645  21883015.094                    21883019.828
 11  8 14  2 58  0.0000000  0  9G25G12G10G05G26G15G29G30G02
 113868806.083 8  88729007.910 7  21668512.664                    21668521.785
 115493229.491 8  89994766.006 7  21977623.117                    21977629.746
 127499219.374 6  99350139.62043  24262270.969                    24262278.059
 108283340.638 8  84376726.209 8  20605609.578                    20605615.758
 121438119.152 7  94627188.80144  23108908.586                    23108916.363
 126264608.780 6  98388040.439 6  24027355.742                    24027363.512
 115587179.063 8  90068042.266 7  21995517.695                    21995524.789
 114753943.096 8  89418784.46345  21836959.555                    21836967.473
 115038495.933 8  89640510.07745  21891073.164                    21891077.727
 11  8 14  2 58 30.0000000  0  9G25G12G10G05G26G15G29G30G02
 113890448.539 8  88745872.176 7  21672630.836                    21672640.383
 115570145.672 8  90054700.707 7  21992259.383                    21992266.180
 127607462.350 6  99434484.71643  24282868.563                    24282875.684
 108325756.579 8  84409777.599 8  20613681.008                    20613687.781
 121346932.875 7  94556134.61844  23091557.219                    23091564.070
 126167986.604 7  98312750.550 6  24008968.992                    24008977.059
 115510293.275 7  90008131.304 7  21980886.500                    21980893.594
 114801194.579 8  89455603.81445  21845951.070                    21845958.320
 115080931.931 7  89673577.09345  21899148.344                    21899153.164
 11  8 14  2 59  0.0000000  0  9G25G12G10G05G26G15G29G30G02
 113912634.181 8  88763159.700 7  21676852.961                    21676862.102
 115647388.919 8  90114890.261 7  22006958.469                    22006965.250
 127715779.038 6  99518887.33643  24303480.305                    24303487.785
 108368625.933 8  84443182.301 7  20621838.867                    20621845.254
 121255933.113 7  94485225.76444  23074240.438                    23074247.313
 126071325.750 6  98237430.547 6  23990574.688                    23990583.191
 115433563.995 8  89948342.295 7  21966285.984                    21966292.660
 114848924.350 8  89492795.85545  21855033.734                    21855041.188
 115123457.176 7  89706713.63445  21907240.758                    21907245.914
 11  8 14  2 59 30.0000000  0  9G25G12G10G05G26G15G29G30G02
 113935361.505 8  88780869.318 7  21681177.664                    21681186.980
 115724956.267 8  90175332.362 7  22021719.172                    22021725.863
 127824167.121 6  99603345.57643  24324106.094                    24324113.672
 108411946.236 8  84476938.389 7  20630082.836                    20630088.777
 121165123.660 7  94414465.18644  23056959.953                    23056966.703
 125974628.284 6  98162082.003 6  23972173.500                    23972181.965
 115356993.355 8  89888676.906 7  21951714.867                    21951721.656
 114897129.827 8  89530358.56745  21864207.070                    21864214.039
 115166071.425 7  89739919.53745  21915350.023                    21915354.656
 11  8 14  3  0  0.0000000  0  9G25G12G10G05G26G15G29G30G02
 113958629.626 8  88799000.331 7  21685605.359                    21685614.891
 115802845.186 8  90236025.029 7  22036540.922                    22036547.566
 127932624.443 6  99687857.72843  24344744.906                    24344752.133
 108455716.482 8  84511045.084 7  20638411.859                    20638417.906
 121074508.448 7  94343855.98244  23039715.922                    23039723.441
 125877897.790 7  98086707.699 6  23953766.203                    23953773.848
 115280583.926 8  89829137.125 7  21937174.313                    21937181.684
 114945809.027 8  89568290.43445  21873470.258                    21873477.215
 115208775.496 7  89773195.43245  21923476.453                    21923481.031
 11  8 14  3  0 30.0000000  0  9G25G12G10G05G26G15G29G30G02
 113982437.269 8  88817551.752 7  21690136.250                    21690145.336
 115881053.104 8  90296966.286 7  22051422.883                    22051430.258
 128041148.604 6  99772422.02943  24365396.117                    24365403.648
 108499934.900 8  84545501.005 7  20646826.188                    20646832.348
 120984091.698 7  94273401.43444  23022510.242                    23022517.586
 125781137.151 6  98011309.892 6  23935353.609                    23935361.602
 115204338.041 8  89769724.787 7  21922665.484                    21922672.297
 114994959.592 8  89606589.59545  21882823.539                    21882830.941
 115251569.470 8  89806541.38445  21931619.898                    21931624.434
 11  8 14  3  1  0.0000000  0  9G25G12G10G05G26G15G29G30G02
 114006782.581 8  88836522.149 7  21694768.664                    21694778.125
 115959576.724 8  90358153.533 7  22066365.906                    22066372.629
 128149737.118 6  99857036.43043  24386059.414                    24386067.715
 108544598.465 8  84580303.787 7  20655325.406                    20655331.891
 120893876.395 7  94203103.82944  23005343.016                    23005350.484
 125684348.768 6  97935890.502 6  23916935.008                    23916943.184
 115128257.490 8  89710441.275 7  21908187.789                    21908194.652
 115044578.549 8  89645253.72745  21892265.609                    21892272.887
 115294452.974 8  89839957.10545  21939780.539                    21939784.781
 11  8 14  3  1 30.0000000  0 10G25G12G10G05G26G15G29G21G30G02
 114031664.204 8  88855910.435 7  21699503.586                    21699512.852
 116038412.981 7  90419584.393 7  22081367.836                    22081374.574
 128258387.399 6  99941698.88443  24406735.352                    24406743.691
 108589705.699 8  84615452.298 7  20663909.125                    20663915.301
 120803866.447 7  94132966.25644  22988214.180                    22988222.004
 125587535.885 6  97860452.011 6  23898512.359                    23898520.156
 115052344.848 8  89651288.600 7  21893741.734                    21893748.965
 132306246.49016 103095824.48752  25177046.797                    25177054.559
 115094663.479 8  89684280.96345  21901796.305                    21901803.891
 115337426.365 8  89873442.86145  21947957.875                    21947962.598
 11  8 14  3  2  0.0000000  0 10G25G12G10G05G26G15G29G21G30G02
 114057080.858 8  88875715.629 7  21704340.086                    21704349.535
 116117559.442 8  90481256.967 7  22096429.078                    22096435.844
 128367097.623 6 100026408.19542  24427422.641                    24427429.969
 108635254.326 7  84650944.741 8  20672576.711                    20672582.777
 120714065.876 7  94062991.83844  22971125.773                    22971133.293
 125490701.115 6  97784996.475 6  23880085.031                    23880093.422
 114976602.227 8  89592268.411 7  21879328.266                    21879335.699
 132248878.55716 103051122.01352  25166129.984                    25166138.078
 115145212.161 8  89723669.56045  21911415.352                    21911422.645
 115380489.800 7  89906998.77445  21956152.672                    21956157.195
 11  8 14  3  2 30.0000000  0 10G25G12G10G05G26G15G29G21G30G02
 114083030.554 8  88895936.187 7  21709277.961                    21709287.527
 116197012.593 7  90543168.522 7  22111548.352                    22111555.066
 128475864.871 6 100111161.90542  24448119.953                    24448128.023
 108681241.536 8  84686778.942 7  20681327.656                    20681334.297
 120624477.687 7  93993182.90544  22954077.602                    22954085.137
 125393847.134 6  97709525.932 6  23861654.773                    23861661.996
 114901031.389 8  89533382.075 7  21864947.695                    21864954.754
 132191521.386 6 103006428.55442  25155215.102                    25155223.563
 115196221.382 7  89763417.02145  21921122.047                    21921129.469
 115423643.029 7  89940624.66045  21964364.313                    21964368.848
 11  8 14  3  3  0.0000000  0 10G25G12G10G05G26G15G29G21G30G02
 114109511.708 8  88916570.862 7  21714316.938                    21714326.781
 116276769.255 8  90605316.585 7  22126725.594                    22126732.016
 128584686.750 6 100195958.12142  24468828.930                    24468836.598
 108727665.351 8  84722953.352 8  20690161.938                    20690168.305
 120535105.804 7  93923542.53244  22937070.703                    22937077.949
 125296976.620 6  97634042.520 6  23843220.227                    23843228.309
 114825634.689 8  89474631.423 7  21850600.195                    21850607.098
 132134175.892 6 102961743.86542  25144302.438                    25144310.430
 115247688.673 8  89803521.41445  21930916.352                    21930923.633
 115466886.098 8  89974320.55845  21972593.039                    21972597.742
 11  8 14  3  3 30.0000000  0 10G25G12G10G05G26G15G29G21G30G02
 114136522.995 8  88937618.628 7  21719457.516                    21719466.719
 116356826.891 7  90667699.165 7  22141959.836                    22141966.930
 128693560.924 6 100280795.14442  24489546.219                    24489553.820
 108774523.857 8  84759466.488 7  20699078.859                    20699085.242
 120445953.930 7  93854073.58444  22920105.617                    22920113.516
 125200092.519 6  97558548.512 6  23824784.039                    23824791.969
 114750414.356 7  89416018.205 7  21836286.227                    21836293.367
 132076841.314 6 102917067.67042  25133392.219                    25133400.066
 115299611.607 7  89843980.85945  21940796.820                    21940803.746
 115510219.646 8  90008086.95345  21980839.172                    21980843.922
 11  8 14  3  4  0.0000000  0 10G25G12G10G05G26G15G29G21G30G02
 114164062.674 8  88959078.127 7  21724697.844                    21724707.121
 116437182.463 7  90730313.907 7  22157251.469                    22157258.102
 128802485.100 6 100365671.19643  24510274.914                    24510281.328
 108821814.716 8  84796316.519 8  20708077.797                    20708084.625
 120357025.660 7  93784778.88044  22903183.211                    22903190.336
 125103197.727 7  97483046.194 6  23806345.195                    23806353.277
 114675372.299 7  89357543.896 7  21822005.844                    21822013.574
 132019517.026 6 102872399.50642  25122483.945                    25122491.379
 115351987.465 7  89884793.22145  21950763.547                    21950770.852
 115553643.307 8  90041923.56645  21989102.875                    21989107.313
 11  8 14  3  4 30.0000000  0 10G25G12G10G05G26G15G29G21G30G02
 114192128.738 8  88980947.788 7  21730038.828                    21730048.285
 116517832.874 7  90793158.384 7  22172598.180                    22172605.438
 128911457.001 6 100450584.28943  24531010.836                    24531018.879
 108869535.132 8  84833501.270 7  20717159.070                    20717165.023
 120268324.428 7  93715661.07744  22886304.031                    22886311.129
 125006294.976 7  97407537.653 6  23787905.875                    23787913.129
 114600510.641 7  89299210.160 7  21807760.680                    21807767.086
 131962202.031 6 102827738.65442  25111576.820                    25111584.824
 115404813.070 7  89925956.04345  21960815.680                    21960823.426
 115597156.932 8  90075830.28245  21997383.234                    21997387.727
 11  8 14  3  5  0.0000000  0 10G25G12G10G05G26G15G29G21G30G02
 114220720.056 8  89003226.743 7  21735479.328                    21735488.719
 116598775.133 7  90856230.280 7  22188001.242                    22188007.488
 129020474.266 6 100535532.84243  24551756.070                    24551763.414
 108917683.743 8  84871019.680 8  20726321.367                    20726327.531
 120179854.269 7  93646723.33144  22869468.641                    22869475.551
 124909387.460 7  97332025.370 6  23769464.281                    23769471.797
 114525832.172 8  89241019.170 7  21793549.516                    21793556.781
 131904896.273 6 102783084.93042  25100672.313                    25100679.543
 115458086.406 7  89967467.73045  21970953.305                    21970960.648
 115640760.934 7  90109807.42445  22005680.586                    22005684.703
 11  8 14  3  5 30.0000000  0 10G25G12G10G05G26G15G29G21G30G02
 114249834.560 8  89025913.376 7  21741019.883                    21741029.055
 116680006.041 7  90919527.097 7  22203458.586                    22203465.156
 129129534.443 6 100620514.79943  24572509.484                    24572516.934
 108966257.631 8  84908869.476 8  20735564.211                    20735570.902
 120091618.578 7  93577968.30244  22852678.156                    22852685.215
 124812477.546 6  97256511.252 6  23751022.656                    23751030.516
 114451338.519 8  89182972.199 7  21779373.742                    21779380.809
 131847598.979 5 102738437.80642  25089768.125                    25089776.293
 115511804.377 7  90009325.89945  21981175.828                    21981182.758
 115684455.166 7  90143854.86845  22013995.219                    22013999.695
 11  8 14  3  6  0.0000000  0 10G25G12G10G05G26G15G29G21G30G02
 114279471.331 8  89049006.966 7  21746659.711                    21746668.898
 116761523.432 7  90983047.148 7  22218970.875                    22218977.977
 129238636.025 6 100705529.02543  24593270.797                    24593277.930
 109015255.820 8  84947049.885 8  20744888.750                    20744895.004
 120003621.821 7  93509399.43744  22835933.188                    22835940.102
 124715569.287 7  97180998.415 6  23732582.359                    23732589.688
 114377032.784 7  89125071.650 7  21765233.953                    21765240.957
 131790309.924 6 102693797.15043  25078866.609                    25078874.883
 115565965.121 7  90051529.07345  21991482.180                    21991489.180
 115728240.685 7  90177973.45545  22022327.125                    22022331.996
 11  8 14  3  6 30.0000000  0  9G25G12G05G26G15G29G21G30G02
 114309628.581 8  89072506.138 7  21752398.367                    21752407.523
 116843324.518 7  91046788.262 7  22234537.336                    22234544.055
 109064675.644 8  84985558.858 7  20754292.633                    20754299.027
 119915867.741 7  93441019.66744  22819234.078                    22819240.965
 124618665.098 6  97105488.767 6  23714141.250                    23714149.203
 114302917.354 8  89067319.397 7  21751130.102                    21751136.773
 131733028.756 5 102649162.57442  25067965.164                    25067974.543
 115620565.744 7  90094075.00945  22001872.188                    22001879.727
 115772117.300 7  90212163.00945  22030677.227                    22030681.570
 11  8 14  3  7  0.0000000  0  9G25G12G05G26G15G29G21G30G02
 114340303.959 8  89096409.030 7  21758235.367                    21758244.996
 116925405.372 7  91110747.370 7  22250156.891                    22250163.359
 109114514.060 8  85024393.996 7  20763776.680                    20763782.969
 119828359.153 7  93372831.20945  22802581.695                    22802588.910
 124521767.121 6  97029983.931 6  23695701.758                    23695710.578
 114228993.659 8  89009716.552 7  21737063.242                    21737069.535
 131675754.496 5 102604533.40042  25057066.172                    25057075.574
 115675603.013 7  90136961.19745  22012345.297                    22012352.832
 115816084.646 8  90246423.27345  22039043.367                    22039047.844
 11  8 14  3  7 30.0000000  0  9G25G12G05G26G15G29G21G30G02
 114371495.851 8  89120714.412 7  21764171.125                    21764180.750
 117007763.367 7  91174922.437 7  22265829.453                    22265835.770
 109164769.196 8  85063553.852 7  20773339.930                    20773346.473
 119741100.113 7  93304837.19044  22785976.406                    22785983.422
 124424878.846 6  96954486.697 6  23677265.180                    23677272.867
 114155263.921 8  88952264.837 7  21723032.961                    21723039.648
 131618487.06515 102559909.12352  25046168.852                    25046177.641
 115731074.325 7  90180185.59745  22022901.250                    22022908.887
 115860143.089 7  90280754.51345  22047427.648                    22047432.434
 11  8 14  3  8  0.0000000  0  9G25G12G05G26G15G29G21G30G02
 114403202.279 8  89145420.719 7  21770204.992                    21770214.180
 117090394.871 7  91239310.648 7  22281553.516                    22281560.008
 109215438.611 8  85103036.525 7  20782982.023                    20782988.414
 119654093.938 7  93237040.20644  22769419.734                    22769426.906
 124328002.919 6  96878999.059 6  23658830.273                    23658838.074
 114081730.312 8  88894965.963 7  21709039.547                    21709046.359
 131561223.963 6 102515289.05843  25035272.125                    25035281.004
 115786976.734 7  90223745.91545  22033539.547                    22033546.473
 115904292.796 7  90315156.87745  22055829.438                    22055833.664
 11  8 14  3  8 30.0000000  0  9G25G12G05G26G15G29G21G30G02
 114435421.590 8  89170526.682 7  21776336.031                    21776344.922
 117173297.403 8  91303910.023 7  22297329.547                    22297335.816
 109266520.068 8  85142840.274 7  20792702.391                    20792708.895
 119567344.701 7  93169443.44044  22752911.703                    22752919.211
 124231142.361 6  96803523.405 6  23640398.578                    23640405.949
 114008395.103 8  88837821.687 7  21695084.664                    21695091.238
 131503966.616 6 102470673.04643  25024377.031                    25024384.730
 115843307.548 7  90267640.06145  22044258.219                    22044265.957
 115948533.639 7  90349630.25945  22064247.836                    22064252.770
 11  8 14  3  9  0.0000000  0  9G25G12G05G26G15G29G21G30G02
 114468151.876 8  89196030.812 7  21782564.023                    21782573.324
 117256467.812 7  91368718.132 7  22313156.102                    22313162.375
 109318011.349 8  85182963.369 7  20802500.938                    20802507.254
 119480855.755 7  93102049.50144  22736453.227                    22736460.652
 124134300.000 6  96728061.947 6  23621969.695                    23621977.695
 113935260.806 8  88780833.962 7  21681167.391                    21681174.133
 131446713.880 6 102426060.63943  25013482.328                    25013489.691
 115900063.989 7  90311865.86645  22055058.641                    22055066.109
 115992865.940 7  90384174.89545  22072683.992                    22072688.688
 11  8 14  3  9 30.0000000  0  9G25G12G05G26G15G29G21G30G02
 114501391.162 8  89221931.562 7  21788889.609                    21788898.938
 117339902.720 7  91433732.348 7  22329033.031                    22329039.660
 109369909.965 8  85223403.853 7  20812377.078                    20812383.121
 119394630.755 7  93034861.22044  22720044.930                    22720052.508
 124037478.691 7  96652616.883 6  23603545.367                    23603552.539
 113862329.346 8  88724004.301 7  21667289.180                    21667296.148
 131389465.156 6 102381451.35243  25002587.367                    25002595.789
 115957243.132 7  90356421.04545  22065939.805                    22065946.941
 116037289.575 8  90418790.69745  22081137.648                    22081142.457
 11  8 14  3 10  0.0000000  0  9G25G12G05G26G15G29G21G30G02
 114535137.756 8  89248227.622 7  21795310.961                    21795320.605
 117423599.479 7  91498950.598 7  22344959.797                    22344966.727
 109422213.771 8  85264160.085 7  20822330.219                    20822336.012
 119308673.792 7  92967881.81144  22703688.383                    22703695.594
 123940681.501 7  96577190.566 6  23585124.758                    23585132.336
 113789603.255 8  88667334.665 7  21653449.516                    21653456.336
 131332219.791 6 102336844.68743  24991694.828                    24991702.430
 116014842.362 7  90401303.57445  22076900.789                    22076907.891
 116081805.041 7  90453478.05745  22089608.570                    22089613.008
 11  8 14  3 10 30.0000000  0  9G25G12G05G26G15G29G21G30G02
 114569389.769 8  89274917.507 7  21801829.258                    21801838.441
 117507554.977 7  91564370.458 7  22360936.242                    22360943.078
 109474920.500 8  85305230.277 7  20832359.633                    20832365.770
 119222988.177 7  92901113.83444  22687382.617                    22687390.301
 123843911.434 7  96501785.456 6  23566710.281                    23566717.684
 113717084.475 8  88610826.573 7  21639649.859                    21639656.160
 131274977.481 6 102292240.38743  24980801.164                    24980809.156
 116072858.801 7  90446511.20145  22087940.594                    22087947.977
 116126412.273 7  90488236.92545  22098096.789                    22098102.063
 11  8 14  3 11  0.0000000  0  9G25G12G05G26G15G29G21G30G02
 114604145.292 8  89301999.744 7  21808442.773                    21808452.328
 117591766.296 7  91629989.664 7  22376961.000                    22376967.965
 109528027.706 8  85346612.528 7  20842465.586                    20842471.605
 119137577.794 7  92834560.33844  22671129.680                    22671136.902
 123747170.914 7  96426403.311 6  23548301.375                    23548308.660
 113644775.695 8  88554482.108 7  21625890.320                    21625896.828
 131217737.746 6 102247638.10243  24969908.234                    24969916.875
 116131289.682 7  90492041.76445  22099059.820                    22099067.113
 116171111.705 7  90523067.63245  22106602.859                    22106607.633
 11  8 14  3 11 30.0000000  0  9G25G12G05G26G15G29G21G30G02
 114639402.401 8  89329472.822 7  21815152.016                    21815161.160
 117676230.316 7  91695805.784 7  22393034.219                    22393041.043
 109581533.096 8  85388305.054 7  20852647.375                    20852653.375
 119052446.254 7  92768224.11644  22654929.648                    22654936.875
 123650463.306 7  96351046.847 6  23529898.500                    23529905.883
 113572679.263 8  88498303.118 7  21612170.273                    21612176.859
 131160499.911 6 102203037.30843  24959016.773                    24959024.375
 116190132.131 7  90537893.03645  22110257.352                    22110264.715
 116215903.262 7  90557970.12745  22115126.234                    22115131.156
 11  8 14  3 12  0.0000000  0  9G25G12G05G26G15G29G21G30G02
 114675158.965 8  89357335.098 7  21821956.445                    21821965.473
 117760943.891 7  91761816.352 7  22409154.656                    22409161.078
 109635434.148 8  85430305.895 7  20862904.313                    20862910.535
 118967597.173 7  92702107.97344  22638783.727                    22638790.551
 123553791.635 7  96275718.348 6  23511502.313                    23511509.469
 113500796.925 8  88442290.949 7  21598491.656                    21598498.230
 131103263.194 6 102158437.36743  24948124.281                    24948132.902
 116249383.099 7  90584062.62945  22121532.703                    22121539.570
 116260787.255 7  90592944.65445  22123667.414                    22123672.301
 11  8 14  3 12 30.0000000  0  9G25G12G05G26G15G29G21G30G02
 114711413.155 8  89385585.113 7  21828855.250                    21828864.566
 117845904.237 7  91828019.226 7  22425321.570                    22425328.449
 109689728.813 8  85472613.435 7  20873236.352                    20873242.227
 118883034.243 7  92636214.81244  22622691.492                    22622698.676
 123457158.741 7  96200420.102 6  23493113.977                    23493120.910
 113429131.029 8  88386447.436 7  21584853.984                    21584860.926
 131046027.411 6 102113838.15743  24937233.203                    24937241.586
 116309039.924 7  90630548.48745  22132884.664                    22132891.773
 116305763.979 7  90627991.44145  22132226.594                    22132231.227
 11  8 14  3 13  0.0000000  0  9G25G12G05G26G15G29G21G30G02
 114748163.020 8  89414221.382 7  21835848.922                    21835857.938
 117931108.168 7  91894411.894 7  22441535.680                    22441542.074
 109744414.800 8  85515225.904 7  20883642.781                    20883648.746
 118798761.404 7  92570547.71044  22606655.078                    22606662.234
 123360567.796 7  96125154.508 6  23474733.031                    23474740.074
 113357684.231 8  88330774.643 7  21571257.773                    21571264.680
 130988791.965 6 102069239.17343  24926341.797                    24926349.816
 116369099.736 8  90677348.35545  22144313.352                    22144320.465
 116350833.501 7  90663110.54445  22140802.984                    22140807.547
 11  8 14  3 13 30.0000000  0  9G25G12G05G26G15G29G21G30G02
 114785406.462 8  89443242.257 7  21842935.945                    21842944.691
 118016552.574 7  91960991.958 7  22457795.359                    22457801.934
 109799489.550 8  85558141.300 7  20894122.984                    20894129.297
 118714782.207 7  92505109.40645  22590674.609                    22590681.652
 123264021.671 7  96049923.856 6  23456360.188                    23456367.746
 113286458.575 8  88275274.171 7  21557704.180                    21557711.086
 130931556.045 6 102024639.88843  24915449.703                    24915458.047
 116429559.544 7  90724459.89445  22155818.047                    22155825.676
 116395996.142 7  90698302.20145  22149397.039                    22149401.957
 11  8 14  3 14  0.0000000  0  9G25G12G05G26G15G29G21G30G02
 114823141.564 8  89472646.232 7  21850116.250                    21850125.875
 118102234.660 7  92027757.221 7  22474099.922                    22474106.605
 109854950.878 8  85601357.929 7  20904676.727                    20904683.270
 118631100.216 7  92439902.67144  22574750.117                    22574757.234
 123167523.403 7  95974730.480 6  23437997.508                    23438004.703
 113215456.524 8  88219947.929 7  21544192.633                    21544199.496
 130874319.359 6 101980039.93243  24904558.547                    24904565.754
 116490416.603 7  90771880.98745  22167399.109                    22167406.695
 116441252.165 7  90733566.63445  22158009.281                    22158013.875
